[[{"header":{"parameterUnit":"m.s-1","parameterCategory":1,"la1":30.6,"la2":29.2853,"lo1":-89.7004,"lo2":-87.6739,"dy":0.0162,"dx":0.0183,"nx":112,"ny":82,"refTime":"2023-08-23T18:00:00:Z","depth":0,"parameterNumber":2,"parameterNumberName":"U-component_of_WINDS"},"data":[0.0,0.0,0.0,0.0,0.0,0.0,0.0,0.0,0.0,0.0,0.0,0.0,0.0,0.0,0.0,0.0,0.0,0.0,0.0,0.0,0.0,0.0,0.0,0.0,0.0,0.0,0.0,0.0,0.0,0.0,0.0,0.0,0.0,0.0,0.0,0.0,0.0,0.0,0.0,0.0,0.0,0.0,0.0,0.0,0.0,0.0,0.0,0.0,0.0,0.0,0.0,0.0,0.0,0.0,0.0,0.0,0.0,0.0,0.0,0.0,0.0,0.0,0.0,0.0,0.0,0.0,0.0,0.0,0.0,0.0,0.0,0.0,0.0,0.0,0.0,0.0,0.0,0.0,0.0,0.0,0.0,0.0,0.0,0.0,0.0,0.0,0.0,0.0,0.0,0.0,-1.8534,-1.8286,-1.8553,-1.8924,-1.9402,-1.834,-1.7247,-1.6364,0.0,0.0,0.0,0.0,0.0,0.0,0.0,0.0,0.0,0.0,0.0,0.0,0.0,0.0,0.0,0.0,0.0,0.0,0.0,0.0,0.0,0.0,0.0,0.0,0.0,0.0,0.0,0.0,0.0,0.0,0.0,0.0,0.0,0.0,0.0,0.0,0.0,0.0,0.0,0.0,0.0,0.0,0.0,0.0,0.0,0.0,0.0,0.0,0.0,0.0,0.0,0.0,0.0,0.0,0.0,0.0,0.0,0.0,0.0,0.0,0.0,0.0,0.0,0.0,0.0,0.0,0.0,0.0,0.0,0.0,0.0,0.0,0.0,0.0,0.0,0.0,0.0,0.0,0.0,0.0,0.0,0.0,0.0,0.0,0.0,0.0,0.0,0.0,0.0,0.0,0.0,0.0,0.0,0.0,0.0,0.0,0.0,0.0,0.0,0.0,0.0,0.0,0.0,0.0,-1.8289,-1.9238,-1.9307,-1.9165,-1.897,-1.8371,-1.7441,-1.6052,0.0,0.0,0.0,0.0,0.0,0.0,0.0,0.0,0.0,0.0,0.0,0.0,0.0,0.0,0.0,0.0,0.0,0.0,0.0,0.0,0.0,0.0,0.0,0.0,0.0,0.0,0.0,0.0,0.0,0.0,0.0,0.0,0.0,0.0,0.0,0.0,0.0,0.0,0.0,0.0,0.0,0.0,0.0,0.0,0.0,0.0,0.0,0.0,0.0,0.0,0.0,0.0,0.0,0.0,0.0,0.0,0.0,0.0,0.0,0.0,0.0,0.0,0.0,0.0,0.0,0.0,0.0,0.0,0.0,0.0,0.0,0.0,0.0,0.0,0.0,0.0,0.0,0.0,0.0,0.0,0.0,0.0,0.0,0.0,0.0,0.0,0.0,0.0,0.0,0.0,0.0,0.0,0.0,0.0,0.0,0.0,0.0,0.0,0.0,0.0,0.0,0.0,0.0,-1.8257,-1.892,-1.9927,-1.9759,-1.95,-1.9263,-1.8774,-1.7855,-1.6303,-1.5826,0.0,0.0,0.0,0.0,0.0,0.0,0.0,0.0,0.0,0.0,0.0,0.0,0.0,0.0,0.0,0.0,0.0,0.0,0.0,0.0,0.0,0.0,0.0,0.0,0.0,0.0,0.0,0.0,0.0,0.0,0.0,0.0,0.0,0.0,0.0,0.0,0.0,0.0,0.0,0.0,0.0,0.0,0.0,0.0,0.0,0.0,0.0,0.0,0.0,0.0,0.0,0.0,0.0,0.0,0.0,0.0,0.0,0.0,0.0,0.0,0.0,0.0,0.0,0.0,0.0,0.0,0.0,0.0,0.0,0.0,0.0,0.0,0.0,0.0,0.0,0.0,0.0,0.0,0.0,0.0,0.0,0.0,0.0,0.0,0.0,0.0,0.0,0.0,0.0,0.0,0.0,0.0,0.0,0.0,0.0,0.0,0.0,0.0,0.0,0.0,0.0,0.0,-1.9474,-1.9795,-2.0421,-2.0207,-1.9901,-1.9656,-1.9089,-1.8128,-1.6738,-1.6257,0.0,0.0,0.0,0.0,0.0,0.0,0.0,0.0,0.0,0.0,0.0,0.0,0.0,0.0,0.0,0.0,0.0,0.0,0.0,0.0,0.0,0.0,0.0,0.0,0.0,0.0,0.0,0.0,0.0,0.0,0.0,0.0,0.0,0.0,0.0,0.0,0.0,0.0,0.0,0.0,0.0,0.0,0.0,0.0,0.0,0.0,0.0,0.0,0.0,0.0,0.0,0.0,0.0,0.0,0.0,0.0,0.0,0.0,0.0,0.0,0.0,0.0,0.0,0.0,0.0,0.0,0.0,0.0,0.0,0.0,0.0,0.0,0.0,0.0,0.0,0.0,0.0,0.0,0.0,0.0,0.0,0.0,0.0,0.0,0.0,0.0,0.0,0.0,0.0,0.0,0.0,0.0,0.0,0.0,0.0,0.0,0.0,0.0,0.0,0.0,0.0,0.0,-2.0096,-2.0706,-2.0746,-2.066,-2.0359,-1.985,-1.9055,-1.819,-1.7123,-1.6238,0.0,0.0,0.0,0.0,0.0,0.0,0.0,0.0,0.0,0.0,0.0,0.0,0.0,0.0,0.0,0.0,0.0,0.0,0.0,0.0,0.0,0.0,0.0,0.0,0.0,0.0,0.0,0.0,0.0,0.0,0.0,0.0,0.0,0.0,0.0,0.0,0.0,0.0,0.0,0.0,0.0,0.0,0.0,0.0,0.0,0.0,0.0,0.0,0.0,0.0,0.0,0.0,0.0,0.0,0.0,0.0,0.0,0.0,0.0,0.0,0.0,0.0,0.0,0.0,0.0,0.0,0.0,0.0,0.0,0.0,0.0,0.0,0.0,0.0,0.0,0.0,0.0,0.0,0.0,0.0,0.0,0.0,0.0,0.0,0.0,0.0,0.0,0.0,0.0,0.0,0.0,0.0,0.0,0.0,0.0,0.0,0.0,0.0,0.0,0.0,0.0,0.0,-1.9994,-2.062,-2.1126,-2.0809,-2.0666,-2.0732,-1.9809,-1.8804,-1.7808,0.0,0.0,0.0,0.0,0.0,0.0,0.0,0.0,0.0,0.0,0.0,0.0,0.0,0.0,0.0,0.0,0.0,0.0,0.0,0.0,0.0,0.0,0.0,0.0,0.0,0.0,0.0,0.0,0.0,0.0,0.0,0.0,0.0,0.0,0.0,0.0,0.0,0.0,0.0,0.0,0.0,0.0,0.0,0.0,0.0,0.0,0.0,0.0,0.0,0.0,0.0,0.0,0.0,0.0,0.0,0.0,0.0,0.0,0.0,0.0,0.0,0.0,0.0,0.0,0.0,0.0,0.0,0.0,0.0,0.0,0.0,0.0,0.0,0.0,0.0,0.0,0.0,0.0,0.0,0.0,0.0,0.0,0.0,0.0,0.0,0.0,0.0,0.0,0.0,0.0,0.0,0.0,0.0,0.0,0.0,0.0,0.0,0.0,0.0,0.0,0.0,0.0,-1.9665,-2.0597,-2.1336,-2.1889,-2.1629,-2.1405,-2.159,-2.0474,-1.9339,-1.8374,0.0,0.0,0.0,0.0,0.0,0.0,0.0,0.0,0.0,0.0,0.0,0.0,0.0,0.0,0.0,0.0,0.0,0.0,0.0,0.0,0.0,0.0,0.0,0.0,0.0,0.0,0.0,0.0,0.0,0.0,0.0,0.0,0.0,0.0,0.0,0.0,0.0,0.0,0.0,0.0,0.0,0.0,0.0,0.0,0.0,0.0,0.0,0.0,0.0,0.0,0.0,0.0,0.0,0.0,0.0,0.0,0.0,0.0,0.0,0.0,0.0,0.0,0.0,0.0,0.0,0.0,0.0,0.0,0.0,0.0,0.0,0.0,0.0,0.0,0.0,0.0,0.0,0.0,0.0,0.0,0.0,0.0,0.0,0.0,0.0,0.0,0.0,0.0,0.0,0.0,0.0,0.0,0.0,0.0,0.0,0.0,0.0,0.0,0.0,0.0,0.0,0.0,-2.0506,-2.2151,-2.32,-2.32,-2.3095,-2.2777,-2.2273,-2.0901,-1.9709,0.0,0.0,0.0,0.0,0.0,0.0,0.0,0.0,0.0,0.0,0.0,0.0,0.0,0.0,0.0,0.0,0.0,0.0,0.0,0.0,0.0,0.0,0.0,0.0,0.0,0.0,0.0,0.0,0.0,0.0,0.0,0.0,0.0,0.0,0.0,0.0,0.0,0.0,0.0,0.0,0.0,0.0,0.0,0.0,0.0,0.0,0.0,0.0,0.0,0.0,0.0,0.0,0.0,0.0,0.0,0.0,0.0,0.0,0.0,0.0,0.0,0.0,0.0,0.0,0.0,0.0,0.0,0.0,0.0,0.0,0.0,0.0,0.0,0.0,0.0,0.0,0.0,0.0,0.0,0.0,0.0,0.0,0.0,0.0,0.0,0.0,0.0,0.0,0.0,0.0,0.0,0.0,0.0,0.0,0.0,0.0,0.0,0.0,0.0,0.0,0.0,0.0,0.0,-2.088,-2.2674,-2.3852,-2.3946,-2.369,-2.335,-2.3042,-2.1493,-2.0176,-1.9328,0.0,0.0,0.0,0.0,0.0,0.0,0.0,0.0,0.0,0.0,0.0,0.0,0.0,0.0,0.0,0.0,0.0,0.0,0.0,0.0,0.0,0.0,0.0,0.0,0.0,0.0,0.0,0.0,0.0,0.0,0.0,0.0,0.0,0.0,0.0,0.0,0.0,0.0,0.0,0.0,0.0,0.0,0.0,0.0,0.0,0.0,0.0,0.0,0.0,0.0,0.0,0.0,0.0,0.0,0.0,0.0,0.0,0.0,0.0,0.0,0.0,0.0,0.0,0.0,0.0,0.0,0.0,0.0,0.0,0.0,0.0,0.0,0.0,0.0,0.0,0.0,0.0,0.0,0.0,0.0,0.0,0.0,0.0,0.0,0.0,0.0,0.0,0.0,0.0,0.0,0.0,0.0,0.0,0.0,0.0,0.0,0.0,0.0,0.0,0.0,0.0,0.0,-2.1274,-2.3214,-2.4531,-2.4627,-2.442,-2.4075,-2.3705,-2.2244,-2.0857,-1.9873,0.0,0.0,0.0,0.0,0.0,0.0,0.0,0.0,0.0,0.0,0.0,0.0,0.0,0.0,0.0,0.0,0.0,0.0,0.0,0.0,0.0,0.0,0.0,0.0,0.0,0.0,0.0,0.0,0.0,0.0,0.0,0.0,0.0,0.0,0.0,0.0,0.0,0.0,0.0,0.0,0.0,0.0,0.0,0.0,0.0,0.0,0.0,0.0,0.0,0.0,0.0,0.0,0.0,0.0,0.0,0.0,0.0,0.0,0.0,0.0,0.0,0.0,0.0,0.0,0.0,0.0,0.0,0.0,0.0,0.0,0.0,0.0,0.0,0.0,0.0,0.0,0.0,0.0,0.0,0.0,0.0,0.0,0.0,0.0,0.0,0.0,0.0,0.0,0.0,0.0,0.0,0.0,0.0,0.0,0.0,0.0,0.0,0.0,0.0,0.0,0.0,0.0,-2.1691,-2.3702,-2.5143,-2.5256,-2.5197,-2.4859,-2.4213,-2.3101,-2.1835,-2.0504,0.0,0.0,0.0,0.0,0.0,0.0,0.0,0.0,0.0,0.0,0.0,0.0,0.0,0.0,0.0,0.0,0.0,0.0,0.0,0.0,0.0,0.0,0.0,0.0,0.0,0.0,0.0,0.0,0.0,0.0,0.0,0.0,0.0,0.0,0.0,0.0,0.0,0.0,0.0,0.0,0.0,0.0,0.0,0.0,0.0,0.0,0.0,0.0,0.0,0.0,0.0,0.0,0.0,0.0,0.0,0.0,0.0,0.0,0.0,0.0,-3.2461,0.0,0.0,0.0,0.0,0.0,0.0,0.0,0.0,0.0,0.0,0.0,0.0,0.0,0.0,0.0,0.0,0.0,0.0,0.0,0.0,0.0,0.0,0.0,0.0,0.0,0.0,0.0,0.0,0.0,0.0,0.0,0.0,0.0,0.0,0.0,0.0,0.0,0.0,0.0,0.0,0.0,-2.2674,-2.4517,-2.571,-2.5581,-2.5821,-2.5674,-2.4779,-2.4223,-2.3083,-2.1223,-2.0035,0.0,0.0,0.0,0.0,0.0,0.0,0.0,0.0,0.0,0.0,0.0,0.0,0.0,0.0,0.0,0.0,0.0,0.0,0.0,0.0,0.0,0.0,0.0,0.0,0.0,0.0,0.0,0.0,0.0,0.0,0.0,0.0,0.0,0.0,0.0,0.0,0.0,0.0,0.0,0.0,0.0,0.0,0.0,0.0,0.0,0.0,0.0,0.0,0.0,0.0,0.0,0.0,0.0,0.0,0.0,0.0,0.0,0.0,0.0,0.0,-3.4486,0.0,0.0,0.0,0.0,0.0,0.0,0.0,0.0,0.0,0.0,0.0,0.0,0.0,0.0,0.0,0.0,0.0,0.0,0.0,0.0,0.0,0.0,0.0,0.0,0.0,0.0,0.0,0.0,0.0,0.0,0.0,0.0,0.0,0.0,0.0,0.0,0.0,0.0,0.0,0.0,-2.358,-2.4964,-2.5995,-2.628,-2.5641,-2.5123,-2.5027,-2.3991,-2.2835,-2.1813,-2.0693,0.0,0.0,0.0,0.0,0.0,0.0,0.0,0.0,0.0,0.0,0.0,0.0,0.0,0.0,0.0,0.0,0.0,0.0,0.0,0.0,0.0,0.0,0.0,0.0,0.0,0.0,0.0,0.0,0.0,0.0,0.0,0.0,0.0,0.0,0.0,0.0,0.0,0.0,0.0,0.0,0.0,0.0,0.0,0.0,0.0,0.0,0.0,0.0,0.0,0.0,0.0,0.0,0.0,-4.0614,-4.1252,-4.1788,-4.165,-4.1821,-4.2138,-3.9093,-3.8159,-3.8577,-3.6416,0.0,0.0,0.0,0.0,0.0,0.0,0.0,0.0,0.0,0.0,0.0,0.0,0.0,0.0,0.0,0.0,0.0,0.0,0.0,0.0,0.0,0.0,0.0,0.0,-2.8917,-2.8556,0.0,0.0,0.0,0.0,0.0,0.0,0.0,0.0,0.0,0.0,0.0,0.0,-2.4545,-2.5347,-2.6077,-2.6639,-2.5194,-2.4392,-2.5064,-2.3679,-2.2645,-2.249,-2.1439,-2.0507,0.0,0.0,0.0,0.0,0.0,0.0,0.0,0.0,0.0,0.0,0.0,0.0,0.0,0.0,0.0,0.0,0.0,0.0,0.0,0.0,0.0,0.0,0.0,0.0,0.0,0.0,0.0,0.0,0.0,0.0,0.0,0.0,-2.4638,-2.5635,0.0,0.0,0.0,0.0,0.0,0.0,0.0,0.0,0.0,0.0,0.0,0.0,0.0,-3.8619,-3.9569,-4.1438,-4.2576,-4.3137,-4.3763,-4.4259,-4.4674,-4.46,-4.4557,-4.4425,-4.3171,0.0,-3.9682,-3.8362,0.0,0.0,0.0,0.0,0.0,0.0,0.0,0.0,0.0,0.0,0.0,0.0,0.0,0.0,0.0,0.0,0.0,0.0,0.0,0.0,0.0,0.0,-3.1398,-3.0566,-3.0954,-3.1288,0.0,-2.8516,-2.6907,-2.6854,-2.6499,0.0,0.0,0.0,0.0,0.0,0.0,0.0,-2.5656,-2.5675,-2.5647,-2.5635,-2.5395,-2.5074,-2.4778,-2.4925,-2.4495,-2.3147,-2.3152,-2.2426,-2.0556,-1.99,0.0,0.0,0.0,0.0,0.0,0.0,0.0,0.0,0.0,0.0,0.0,0.0,0.0,0.0,0.0,0.0,0.0,0.0,0.0,0.0,0.0,0.0,0.0,0.0,0.0,0.0,0.0,0.0,0.0,-2.5554,-2.7397,-2.7983,-2.9307,-2.9804,0.0,0.0,0.0,0.0,0.0,0.0,0.0,0.0,0.0,-3.8232,-3.947,-4.0686,-4.2028,-4.3517,-4.4457,-4.4761,-4.5269,-4.5563,-4.5662,-4.5442,-4.5278,-4.5173,-4.4564,-4.3476,-4.1939,-4.0398,-3.9204,-3.8271,0.0,0.0,0.0,0.0,-3.6201,-3.5915,-3.633,-3.6404,0.0,-3.462,0.0,0.0,0.0,0.0,0.0,0.0,0.0,0.0,0.0,0.0,-3.1752,-3.1604,-3.1446,-3.132,-3.1175,-2.9894,-2.8812,0.0,-2.8651,-2.8139,-2.6862,0.0,0.0,0.0,0.0,-2.6585,-2.6708,-2.6499,-2.6364,-2.6525,-2.5017,-2.4097,-2.4525,-2.3982,-2.3409,-2.2969,-2.3145,-2.2763,-2.167,-2.0777,-2.0188,0.0,0.0,0.0,0.0,0.0,0.0,0.0,0.0,0.0,0.0,0.0,0.0,0.0,0.0,0.0,0.0,0.0,0.0,0.0,0.0,0.0,0.0,0.0,0.0,0.0,0.0,0.0,0.0,-2.765,-2.9488,-3.003,-3.1507,-3.2152,0.0,0.0,0.0,0.0,0.0,0.0,-3.6421,-3.7754,-3.9154,-4.0591,-4.1337,-4.2318,-4.3541,-4.4632,-4.5227,-4.5311,-4.5757,-4.5984,-4.5897,-4.5728,-4.5662,-4.5646,-4.5075,-4.4313,-4.3453,-4.2126,-4.1085,-4.0208,-3.9309,-3.8582,-3.8117,-3.8335,-3.8324,-3.825,-3.8502,-3.8324,-3.7768,-3.6041,0.0,-3.3253,-3.172,0.0,0.0,0.0,0.0,-3.099,-3.1486,-3.1498,-3.1439,-3.1711,-3.1311,-3.0858,-3.0845,-3.0411,-3.0089,0.0,-3.0019,-2.9618,-2.8061,0.0,0.0,0.0,0.0,-2.741,-2.7453,-2.6929,-2.6706,-2.6874,-2.4713,-2.3511,-2.4254,-2.3119,-2.2477,-2.2761,-2.2997,-2.2809,-2.2252,-2.1624,-2.1099,-2.0658,0.0,0.0,0.0,0.0,0.0,0.0,0.0,0.0,0.0,0.0,0.0,0.0,0.0,0.0,0.0,0.0,0.0,0.0,0.0,0.0,0.0,0.0,0.0,0.0,0.0,0.0,0.0,0.0,0.0,-3.1766,-3.3622,0.0,0.0,0.0,0.0,-3.4023,-3.6969,-3.8494,-3.7822,-3.9987,-4.13,-4.1517,-4.2877,-4.3638,-4.3719,-4.4464,-4.4704,-4.457,-4.5295,-4.5564,-4.5373,-4.5865,-4.6096,-4.6032,-4.4953,-4.4118,-4.342,-4.3233,-4.2328,-4.0952,-4.0674,-4.0179,-3.9595,-3.9891,-3.9594,-3.8987,-3.8855,-3.8253,-3.7492,-3.6789,-3.5346,-3.3756,-3.3129,-3.2403,0.0,0.0,-3.2011,-3.2212,-3.1705,-3.1568,-3.1431,-3.0856,-3.0528,-3.0377,-3.035,-3.0171,-3.0089,0.0,-3.0089,-2.9818,-2.9039,0.0,-2.8919,-2.83,-2.813,-2.7904,-2.7534,-2.6618,-2.584,-2.5371,-2.4669,-2.4171,-2.4109,-2.3395,-2.2923,-2.284,-2.3327,-2.303,-2.1728,-2.2463,-2.2378,-2.1366,-2.0894,0.0,0.0,0.0,0.0,0.0,0.0,0.0,0.0,0.0,0.0,0.0,0.0,0.0,0.0,0.0,0.0,0.0,0.0,0.0,0.0,0.0,0.0,0.0,0.0,0.0,0.0,0.0,0.0,-3.3321,-3.4531,0.0,-3.5326,-3.5933,-3.6432,-3.6741,-3.8558,-3.9638,-3.9559,-4.1155,-4.2074,-4.2245,-4.3201,-4.3783,-4.3911,-4.4496,-4.508,-4.5518,-4.5591,-4.581,-4.6143,-4.5757,-4.5537,-4.5349,-4.4526,-4.3873,-4.3411,-4.3379,-4.2481,-4.1048,-4.0628,-4.0335,-4.0207,-3.9938,-3.9661,-3.9466,-3.9104,-3.8723,-3.8135,-3.6707,-3.5438,-3.4368,-3.3649,-3.3003,-3.2527,-3.2457,-3.2134,-3.1981,-3.2203,-3.1611,-3.1076,-3.1474,-3.0705,-2.9942,-2.9929,-2.9496,-2.8971,-2.8448,-2.9228,-2.9693,-2.8915,-2.8822,-2.861,-2.7881,-2.7855,-2.7709,-2.7203,-2.6542,-2.5876,-2.5158,-2.4275,-2.3655,-2.3299,-2.2771,-2.2315,-2.1996,-2.2426,-2.231,-2.1509,-2.1909,-2.1932,-2.1441,-2.1146,-2.0864,0.0,0.0,0.0,0.0,0.0,0.0,0.0,0.0,0.0,0.0,0.0,0.0,0.0,0.0,0.0,0.0,0.0,0.0,0.0,0.0,0.0,0.0,0.0,0.0,0.0,-3.2411,-3.3847,-3.4149,-3.5305,-3.6204,-3.6437,-3.6991,-3.7642,-3.8428,-3.9762,-4.0671,-4.0853,-4.197,-4.2567,-4.2385,-4.3209,-4.3532,-4.3304,-4.4021,-4.4544,-4.5065,-4.508,-4.5303,-4.574,-4.5295,-4.5046,-4.4962,-4.4393,-4.3906,-4.3379,-4.3173,-4.2375,-4.1252,-4.0855,-4.06,-4.0431,-4.0152,-3.9742,-3.9219,-3.8415,-3.7819,-3.7266,-3.5923,-3.5022,-3.4452,-3.3802,-3.3382,-3.3072,-3.2846,-3.2219,-3.1679,-3.1928,-3.1144,-3.0391,-3.0867,-3.0168,-2.9367,-2.9381,-2.8923,-2.8268,-2.7534,-2.825,-2.8745,-2.7894,-2.7802,-2.767,-2.7131,-2.713,-2.6997,-2.638,-2.6021,-2.5511,-2.4771,-2.404,-2.3495,-2.3193,-2.2533,-2.2058,-2.1803,-2.1934,-2.1789,-2.1352,-2.1651,-2.1667,-2.1418,-2.1429,-2.1369,-2.1174,0.0,0.0,0.0,0.0,0.0,0.0,0.0,0.0,0.0,0.0,0.0,0.0,0.0,0.0,0.0,0.0,0.0,0.0,0.0,0.0,0.0,0.0,0.0,-3.1512,-3.3214,-3.4497,-3.43,-3.596,-3.6939,-3.65,-3.8094,-3.9087,-3.9049,-4.0603,-4.1561,-4.1561,-4.2472,-4.272,-4.1999,-4.2987,-4.3079,-4.2015,-4.2933,-4.3312,-4.3113,-4.3695,-4.3991,-4.4007,-4.4464,-4.4772,-4.4984,-4.4574,-4.4039,-4.3298,-4.2785,-4.2189,-4.1586,-4.1511,-4.1023,-4.0307,-4.0592,-3.9787,-3.8421,-3.679,-3.5659,-3.4927,-3.4578,-3.4307,-3.4088,-3.3744,-3.3466,-3.3241,-3.3044,-3.2332,-3.1474,-3.0829,-3.0132,-2.9372,-2.8944,-2.8729,-2.8651,-2.878,-2.8573,-2.8112,-2.7534,-2.7273,-2.6897,-2.6166,-2.6074,-2.6149,-2.606,-2.606,0.0,-2.524,-2.4892,-2.4525,-2.4119,-2.3949,-2.3865,-2.3859,-2.2711,-2.2078,-2.2257,-2.1996,-2.1637,-2.1331,-2.1713,-2.175,-2.1441,-2.1754,-2.2237,-2.2721,0.0,0.0,0.0,0.0,0.0,0.0,0.0,0.0,0.0,0.0,0.0,0.0,0.0,0.0,0.0,0.0,0.0,0.0,0.0,0.0,0.0,-3.1104,-3.2768,-3.2998,-3.4396,-3.5513,-3.5983,-3.5829,-3.6379,-3.8093,-3.7994,-3.827,-3.9395,-4.0049,-4.0377,-4.0377,-4.1238,-4.1608,-4.1311,-4.216,-4.2499,-4.2242,-4.289,-4.3251,-4.3344,-4.3866,-4.4164,-4.4117,-4.4042,-4.4042,-4.4122,-4.3072,-4.254,-4.2462,-4.2071,-4.1645,-4.1252,-4.1236,-4.0758,-4.0117,-3.9948,-3.8963,-3.7629,-3.7079,-3.6566,-3.6069,-3.5434,-3.5082,-3.4733,-3.4011,-3.3675,-3.3367,-3.2556,-3.1847,-3.1265,-3.0963,-3.0003,-2.9288,-2.9628,-2.9224,-2.878,-2.878,-2.8651,-2.8346,-2.7751,-2.7166,-2.6569,-2.61,-2.6417,-2.6485,-2.5939,-2.5824,0.0,-2.5097,-2.4748,-2.432,-2.379,-2.3721,-2.3598,-2.331,-2.2799,-2.2337,-2.2047,-2.1813,-2.1702,-2.1757,-2.1969,-2.216,-2.235,-2.2749,-2.3276,0.0,0.0,0.0,0.0,0.0,0.0,0.0,0.0,0.0,0.0,0.0,0.0,0.0,0.0,0.0,0.0,0.0,0.0,0.0,0.0,0.0,0.0,-3.2288,-3.4103,-3.4222,-3.5205,-3.6148,-3.6831,-3.6546,-3.688,-3.8488,-3.8092,-3.8302,-3.9626,-3.9748,-4.0033,-4.0499,-4.1394,-4.1584,-4.0915,-4.2045,-4.2351,-4.1697,-4.222,-4.26,-4.2708,-4.2851,-4.3092,-4.3403,-4.3203,-4.3287,0.0,-4.2442,-4.1884,-4.1741,-4.1486,-4.1178,0.0,0.0,0.0,0.0,0.0,-3.8568,-3.7749,-3.7073,-3.6689,-3.631,-3.5565,-3.5073,-3.4687,-3.4066,-3.3827,-3.3547,-3.2484,-3.1786,-3.1174,-3.0657,-2.9752,-2.9068,-2.9347,-2.9039,-2.8716,-2.8716,-2.8651,-2.841,-2.7687,-2.7234,0.0,-2.5796,-2.577,-2.5656,-2.5158,-2.5045,-2.4845,-2.4598,-2.4374,-2.4086,-2.3646,-2.3595,-2.3484,-2.3263,-2.2742,0.0,0.0,0.0,-2.1897,-2.2064,-2.2562,0.0,0.0,0.0,-2.4332,-2.4824,0.0,0.0,0.0,-2.6963,-2.7827,0.0,0.0,0.0,0.0,0.0,0.0,0.0,0.0,0.0,0.0,0.0,0.0,0.0,0.0,0.0,0.0,-3.3649,-3.5592,-3.5038,-3.5672,-3.6445,-3.7118,-3.7467,-3.7815,-3.8205,-3.8327,-3.8739,-3.9585,-3.9691,-4.009,-4.1011,0.0,0.0,0.0,0.0,-4.227,-4.0816,-4.1355,-4.1649,-4.1599,-4.1368,-4.1527,-4.2087,-4.2094,-4.2397,-4.2834,-4.2168,-4.1634,-4.119,-4.1036,-4.0737,-4.0481,-4.0782,-4.0597,-4.0025,-3.8849,-3.8286,-3.7883,-3.6776,0.0,0.0,-3.5126,-3.4668,-3.4346,-3.402,-3.3896,-3.3671,-3.2523,-3.1864,-3.1274,-3.0211,-2.9371,-2.8766,-2.857,-2.8532,-2.856,-2.8451,-2.8346,-2.8143,-2.7359,-2.7131,-2.6679,-2.5329,-2.4714,-2.4326,-2.4125,-2.4054,-2.4008,-2.3922,-2.3819,-2.3767,-2.3607,0.0,0.0,-2.3386,-2.2745,-2.2372,-2.2372,-2.2297,-2.2286,-2.2495,-2.3273,-2.3734,-2.3734,-2.4585,-2.5223,-2.578,-2.6794,-2.7561,-2.7989,-2.785,-2.8547,0.0,0.0,0.0,0.0,0.0,0.0,0.0,0.0,0.0,0.0,0.0,0.0,0.0,0.0,0.0,-3.1211,-3.3113,-3.4632,-3.5234,-3.5943,-3.6662,-3.7134,-3.6594,-3.6805,-3.8358,-3.8226,-3.8463,-3.9437,-3.9648,-3.9537,-3.9156,-3.9981,-3.9981,-3.8887,-4.0447,-4.1084,-4.0654,-4.1189,-4.1255,-4.0833,0.0,0.0,-4.0756,-4.1074,-4.1346,-4.1535,-4.0859,-4.0526,-4.0498,-4.0192,-3.974,-3.9294,-3.9466,-3.9399,-3.9113,-3.7315,-3.639,-3.5953,-3.5759,-3.5289,-3.4777,-3.4727,-3.4616,-3.4346,-3.4142,-3.4059,0.0,-3.2203,-3.166,-3.119,-2.9683,-2.9068,-2.8657,-2.799,-2.8093,-2.815,-2.7319,-2.6961,-2.6618,-2.6136,-2.5172,-2.4473,-2.454,-2.482,-2.482,-2.4191,-2.3884,-2.378,-2.385,-2.3548,-2.3271,-2.3419,-2.3213,-2.3055,-2.3125,-2.2822,-2.253,-2.2384,-2.2611,-2.2865,-2.3184,-2.3765,-2.4294,-2.4657,-2.5253,-2.585,-2.6393,-2.7355,-2.7882,-2.8,-2.8827,-2.9484,0.0,0.0,0.0,0.0,0.0,0.0,0.0,0.0,0.0,0.0,0.0,-2.642,-2.7765,0.0,-3.1103,-3.1752,-3.3114,-3.4158,-3.4564,-3.5489,-3.6381,-3.7191,-3.6788,-3.6973,-3.839,-3.815,-3.8154,-3.8709,-3.9285,-3.9157,-3.8104,-3.9244,-3.9345,-3.8186,-3.958,-4.0167,-3.9815,-4.0201,-4.0384,-4.0263,-4.0346,-4.042,-4.0508,-4.0618,-4.0795,-4.1066,-4.0401,-4.0021,-3.9741,-3.9381,-3.9265,-3.9219,-3.8716,-3.8603,-3.8481,-3.7349,-3.6814,-3.6571,-3.6154,-3.5703,-3.5362,-3.4919,-3.4382,-3.3854,-3.3585,-3.3303,-3.2777,-3.1574,-3.0962,-3.0305,-2.9205,-2.8484,-2.7934,-2.7435,-2.7447,-2.7404,-2.6835,-2.6585,-2.6222,-2.5568,-2.4734,-2.4089,-2.3832,-2.3799,-2.3838,-2.3949,-2.376,-2.3628,-2.3671,-2.3441,-2.3296,-2.314,-2.308,-2.2946,-2.2934,-2.2629,-2.2445,-2.2543,-2.2854,-2.321,-2.3514,-2.4296,-2.4749,-2.4869,-2.5673,-2.6209,-2.6462,-2.7483,-2.7977,-2.8,-2.8758,-2.9289,0.0,0.0,0.0,0.0,0.0,0.0,0.0,-2.3438,-2.4422,-2.4671,-2.6183,-2.7782,-2.8583,-3.0317,-3.1717,-3.1815,-3.2751,-3.3566,-3.3847,-3.4622,-3.5574,-3.6751,-3.7004,-3.7439,-3.8188,-3.7883,-3.7738,-3.7824,-3.8631,-3.8537,-3.7334,-3.869,-3.8907,-3.7593,-3.8773,-3.9177,-3.867,-3.8923,-3.9172,-3.9412,-3.9051,-3.9226,-3.9914,-3.9806,-3.9952,-4.0328,-3.9722,-3.9113,-3.8466,-3.83,-3.8378,-3.8542,-3.8028,-3.7729,-3.7567,-3.7537,-3.7373,-3.7162,-3.64,-3.5917,-3.5576,-3.4728,-3.3871,-3.3173,-3.2858,-3.2448,-3.1854,-3.102,-3.0354,-2.9679,-2.8825,-2.8024,-2.7281,-2.69,-2.6748,-2.6607,-2.6311,-2.6196,-2.5875,-2.5084,-2.4413,-2.3819,-2.3197,-2.2535,-2.2509,-2.3546,-2.3564,-2.342,-2.3419,-2.3365,-2.3182,-2.2896,-2.2859,-2.2738,-2.2592,-2.232,-2.2291,-2.2585,-2.2862,-2.3136,-2.347,-2.4374,-2.4835,-2.476,-2.5708,-2.6209,-2.6324,-2.7242,-2.769,-2.7702,-2.8184,-2.866,-1.8177,-1.933,-2.0623,-2.1787,-2.2534,-2.3223,0.0,-2.4264,-2.4585,-2.6266,-2.6771,-2.7423,-2.8999,-2.9581,-3.006,-3.0927,-3.1419,-3.2165,-3.3506,-3.3363,-3.36,-3.4918,-3.6285,-3.7284,-3.7714,-3.7216,-3.7014,-3.7353,-3.7469,-3.7269,-3.6547,-3.7446,-3.7465,-3.6402,-3.7317,-3.7685,-3.7502,-3.7402,-3.7435,-3.7569,-3.7435,-3.74,-3.7483,-3.7364,-3.7587,-3.8014,-3.7471,-3.675,-3.6055,-3.6447,-3.6095,-3.5369,-3.6596,-3.6461,-3.5615,-3.6352,-3.5948,-3.5024,-3.4775,-3.3991,-3.3045,-3.2873,-3.2672,-3.255,-3.2421,-3.2313,-3.2048,-3.1098,-3.0665,-3.015,-2.8629,-2.8071,-2.7543,-2.6299,-2.6209,-2.6102,-2.5181,-2.4667,-2.4287,-2.3923,-2.2762,-2.1996,-2.2552,-2.1891,-2.1652,-2.2888,-2.3007,-2.3026,-2.3356,-2.2774,-2.2434,-2.2859,-2.2235,-2.1922,-2.2223,-2.2059,-2.2056,-2.239,-2.2214,-2.2298,-2.2763,-2.334,-2.3802,-2.4284,-2.4797,-2.5325,-2.5796,-2.6358,-2.6634,-2.6645,-2.7151,-2.7897,-1.7628,-1.8632,-1.9673,-2.1067,-2.2068,-2.293,-2.346,-2.3932,-2.4568,-2.5483,-2.5904,-2.6597,-2.7897,-2.8562,-2.9168,-3.0086,-3.0608,-3.1275,-3.2363,-3.2422,-3.2848,-3.411,-3.4581,-3.5166,-3.6169,-3.5874,-3.5828,-3.6257,-3.6937,-3.677,-3.5492,-3.6334,-3.6449,-3.5588,-3.6415,-3.6831,-3.6783,-3.7119,-3.7336,-3.7435,-3.7303,-3.7153,-3.7085,-3.6933,-3.6943,-3.7012,-3.6567,-3.6373,-3.6318,-3.5982,-3.5713,-3.5576,-3.5661,-3.5316,-3.4894,-3.5844,-3.5854,-3.5362,-3.4592,-3.4025,-3.3475,-3.2884,-3.2329,-3.1869,-3.1694,-3.1309,-3.0902,-3.0192,-2.9603,-2.8941,-2.7958,-2.7281,-2.6594,-2.5632,-2.5401,-2.5279,-2.4794,-2.4416,-2.4121,-2.367,-2.2816,-2.2075,-2.1894,-2.1261,-2.1002,-2.1662,-2.1951,-2.2122,-2.2254,-2.2209,-2.2247,-2.2542,-2.2201,-2.1982,-2.2051,-2.1937,-2.1949,-2.1975,-2.2118,-2.2317,-2.2427,-2.3171,-2.3642,-2.3709,-2.4425,-2.4888,-2.5116,-2.5462,-2.5701,-2.5712,-2.5927,-2.6245,-1.7174,-1.8075,-1.8876,-2.0304,-2.1525,-2.2449,-2.2666,-2.3628,-2.4551,-2.4658,-2.5262,-2.6023,-2.6877,-2.7544,-2.8265,-2.924,-2.9777,-3.0369,-3.1344,-3.1442,-3.1849,-3.3156,-3.2749,-3.2856,-3.4317,-3.4513,-3.4742,-3.52,-3.6026,-3.586,-3.4525,-3.5328,-3.5538,-3.4868,-3.5646,-3.6125,-3.6125,-3.6614,-3.6882,-3.6833,-3.6752,-3.6588,-3.6423,-3.6486,-3.6266,-3.5828,-3.5743,-3.5732,-3.5816,-3.5276,-3.51,-3.5123,-3.4798,-3.4411,-3.4219,-3.5064,-3.5243,-3.4876,-3.402,-3.3487,-3.314,-3.2449,-3.178,-3.1203,-3.0907,-3.0483,-2.9988,-2.954,-2.8969,-2.8332,-2.7437,-2.6768,-2.6058,-2.5181,-2.4778,-2.4664,-2.4549,-2.4376,-2.416,-2.3771,-2.3155,-2.2492,-2.1878,-2.1199,-2.0819,-2.0949,-2.1206,-2.1381,-2.1437,-2.1768,-2.1922,-2.1885,-2.2042,-2.2037,-2.1904,-2.1827,-2.169,-2.1596,-2.2025,-2.2126,-2.187,-2.2905,-2.342,-2.3156,-2.4009,-2.4453,-2.4464,-2.4745,-2.4936,-2.4912,-2.5081,-2.5182,-1.6919,-1.8026,-1.9147,-1.9822,-2.1137,-2.2312,-2.2805,-2.3704,-2.447,-2.449,-2.5212,-2.5893,-2.6258,-2.6687,-2.7243,-2.8222,-2.8611,-2.9292,-3.0623,-3.0242,-3.0364,-3.1705,-3.1014,-3.0949,-3.2336,-3.3259,-3.3899,-3.4333,-3.4349,-3.4251,-3.3859,-3.4535,-3.4712,-3.4225,-3.4956,-3.5325,-3.5325,-3.5358,-3.5312,-3.5155,-3.5171,-3.5013,-3.479,-3.5249,-3.4982,-3.4198,-3.4651,-3.4218,-3.3238,-3.3866,-3.3505,-3.2684,-3.3952,-3.39,-3.3105,-3.3683,-3.3322,-3.2557,-3.2437,-3.1722,-3.0909,-3.07,-3.0626,-3.0551,-3.0262,-3.0125,-2.9988,-2.954,-2.9401,-2.9045,-2.7487,-2.6963,-2.6457,-2.5118,-2.4536,-2.4292,-2.4292,-2.4203,-2.4157,-2.4266,-2.3576,-2.2972,-2.2946,-2.2133,-2.1387,-2.1219,-2.1075,-2.1099,-2.1281,-2.1464,-2.1377,-2.0706,-2.1391,-2.1901,-2.1904,-2.1616,-2.1439,-2.1404,-2.1541,-2.1436,-2.0971,-2.2343,-2.2868,-2.2421,-2.3413,-2.3903,-2.3937,-2.4243,-2.445,-2.4408,-2.4915,-2.5136,-1.5638,-1.6426,-1.7225,-1.8661,-1.9562,-2.0351,-2.1153,-2.1895,-2.2453,-2.3034,-2.3491,-2.406,-2.5086,-2.5756,-2.6414,-2.6943,-2.8023,-2.9127,-2.9981,-3.0013,-3.0406,-3.1577,-3.1217,-3.1358,-3.2557,-3.2399,-3.2686,-3.3919,-3.3614,-3.36,-3.4088,-3.4463,-3.464,-3.4645,-3.4925,-3.5088,-3.5152,-3.5088,-3.4947,-3.4851,-3.4643,-3.4497,-3.4399,-3.4394,-3.4191,-3.3864,-3.3914,-3.3927,-3.3887,-3.3482,-3.3349,-3.3355,-3.309,-3.2684,-3.2361,-3.2269,-3.1974,-3.1619,-3.1974,-3.1808,-3.1392,-3.0773,-3.0232,-2.9838,-3.0043,-2.975,-2.9312,-2.9366,-2.9289,-2.8969,-2.7893,-2.7189,-2.6526,-2.5434,-2.4824,-2.4443,-2.4326,-2.4099,-2.4002,-2.4118,-2.347,-2.2872,-2.2738,-2.1835,-2.0828,-2.0118,-2.0214,-2.0477,-2.0774,-2.0514,-2.0391,-2.0778,-2.1054,-2.1303,-2.1526,-2.1451,-2.129,-2.1066,-2.1385,-2.1501,-2.1208,-2.2319,-2.2857,-2.2684,-2.3239,-2.3481,-2.3519,-2.3497,-2.3444,-2.3483,-2.3597,-2.3805,-1.4423,-1.5141,-1.5862,-1.7091,-1.8101,-1.904,-1.9982,-2.081,-2.159,-2.2318,-2.2799,-2.3359,-2.4357,-2.5241,-2.5958,-2.6419,-2.7815,-2.8985,-2.9477,-3.0047,-3.0646,-3.1349,-3.1362,-3.1631,-3.254,-3.1857,-3.2045,-3.3716,-3.3379,-3.3369,-3.3974,-3.4007,-3.4085,-3.4184,-3.4167,-3.433,-3.4688,-3.4595,-3.4634,-3.4691,-3.4448,-3.4349,-3.4349,-3.405,-3.3848,-3.3745,-3.3555,-3.3599,-3.3747,-3.2998,-3.2967,-3.3181,-3.2287,-3.191,-3.1796,-3.1452,-3.1161,-3.0999,-3.141,-3.1421,-3.118,-3.0638,-3.0113,-2.9688,-2.9907,-2.9614,-2.9191,-2.9303,-2.9162,-2.8779,-2.7693,-2.7215,-2.6649,-2.5561,-2.5024,-2.4701,-2.4465,-2.4184,-2.3904,-2.3846,-2.3306,-2.2858,-2.269,-2.1938,-2.1101,-2.0214,-2.0108,-2.0036,-1.9994,-1.9691,-1.9828,-2.0537,-2.0721,-2.0934,-2.129,-2.1458,-2.1383,-2.0864,-2.1464,-2.162,-2.128,-2.2242,-2.2706,-2.2759,-2.3134,-2.3272,-2.3309,-2.3075,-2.3001,-2.3001,-2.3001,-2.3075,-1.332,-1.4288,-1.5065,-1.5319,-1.6731,-1.827,-1.9085,-2.0416,-2.159,-2.2162,-2.303,-2.3666,-2.41,-2.4957,-2.5804,-2.6539,-2.7874,-2.8866,-2.9054,-3.0172,-3.0941,-3.0984,-3.1306,-3.1709,-3.2272,-3.1665,-3.1935,-3.3543,0.0,-3.3409,-3.3386,-3.3273,-3.3088,-3.2896,-3.289,-3.3206,-3.3922,-3.3922,-3.4134,-3.4544,-3.4284,-3.4252,-3.4333,-3.3986,-3.3799,-3.3799,-3.3435,-3.315,-3.2843,-3.2523,-3.2342,-3.2135,-3.1667,-3.1495,-3.1437,-3.1176,-3.0866,-3.0584,-3.0658,-3.0539,-3.0312,-3.0312,-3.019,-3.0007,-2.9822,-2.9685,-2.9435,-2.9149,-2.8972,-2.8457,-2.708,-2.6948,-2.684,-2.5554,-2.5082,-2.4922,-2.4715,-2.4274,-2.3787,-2.3462,-2.3242,-2.298,-2.2722,-2.2372,-2.1969,-2.144,-2.0676,-1.9804,-1.891,-1.9097,-1.9535,-2.0053,-2.044,-2.0848,-2.1209,-2.1644,-2.1615,-2.0858,-2.162,-2.1836,-2.1185,-2.2137,-2.259,-2.2632,-2.3037,-2.3312,-2.3312,-2.3108,-2.3001,-2.3001,-2.3001,-2.3001,-1.1985,-1.3037,-1.3851,-1.4607,-1.5715,-1.6862,-1.7774,-1.8552,-1.9392,-2.0783,-2.1595,-2.2377,-2.3436,-2.4567,-2.546,-2.5807,-2.7154,-2.8344,-2.8986,-2.9777,-3.0438,-3.0836,-3.1263,-3.1537,-3.1709,-3.1855,-3.2268,-3.2949,-3.2751,-3.2745,-3.2999,-3.3129,-3.2978,-3.255,-3.255,-3.2694,-3.2966,-3.2784,-3.2681,-3.2689,-3.2642,-3.253,-3.2482,-3.267,-3.2743,-3.2657,-3.2914,-3.2866,-3.2672,-3.2508,-3.2247,-3.2038,-3.1667,-3.1437,-3.1278,-3.0881,-3.0455,-3.0046,-2.9709,-2.9846,-3.0158,-3.0266,-2.9708,-2.9134,-2.9524,-2.9156,-2.8643,-2.8975,-2.8908,-2.857,-2.8189,-2.7309,-2.6404,-2.6007,-2.5189,-2.44,-2.4175,-2.3808,-2.3441,-2.3236,-2.2982,-2.2591,-2.1981,-2.1765,-2.1368,-2.0653,-1.9876,-1.9329,-1.9262,-1.8783,-1.8802,-1.9703,-2.0175,-2.0796,-2.164,-2.2227,-2.2321,-2.1991,-2.241,-2.2513,-2.2232,-2.2669,-2.2889,-2.2911,-2.3058,-2.3097,-2.3097,-2.3012,-2.3001,-2.3001,-2.3001,-2.3001,-1.0796,-1.2019,-1.3008,-1.383,-1.4757,-1.5883,-1.714,-1.7743,-1.8642,-2.0464,-2.1397,-2.2263,-2.3515,-2.4554,-2.5344,-2.5877,-2.704,-2.8079,-2.8743,-2.9497,-3.0134,-3.0671,-3.0602,-3.0717,-3.1076,-3.1317,-3.1692,-3.2083,-3.2373,-3.2633,-3.2868,-3.2676,-3.2317,-3.1756,-3.1536,-3.1626,-3.1937,-3.2036,-3.2059,-3.2012,-3.2012,-3.1948,-3.1901,-3.1949,-3.1926,-3.1842,0.0,-3.1973,-3.2044,-3.1787,-3.1693,-3.1739,-3.1336,-3.1102,-3.0925,-3.0628,-3.017,-2.9719,-2.9328,-2.9231,-2.9332,-2.9501,-2.9322,-2.903,-2.9317,-2.8927,-2.8469,-2.8771,-2.8661,-2.8312,-2.7889,-2.7093,-2.6361,-2.5895,-2.5017,-2.4292,-2.4051,-2.3619,-2.3153,-2.2751,-2.2481,-2.2101,-2.1594,-2.1473,-2.1185,-2.0427,-1.9912,-1.9529,-1.9391,-1.8793,-1.876,-1.9787,-2.0336,-2.0857,-2.1486,-2.236,-2.2615,-2.2088,-2.2462,-2.2665,-2.2467,-2.2531,-2.267,-2.3001,-2.2938,-2.2938,-2.3001,-2.3001,-2.3001,-2.3001,-2.3001,-2.3001,-0.971,-1.1129,-1.2365,-1.2945,-1.3962,-1.5287,-1.6821,-1.7502,-1.8504,-2.0624,-2.1574,-2.249,-2.3868,-2.4599,-2.5288,-2.6208,-2.7189,-2.7975,-2.8525,-2.9217,-2.9859,-3.0519,-2.9883,-2.9726,-3.0496,-3.0533,-3.0694,-3.1083,-3.2098,-3.2615,-3.2576,-3.1951,-3.1307,-3.0768,-3.0359,-3.0413,-3.0916,-3.1459,-3.172,-3.172,-3.172,-3.172,-3.1674,-3.1358,-3.1212,-3.1114,0.0,0.0,-3.1275,-3.0855,-3.0908,-3.1302,-3.0867,-3.0527,-3.0335,-3.0168,-2.985,-2.9355,-2.916,-2.8689,-2.8263,-2.8629,-2.8932,-2.9178,-2.9058,-2.883,-2.8495,-2.8556,-2.8231,-2.7721,-2.6883,-2.6518,-2.6159,-2.5349,-2.4719,-2.4285,-2.4075,-2.3464,-2.28,-2.2258,-2.1824,-2.1553,-2.1307,-2.1295,-2.1019,-2.0408,-2.0098,-1.9817,-1.9467,-1.8971,-1.9086,-2.0177,-2.0728,-2.1072,-2.1328,-2.2429,-2.2802,-2.1903,-2.2315,-2.2581,-2.2381,-2.2189,-2.2317,-2.2852,-2.2735,-2.2735,-2.2852,-2.2852,-2.2927,-2.2927,-2.2927,-2.2927,-0.8832,-1.0524,-1.1903,-1.2345,-1.3528,-1.4944,-1.6024,-1.6455,-1.7312,-1.9723,-2.0502,-2.1432,-2.3352,-2.4299,-2.5004,-2.5828,-2.6721,-2.7615,-2.843,-2.9027,-2.961,-3.0266,-2.9987,-2.9884,-3.0312,-3.0223,-3.0266,-3.067,-3.1103,-3.1388,-3.1446,-3.1086,-3.0612,-3.0069,-2.9895,-2.9879,-3.0097,-3.0226,-3.0275,-3.0275,-3.0275,-3.0158,-2.9948,-3.0212,-3.0177,-2.9946,-3.0151,0.0,-3.0855,-3.0618,-3.047,-3.0347,-3.0147,-2.9595,-2.8886,-2.9229,-2.8864,-2.8333,-2.846,-2.8479,-2.8385,-2.8629,-2.8393,-2.8061,-2.8534,-2.8427,-2.8222,-2.8171,-2.7628,-2.6931,-2.6737,-2.5638,-2.4602,-2.4447,-2.3863,-2.3276,-2.3167,-2.2727,-2.2247,-2.2011,-2.1469,-2.0906,-2.0661,-2.06,-2.0442,-2.0031,-1.9549,-1.9304,-1.9627,-1.9287,-1.9475,-2.0665,-2.1102,-2.1733,-2.2652,-2.3245,-2.3338,-2.3043,-2.2947,-2.283,-2.2628,-2.2467,-2.2285,-2.2252,-2.2229,-2.2229,-2.2252,-2.2252,-2.2327,-2.2478,-2.2478,-2.2628,-0.77,-0.953,-1.1268,-1.1861,-1.3138,-1.4464,-1.5396,-1.6175,-1.7165,-1.9136,-2.0104,-2.1054,-2.2661,-2.3416,-2.4139,-2.5025,-2.5933,-2.6895,-2.8008,-2.8611,-2.9261,-3.019,-2.9565,-2.9375,-3.0309,-2.984,-2.9739,-3.0556,-3.0579,-3.0621,-3.0799,-3.0443,-3.0138,-2.9918,-2.9798,-2.9798,-2.9918,-2.9918,-2.9918,-2.9918,-2.983,-2.9681,-2.9502,-2.9484,-2.9311,-2.9053,-2.9097,0.0,-2.9657,-2.9824,-2.9873,-2.9885,-3.0046,-2.9752,-2.9211,-2.9377,-2.9078,-2.8535,-2.8419,-2.8235,-2.8051,-2.8138,-2.814,-2.8116,-2.7849,-2.7801,-2.7736,-2.7287,-2.6857,-2.6399,-2.6321,-2.5253,-2.4144,-2.3952,-2.3326,-2.2702,-2.2555,-2.2235,-2.1862,-2.1663,-2.1339,-2.0915,-2.0614,-2.0563,-2.0425,-2.0045,-1.95,-1.9208,-1.9375,-1.8982,-1.9109,-2.0406,-2.1052,-2.1644,-2.2441,-2.2875,-2.3012,-2.2821,-2.2713,-2.2574,-2.2391,-2.2295,-2.2199,-2.2101,-2.198,-2.2046,-2.2231,-2.2155,-2.2145,-2.2209,-2.2273,-2.2208,-0.6864,-0.8815,-1.0679,-1.1538,-1.275,-1.3969,-1.4872,-1.5885,-1.7003,-1.8543,-1.9646,-2.07,-2.1964,-2.2661,-2.3282,-2.4239,-2.5187,-2.6401,-2.7925,-2.842,-2.9156,-3.0672,-2.958,-2.9241,-3.0488,-2.9682,-2.9419,-3.0208,-3.0131,-3.0163,-3.0394,-3.0028,-2.987,-2.9902,-2.987,-2.987,-2.9902,-2.9902,-2.9902,-2.9902,-2.9786,-2.9637,-2.9486,-2.909,-2.8764,-2.8527,-2.8268,0.0,0.0,-2.908,-2.9222,-2.9218,-2.9882,-2.9757,-2.9242,-2.9525,-2.933,-2.885,-2.8602,-2.8229,-2.7841,-2.7789,-2.8012,-2.8136,-2.7433,-2.734,-2.7284,-2.6614,-2.6218,-2.5921,-2.563,-2.4736,-2.3841,-2.3472,-2.2911,-2.2357,-2.2197,-2.1913,-2.1639,-2.1451,-2.1187,-2.0887,-2.0576,-2.0512,-2.0384,-1.9998,-1.9532,-1.9252,-1.936,-1.8785,-1.8881,-2.0129,-2.0744,-2.1285,-2.1865,-2.2359,-2.2478,-2.2252,-2.2176,-2.2101,-2.1959,-2.1883,-2.1894,-2.1807,-2.1665,-2.1721,-2.2059,-2.1907,-2.1897,-2.1941,-2.1904,-2.1849,-0.6908,-0.8625,-1.0246,-1.15,-1.2505,-1.3561,-1.459,-1.5227,-1.6104,-1.7859,-1.8773,-1.9882,-2.1618,-2.2491,-2.3124,-2.3947,-2.4974,-2.6369,-2.8507,-2.8733,-2.9718,-3.2438,-3.1176,-3.0391,-3.0958,-3.0114,-2.9446,-2.9265,-2.9582,-2.9863,-3.0027,-3.0006,-2.9973,-2.9973,-2.9973,-2.9973,-2.9973,-2.9973,-2.9973,-2.9973,-2.977,-2.9653,-2.9473,-2.9059,-2.8779,-2.8573,-2.8201,0.0,0.0,-2.8956,-2.8624,-2.7984,-2.9045,-2.8584,-2.7371,-2.8531,-2.8713,-2.8353,-2.885,-2.8707,-2.8241,-2.8096,-2.7759,-2.7363,-2.7668,-2.7523,-2.7185,-2.656,-2.5806,-2.5089,-2.4518,-2.3714,-2.2946,-2.2629,-2.2432,-2.2309,-2.1999,-2.1839,-2.1616,-2.1451,-2.0894,-2.0374,-2.0008,-1.9986,-1.9872,-1.9547,-1.9315,-1.9371,-1.9814,-1.9433,-1.9481,-2.0325,-2.0386,-2.0732,-2.1615,-2.1977,-2.1949,-2.1578,-2.1578,-2.1502,-2.1282,-2.1302,-2.1235,-2.0984,-2.1013,-2.0994,-2.1011,-2.1011,-2.1078,-2.1268,-2.1292,-2.1359,-0.6266,-0.8078,-0.9888,-1.1123,-1.2359,-1.3439,-1.4133,-1.5096,-1.6017,-1.6872,-1.8085,-1.9332,-2.0625,-2.1486,-2.2315,-2.3217,-2.4427,-2.5919,-2.7842,-2.8886,-3.009,-3.1767,-3.1111,-3.0754,-3.1473,-3.0149,-2.9375,-2.9531,-3.0027,-3.0145,-2.9675,-3.0028,-3.0231,-3.0231,-3.0146,-3.006,-3.0017,-2.9946,-2.9946,-2.9946,-2.9786,-2.9608,-2.9366,-2.9059,-2.8748,-2.8444,-2.8152,0.0,0.0,-2.8311,-2.8159,-2.766,-2.877,-2.8781,-2.8234,-2.905,-2.9066,-2.8781,-2.9016,-2.8776,-2.8244,-2.7971,-2.7708,-2.7328,-2.694,-2.6719,-2.649,-2.5668,-2.4935,-2.4331,-2.3992,-2.3281,-2.2567,-2.2347,-2.2135,-2.1898,-2.1663,-2.14,-2.1198,-2.1083,-2.0846,-2.0512,-2.025,-2.0176,-2.0211,-2.0303,-1.9901,-1.976,-2.0111,-1.9709,-1.9509,-1.9981,-2.0456,-2.0937,-2.1303,-2.1613,-2.1655,-2.1359,-2.1359,-2.1205,-2.1061,-2.1148,-2.1138,-2.0886,-2.0896,-2.0934,-2.1084,-2.1061,-2.1091,-2.1051,-2.1121,-2.1091,-0.5714,-0.7572,-0.9423,-1.0776,-1.2085,-1.3118,-1.3673,-1.4697,-1.572,-1.6035,-1.7406,-1.8755,-1.975,-2.0664,-2.1565,-2.2616,-2.4051,-2.5761,-2.7802,-2.9428,-3.0908,-3.2464,-3.2099,-3.1859,-3.2343,-3.0561,-2.956,-2.9984,-3.027,-3.0166,-2.957,-2.9795,-3.0037,-3.017,-3.0243,-3.0231,-3.006,-2.9989,-2.9902,-2.9886,-2.977,-2.9592,-2.935,-2.9059,-2.8748,-2.8444,-2.8103,0.0,0.0,-2.7927,-2.7871,-2.7619,-2.8712,-2.9021,-2.8941,-2.9378,-2.9338,-2.9071,-2.8972,-2.861,-2.8168,-2.7841,-2.7486,-2.7037,-2.6274,-2.6079,-2.5884,-2.4868,-2.4115,-2.358,-2.3368,-2.2874,-2.2372,-2.2161,-2.1961,-2.171,-2.1463,-2.121,-2.0978,-2.0937,-2.0809,-2.0616,-2.041,-2.0456,-2.0599,-2.0806,-2.0495,-2.0325,-2.0669,-2.0102,-1.9797,-1.9993,-2.0463,-2.0822,-2.103,-2.1247,-2.1359,-2.1128,-2.1051,-2.0974,-2.0819,-2.0974,-2.0964,-2.0789,-2.0789,-2.0834,-2.0833,-2.0991,-2.0886,-2.0621,-2.0896,-2.0868,-0.5531,-0.7112,-0.8869,-1.0539,-1.1549,-1.2318,-1.3112,-1.3984,-1.479,-1.5411,-1.6665,-1.8037,-1.911,-2.0172,-2.1262,-2.2421,-2.4026,-2.6134,-2.8897,-3.0499,-3.2503,-3.5478,-3.4927,-3.4111,-3.3706,-3.1417,-3.0146,-3.0485,-2.9992,0.0,-2.99,-2.9269,-2.9127,-2.957,-3.0203,-3.0401,-3.0189,-3.006,-2.9913,-2.9793,-2.971,-2.9608,-2.9473,-2.9059,-2.8779,0.0,0.0,0.0,0.0,-2.7927,-2.7871,-2.7619,-2.8712,-2.9007,-2.8958,-2.9302,-2.9247,-2.9079,-2.8688,-2.8392,-2.8013,-2.7603,-2.7026,-2.6311,-2.5876,-2.581,-2.5635,-2.4381,-2.3368,-2.2665,-2.2445,-2.242,-2.2297,-2.1987,-2.1925,-2.18,-2.1463,-2.1273,-2.1129,-2.0952,-2.0812,-2.0638,-2.041,-2.0588,-2.076,-2.059,-2.085,-2.1179,-2.1626,-2.0906,-2.042,-2.0512,-2.0145,-2.0183,-2.0788,-2.1019,-2.1138,-2.0906,-2.0731,-2.0644,-2.0566,-2.0644,-2.0644,-2.0566,-2.0566,-2.0389,-1.9944,-2.0389,-2.0379,-1.9954,-2.0399,-2.0566,-0.5227,-0.6877,-0.852,-1.0144,-1.1126,-1.1945,-1.2954,-1.3835,-1.4593,-1.5343,-1.6587,-1.7881,-1.91,-2.0172,-2.1441,-2.3071,-2.5148,-2.744,-3.0061,-3.1745,-3.3382,-3.5122,-3.3984,-3.2608,-3.1495,-3.074,-3.027,-3.0022,-3.0099,-2.9638,-2.8586,-2.9039,-2.9498,-2.9871,-2.9928,-3.0094,-3.0316,-3.0189,-3.006,-2.9886,-2.977,-2.9608,-2.9473,-2.9167,-2.8951,0.0,0.0,0.0,0.0,-2.7417,-2.7123,-2.6903,-2.7969,-2.822,-2.8113,-2.8477,-2.8732,-2.8812,-2.8109,-2.7929,-2.805,-2.7511,-2.6882,-2.6091,-2.519,-2.4773,-2.4367,-2.3418,-2.2776,-2.2321,-2.2247,-2.2061,-2.1874,-2.16,-2.1474,-2.1348,-2.1083,-2.0839,-2.0593,-2.041,-2.0216,-2.0085,-1.9878,-1.992,-2.0068,-2.0332,-2.0445,-2.0642,-2.0812,-2.0678,-2.037,-2.0145,-2.0285,-2.0343,-2.0182,-2.0406,-2.0635,-2.0886,-2.0731,-2.0566,-2.0566,-2.0566,-2.0566,-2.0566,-2.0291,-2.0203,-2.0399,-2.02,-2.023,-2.04,-2.0223,-2.0387,-0.4295,-0.6109,-0.7828,-0.9433,-1.0455,-1.1354,-1.2371,-1.3397,-1.4237,-1.4794,-1.6109,-1.7503,-1.8476,-1.9771,-2.1273,-2.3032,-2.5665,-2.8326,-3.0776,-3.3153,-3.4894,-3.5613,-3.4267,-3.2673,-3.1274,-3.0907,-3.0694,-3.0441,-3.0162,-2.9537,-2.851,-2.8595,-2.8939,-2.9431,-2.9353,-2.9549,-3.0055,-2.9821,-2.9652,-2.954,-2.9685,-2.9452,-2.8822,-2.9021,-2.881,0.0,0.0,0.0,0.0,-2.7144,-2.6963,-2.6931,-2.7726,-2.802,-2.8096,-2.8092,-2.8263,-2.8263,-2.72,-2.7019,-2.7136,-2.6661,-2.5884,-2.5065,-2.438,-2.3792,-2.3267,-2.2665,-2.2309,-2.2061,-2.1925,-2.1737,-2.1549,-2.1273,-2.1146,-2.1042,-2.0862,-2.0529,-2.027,-2.0216,-2.0009,-1.9868,-1.9736,-1.9831,-1.991,-2.0139,-2.0249,-2.0331,-2.041,-2.0165,-1.99,-1.9606,-1.9583,-1.9613,-1.9574,-2.0108,-2.0599,-2.0886,-2.0731,-2.0566,-2.0566,-2.0566,-2.0566,-2.0566,-2.0124,-2.0036,-2.0322,-1.9997,-2.0046,-2.0497,-2.0099,-2.0101,0.0,-0.5001,-0.6848,-0.8513,-0.9533,-1.0495,-1.1627,-1.2813,0.0,-1.3971,-1.5549,-1.7017,-1.7507,-1.9038,-2.0831,-2.2642,-2.5837,-2.8946,-3.1362,-3.4565,-3.6671,-3.6574,-3.5379,-3.4024,-3.2679,-3.1788,-3.1342,-3.1473,-3.0263,-2.9472,-2.9369,-2.8122,-2.7736,-2.8412,-2.8471,-2.8791,-2.9436,-2.905,-2.886,-2.8818,-2.9475,-2.9043,-2.7712,-2.8558,-2.8403,0.0,0.0,0.0,0.0,-2.6982,-2.7137,-2.7449,-2.7755,-2.8175,-2.8456,-2.7988,-2.7714,-2.7437,-2.6188,-2.5733,-2.5739,-2.5192,-2.4317,-2.3477,-2.344,-2.2946,-2.2359,-2.2185,-2.2061,-2.1788,-2.1463,-2.1388,-2.1273,-2.0955,-2.0903,-2.085,-2.0702,-2.0346,-2.0129,-2.0281,-2.0107,-1.9868,-1.9868,-2.0044,-2.0128,-1.9923,-2.0139,-2.0195,-2.0073,-1.9495,-1.9103,-1.8954,-1.8409,-1.8282,-1.8904,-2.0093,-2.0817,-2.0847,-2.0702,-2.0566,-2.0566,-2.0566,-2.0537,-2.0566,-2.0056,-1.985,-1.9873,-1.9647,-1.9771,-2.0246,-2.0024,-1.9885,-0.2208,0.0,-0.5945,-0.7596,-0.8682,-0.9743,0.0,-1.2572,-1.3497,-1.4907,-1.5936,-1.6939,-1.8451,-1.9351,-2.0961,-2.4378,-2.7731,-3.079,-3.3139,-3.5769,-3.6938,-3.5574,-3.517,-3.4215,-3.2042,-3.2098,-3.1956,-3.1272,-3.023,-2.9464,-2.9036,-2.8049,-2.7613,-2.7874,-2.7516,-2.7805,-2.8808,-2.8743,-2.851,-2.8232,-2.8388,-2.8127,-2.7557,-2.7726,-2.7446,0.0,0.0,0.0,-2.6728,-2.6379,-2.635,-2.6626,-2.6961,-2.6944,-2.6685,-2.6357,-2.6436,-2.6451,-2.5361,-2.5348,-2.5667,-2.4719,-2.3991,-2.3415,-2.2997,-2.2468,-2.1987,-2.1987,-2.1726,-2.1526,-2.1388,-2.121,-2.1019,-2.0903,-2.0711,-2.054,-2.0486,-2.0205,-1.9933,-1.9823,-1.9626,-1.9407,-1.9341,-1.9235,-1.9173,-1.9106,-1.8995,-1.892,-1.8793,-1.8624,-1.835,-1.8066,-1.828,-1.8465,-1.8521,-1.9238,-1.9836,-2.0372,-2.037,-2.045,-2.0566,-2.045,-2.0254,-2.0088,-1.9647,-1.933,-1.9222,-1.9149,-1.941,-1.9955,-1.9572,-1.9639,-0.1603,-0.3517,-0.5405,-0.6976,-0.8069,-0.9175,-1.1169,-1.2085,-1.2968,-1.4221,-1.53,-1.6264,-1.735,-1.9378,-2.1881,-2.4891,-2.8753,-3.2593,-3.6004,-3.7758,-3.8204,-3.6776,-3.6003,-3.4815,0.0,-3.2812,-3.2607,-3.1742,-3.0569,-2.9761,-2.9408,-2.8272,-2.763,-2.7659,-2.723,-2.747,-2.8454,-2.8199,-2.7956,-2.7789,-2.7896,-2.7501,-2.6694,-2.7128,-2.6904,0.0,0.0,0.0,-2.6057,-2.5941,-2.5908,-2.5944,-2.6469,-2.6479,-2.6058,-2.5778,-2.5735,-2.562,-2.4562,-2.4292,-2.4425,-2.4073,-2.3505,-2.2983,-2.2934,-2.2378,-2.1812,-2.1812,-2.16,-2.1388,-2.121,-2.1019,-2.0839,-2.0711,-2.0453,-2.0259,-2.0205,-1.9868,-1.9605,-1.9605,-1.9417,-1.9285,-1.9208,-1.9075,-1.8942,-1.8808,-1.8607,-1.8482,-1.8337,-1.8269,-1.8134,-1.7706,-1.7987,-1.8132,-1.8072,-1.8618,-1.9238,-1.9999,-2.0216,-2.0352,-2.0479,-2.0264,-1.9947,-1.9541,-1.9541,-1.9375,-1.9004,-1.9004,-1.9182,-1.9493,-1.9286,-1.9228,-0.1263,-0.3183,-0.4992,-0.6704,-0.7684,-0.8784,-1.0704,-1.1629,-1.2429,-1.3222,-1.4399,-1.5501,-1.6327,-1.9738,-2.3089,-2.532,-2.9878,-3.4675,-3.9177,-3.9832,-3.9524,-3.8712,-3.7143,0.0,-3.3847,-3.3529,-3.309,-3.2283,-3.0909,-3.0043,-2.9892,-2.8521,-2.7678,-2.7514,-2.712,-2.722,-2.7833,-2.7384,-2.7147,-2.7264,-2.7383,-2.6808,-2.5675,-2.6535,-2.6346,-2.5408,0.0,0.0,-2.5245,-2.5447,-2.543,-2.5417,-2.6022,-2.6128,-2.5881,-2.5614,-2.5289,-2.4885,-2.3893,-2.3236,-2.2983,-2.3381,-2.2972,-2.2505,-2.2892,-2.2408,-2.1698,-2.1635,-2.1486,-2.1325,-2.1031,-2.0903,-2.0775,-2.054,-2.0259,-2.0042,-1.9933,-1.9605,-1.9351,-1.9539,-1.9407,-1.9274,-1.9208,-1.9075,-1.8942,-1.8741,-1.8549,-1.8414,-1.8269,-1.8269,-1.8134,-1.7716,-1.7706,-1.7706,-1.7638,-1.8072,-1.872,-1.9691,-2.0014,-2.0165,-2.0213,-1.9942,-1.9544,-1.9046,-1.9454,-1.95,-1.8931,-1.8998,-1.8947,-1.8919,-1.8982,-1.8933,-0.167,-0.3101,-0.4477,-0.6649,-0.7762,-0.876,-1.068,-1.1594,-1.2466,-1.3979,-1.4412,-1.5557,-1.8856,-2.126,-2.4075,-2.7871,-3.3115,-3.7978,-4.1651,-4.0619,-3.937,-3.9049,-3.7541,-3.5773,-3.3882,-3.3618,-3.2984,-3.1593,0.0,-2.9863,-2.9361,-2.818,-2.742,-2.7112,-2.6432,-2.6027,-2.5862,-2.5863,-2.6,-2.6211,-2.57,-2.5415,-2.5371,-2.5518,-2.5178,0.0,0.0,-2.4443,-2.4534,-2.4279,-2.4572,-2.5197,-2.4914,-2.4898,-2.4959,-2.4625,-2.4373,-2.4007,-2.3359,-2.308,-2.286,-2.2702,-2.2481,-2.2371,-2.2145,-2.1934,-2.1635,-2.1371,-2.1221,-2.1221,-2.1158,-2.0914,-2.0733,-2.0669,-2.027,-1.9933,-1.9868,-1.9605,-1.9285,-1.9341,-1.9208,-1.9075,-1.8942,-1.8751,-1.8539,-1.8405,-1.8212,-1.8076,-1.8076,-1.8076,-1.794,-1.7598,-1.7647,-1.7569,-1.7304,-1.7772,-1.8325,-1.8877,-1.9268,-1.9534,-1.9696,-1.9542,-1.9373,-1.9241,-1.9031,-1.8851,-1.8765,-1.892,-1.8788,-1.8508,-1.9053,-1.9036,-0.2134,-0.3626,-0.5004,-0.6716,-0.7367,-0.8137,-1.0272,-1.0883,-1.1531,-1.3442,-1.3941,-1.5181,-1.9034,-2.2248,-2.6446,-3.2907,-3.6978,-3.995,-4.1884,-4.0997,-4.007,-3.986,0.0,-3.6057,-3.4692,-3.4074,-3.3137,0.0,0.0,0.0,-2.9124,-2.82,-2.735,-2.6644,-2.6271,-2.5954,-2.5616,-2.5282,-2.5308,-2.5679,-2.5141,-2.5017,-2.5278,-2.4894,-2.4524,-2.4177,0.0,-2.3919,-2.3687,-2.367,-2.3817,-2.4077,-2.4299,-2.4365,-2.4307,-2.4142,-2.3735,-2.3257,-2.305,-2.2824,-2.2592,-2.2383,-2.2185,-2.1987,-2.1726,-2.1549,-2.1371,-2.1042,-2.0967,-2.0967,-2.0786,-2.0669,-2.0475,-2.0335,-1.9998,-1.9736,-1.9605,-1.9341,-1.9142,-1.9075,-1.9008,-1.8875,-1.8674,-1.8482,-1.8337,-1.8337,-1.8144,-1.8008,-1.8008,-1.8008,-1.7872,-1.7539,-1.7529,-1.752,-1.7235,-1.748,-1.7995,-1.8844,-1.9226,-1.9413,-1.945,-1.945,-1.9341,-1.9116,-1.908,-1.8976,-1.8892,-1.8873,-1.8723,-1.8591,-1.897,-1.8976,-0.2747,-0.4042,-0.5175,-0.6592,-0.6976,-0.7621,-0.9575,-1.0049,-1.0783,-1.3072,-1.4152,-1.5887,-1.9808,-2.4229,-2.9701,-3.7004,-3.9631,-4.0904,-4.1361,-4.1103,-4.0643,-4.0071,-3.7875,-3.6052,-3.5111,-3.4046,-3.2823,0.0,0.0,0.0,-2.8859,-2.8123,-2.7233,-2.6184,-2.604,-2.572,-2.521,-2.4808,-2.4932,-2.5514,-2.4858,-2.4798,-2.5185,-2.443,-2.4053,-2.4036,-2.3882,-2.348,-2.2978,-2.3087,-2.3045,-2.3,-2.3689,-2.3926,-2.3894,-2.3768,-2.3354,-2.284,-2.2782,-2.258,-2.2308,-2.2073,-2.1812,-2.1561,-2.1348,-2.1221,-2.1031,-2.0658,-2.0646,-2.0635,-2.0464,-2.0335,-2.0205,-1.9933,-1.9736,-1.9473,-1.9274,-1.9142,-1.8942,-1.8741,-1.8741,-1.8674,-1.8482,-1.8337,-1.8202,-1.8202,-1.7998,-1.7872,-1.7872,-1.7872,-1.7745,-1.7461,-1.7461,-1.7323,-1.7176,-1.7274,-1.7657,-1.8527,-1.9195,-1.9432,-1.9164,-1.9423,-1.933,-1.9034,-1.917,-1.9124,-1.8887,-1.8816,-1.8769,-1.8577,-1.8933,-1.897,-0.3452,-0.3756,-0.4047,-0.5867,-0.6968,-0.778,-0.8697,-0.9607,-1.1016,-1.3899,-1.6128,-1.8864,-2.2998,-2.8503,-3.3727,-3.7809,-3.9701,-4.06,-4.06,-4.0878,-4.0445,-3.8729,-3.7012,-3.553,-3.4368,-3.2854,0.0,0.0,0.0,0.0,-2.8298,-2.7724,-2.6889,-2.5703,-2.5286,-2.4524,-2.3407,-2.4076,-2.4928,-2.5947,-2.4492,-2.424,-2.4989,-2.4084,-2.3696,-2.3782,-2.3494,-2.3024,-2.2526,-2.224,-2.2192,-2.2374,-2.2777,-2.328,-2.3826,-2.3305,-2.31,-2.3015,-2.258,-2.2371,-2.2123,-2.1588,-2.1463,-2.1336,-2.0914,-2.085,-2.0828,-2.0302,-2.0172,-2.0172,-2.0335,-2.014,-1.9933,-1.9933,-1.9605,-1.9285,-1.9142,-1.8942,-1.8741,-1.8549,-1.8549,-1.8482,-1.8337,-1.8144,-1.794,-1.7774,-1.7588,-1.7539,-1.7539,-1.7539,-1.7461,-1.7235,-1.7235,-1.7176,-1.6968,-1.7442,-1.7595,-1.7325,-1.8592,-1.9136,-1.877,-1.9109,-1.9213,-1.9036,-1.9186,-1.9003,-1.8425,-1.8976,-1.8852,-1.8183,-1.8916,-1.9063,-0.3014,-0.3549,-0.3941,-0.4821,-0.549,-0.6392,-0.8094,-0.9085,-1.0545,-1.3395,-1.6129,-1.998,-2.6511,-3.186,-3.5948,-3.8085,-3.9264,-4.014,-4.0769,-3.9999,-3.9108,-3.8441,-3.6226,-3.4598,-3.4196,-3.2729,0.0,0.0,0.0,0.0,-2.7911,-2.7587,-2.6978,-2.6055,-2.5499,-2.4993,-2.4453,-2.4223,-2.4381,-2.4913,-2.4015,-2.3581,-2.3547,-2.267,-2.2532,-2.2939,-2.2676,-2.2396,-2.2183,-2.1866,-2.1643,-2.1507,-2.1852,-2.2221,-2.2521,-2.2223,-2.218,-2.2206,-2.1777,-2.1761,-2.1832,-2.1434,-2.121,-2.1019,-2.0506,-2.0377,-2.0302,-1.9922,-1.9726,-1.9671,-1.9878,-1.9813,-1.9671,-1.955,-1.9341,-1.9142,-1.8942,-1.8741,-1.8549,-1.8212,-1.8212,-1.8144,-1.7872,-1.7735,-1.7676,-1.7598,-1.7529,-1.747,-1.747,-1.747,-1.7392,-1.7235,-1.732,-1.7337,-1.7071,-1.773,-1.801,-1.7604,-1.8401,-1.8743,-1.8339,-1.8855,-1.9073,-1.9002,-1.9231,-1.9158,-1.8777,-1.9158,-1.9076,-1.8638,-1.9085,-1.9219,-0.3161,-0.3545,-0.3796,-0.4536,-0.4613,-0.5094,-0.7151,-0.8534,-1.0471,-1.4377,-1.9083,-2.4365,-3.0571,-3.4279,-3.6714,-3.7872,-3.8893,-3.9637,-3.9859,-3.9026,-3.8091,-3.7298,-3.5286,-3.3822,-3.3426,0.0,0.0,0.0,0.0,0.0,0.0,-2.7513,-2.6953,-2.6057,-2.5635,-2.5127,-2.4557,-2.4108,-2.3796,-2.3566,-2.3293,-2.3012,-2.2744,-2.1853,-2.1789,-2.2327,-2.2024,-2.1787,-2.1546,-2.139,-2.1198,-2.0976,-2.1108,-2.1294,-2.1481,-2.1313,-2.1408,-2.1545,-2.1236,-2.1287,-2.1464,-2.1181,-2.0967,-2.0646,-2.0172,-1.9977,-1.9857,-1.9539,-1.9274,-1.9142,-1.9341,-1.9341,-1.9341,-1.9142,-1.9008,-1.8875,-1.8674,-1.8472,-1.8279,-1.793,-1.7872,-1.7745,-1.7539,-1.747,-1.7392,-1.7332,-1.7254,-1.7185,-1.7116,-1.7116,-1.7047,-1.6959,-1.7177,-1.7279,-1.7144,-1.7805,-1.8015,-1.7605,-1.817,-1.8356,-1.8193,-1.8707,-1.9002,-1.8922,-1.9073,-1.9073,-1.8922,-1.9152,-1.9231,-1.9073,-1.9222,-1.9301,-0.4029,-0.3671,-0.3353,-0.5119,-0.461,-0.4125,-0.6069,-0.7939,-1.1154,-1.7451,-2.5785,-3.2678,-3.5217,-3.5616,-3.5968,-3.7077,-3.8619,-3.9081,-3.7416,-3.7979,-3.7638,-3.5082,-3.4126,-3.3221,-3.2013,0.0,0.0,0.0,0.0,0.0,0.0,-2.7526,-2.6787,-2.5452,-2.5409,-2.4673,-2.3137,-2.3624,-2.3254,-2.1998,-2.2276,-2.2617,-2.2961,-2.1822,-2.1606,-2.2159,-2.1642,-2.1077,-2.0628,-2.0718,-2.0848,-2.0881,-2.0601,-2.074,-2.1063,-2.0722,-2.084,-2.1128,-2.0936,-2.1032,-2.1158,-2.0967,-2.0646,-2.0335,-1.9998,-1.9736,-1.9539,-1.9208,-1.8942,-1.8808,-1.8808,-1.8808,-1.8808,-1.8808,-1.8684,-1.8482,-1.8337,-1.8144,-1.794,-1.7716,-1.7588,-1.747,-1.747,-1.7314,-1.7107,-1.6908,-1.6751,-1.6542,-1.6342,-1.6272,-1.6272,-1.6272,-1.6688,-1.6918,-1.6918,-1.7427,-1.7639,-1.7238,-1.7699,-1.8108,-1.8357,-1.8795,-1.8931,-1.87,-1.8922,-1.8931,-1.87,-1.9073,-1.9301,-1.9301,-1.9301,-1.9301,-0.3317,-0.3154,-0.2912,-0.3381,-0.3011,-0.4138,-1.001,-1.2622,-1.605,-2.4236,-2.9144,-3.2258,-3.3366,-3.4852,-3.5818,-3.5626,-3.6461,-3.6973,-3.6545,-3.6285,-3.5615,-3.4266,-3.3268,-3.231,0.0,0.0,0.0,0.0,0.0,0.0,0.0,-2.7075,-2.6597,-2.6254,-2.5288,-2.4512,-2.402,-2.3484,-2.2892,-2.2276,-2.2013,-2.1714,-2.1311,-2.0674,-2.0715,-2.1278,-2.0764,-2.074,-2.0987,-2.0434,-2.0079,-1.9828,-1.9648,-1.9724,-1.9849,-1.923,-1.9343,-1.979,-1.9693,-1.9901,-2.0187,-2.0482,-2.0388,-2.0118,-1.9605,-1.9341,-1.9208,-1.8942,-1.8875,-1.8808,-1.8998,-1.8808,-1.8617,-1.8741,-1.8539,-1.8347,-1.8337,-1.8056,-1.7716,-1.7598,-1.7382,-1.7245,-1.7116,-1.7047,-1.6968,-1.6908,-1.6751,-1.6542,-1.6342,-1.6272,-1.6272,-1.6132,-1.6872,-1.7261,-1.7103,-1.7821,-1.8144,-1.8022,-1.8231,-1.8108,-1.7796,-1.8312,-1.8523,-1.8523,-1.8692,-1.8692,-1.8523,-1.8763,-1.8843,-1.8674,-1.8843,-1.8922,-0.3675,-0.3188,-0.2516,-0.2218,-0.2535,-0.5178,-1.419,-1.8537,-2.2167,-2.7629,-3.1149,-3.3386,-3.3743,-3.4897,-3.5754,-3.5607,-3.5881,-3.6054,-3.5855,-3.5119,-3.4238,-3.3341,-3.2182,-3.1156,0.0,0.0,0.0,0.0,0.0,0.0,0.0,-2.6906,-2.643,-2.6214,-2.5075,-2.4279,-2.3897,-2.3247,-2.2738,-2.2366,-2.1932,-2.1339,-2.0581,-2.0204,-2.0184,-2.0421,-1.9958,-1.9932,-2.0237,-1.9439,-1.9018,-1.8824,-1.8718,-1.8703,-1.874,-1.8294,-1.8408,-1.877,-1.9052,-1.9321,-1.9684,-2.0105,-2.0118,-1.9791,-1.9341,-1.9008,-1.8741,-1.8539,-1.8405,-1.8395,-1.8607,-1.8472,-1.8347,-1.8617,-1.8405,-1.8134,-1.8056,-1.7862,-1.7588,-1.7392,-1.7245,-1.7038,-1.6908,-1.683,-1.676,-1.6691,-1.6482,-1.6272,-1.614,-1.607,-1.6131,-1.6199,-1.6846,-1.7273,-1.7345,-1.7926,-1.8193,-1.8112,-1.8112,-1.786,-1.7414,-1.8073,-1.8442,-1.8442,-1.8523,-1.8523,-1.8442,-1.8612,-1.8612,-1.8523,-1.8612,-1.8772,-0.4718,-0.363,-0.2186,-0.1633,-0.3563,-0.8143,-1.7864,-2.4577,-2.8698,-2.8686,-3.207,-3.5032,-3.505,-3.505,-3.5317,-3.6022,-3.5984,-3.5662,-3.5066,-3.4205,-3.3293,-3.2346,-3.0965,-2.9915,0.0,0.0,0.0,0.0,0.0,0.0,0.0,-2.6847,-2.6223,-2.5543,-2.4721,-2.3929,-2.3119,-2.302,-2.2738,0.0,-2.1886,-2.1323,-2.055,-2.0224,-1.996,-1.9729,-1.9343,-1.9094,-1.8877,-1.8143,-1.7893,-1.7953,-1.7804,-1.7795,-1.7834,-1.7822,-1.789,-1.809,-1.8703,-1.9127,-1.9432,-1.9889,-1.9857,-1.9473,-1.9131,-1.8664,-1.8202,-1.7998,-1.7852,-1.7774,-1.794,-1.8008,-1.8076,-1.8347,-1.8212,-1.794,-1.7716,-1.7588,-1.7461,-1.7245,-1.7038,-1.6908,-1.6908,-1.6751,-1.6542,-1.6342,-1.6,-1.5805,-1.5805,-1.5805,-1.5854,-1.6178,-1.6587,-1.697,-1.7346,-1.7749,-1.7819,-1.7649,-1.7649,-1.7506,-1.7187,-1.7914,-1.8336,-1.831,-1.8336,-1.8362,-1.8362,-1.8531,-1.862,-1.862,-1.862,-1.862,-0.5094,-0.4334,-0.3303,-0.2311,-1.0406,-1.8491,-1.8309,-2.5325,-3.1794,-3.169,-3.187,-3.1919,-3.1645,-3.1829,-3.2151,-3.2463,-3.2525,-3.2502,-3.2477,-3.2386,-3.196,-3.1025,-3.0436,0.0,0.0,0.0,0.0,0.0,0.0,0.0,-2.6836,-2.6223,-2.5559,-2.4835,-2.4088,-2.3496,-2.3109,-2.2825,-2.248,0.0,-2.1385,-2.0845,-2.0348,-1.998,-1.9637,-1.9348,-1.9512,-1.9384,-1.9103,-1.8509,-1.8042,-1.7661,-1.7429,-1.7247,-1.7181,-1.7056,-1.7391,-1.7878,-1.8272,-1.8746,-1.9295,-1.9576,-1.9473,-1.9142,-1.8607,-1.8192,-1.7842,-1.7784,-1.7706,-1.7774,-1.794,-1.8008,-1.8008,-1.792,-1.793,-1.794,-1.7716,-1.7588,-1.7461,-1.7245,-1.7038,-1.6839,-1.6682,-1.6603,-1.6473,-1.6202,-1.607,-1.6,-1.5805,-1.5655,-1.5601,-1.5677,-1.6146,-1.638,-1.6404,-1.6995,-1.7367,-1.7288,-1.7288,-1.7254,-1.7178,-1.7595,-1.7806,-1.7673,-1.7966,-1.8121,-1.8121,-1.8121,-1.8121,-1.8121,-1.8121,-1.8282,-0.614,-0.5266,-0.4974,-0.6398,-1.3314,-2.0059,-2.1006,-2.6478,-3.1327,-3.1218,-3.1372,-3.1458,-3.1177,-3.129,-3.1477,-3.1621,-3.1602,-3.1631,-3.1718,-3.1426,-3.0946,-3.0294,-2.9698,0.0,0.0,0.0,0.0,0.0,0.0,-2.6914,-2.6999,-2.5627,-2.4909,-2.507,-2.3739,-2.3042,-2.3035,-2.2598,-2.2169,-2.1761,-2.0959,-2.0066,-1.9082,-1.9037,-1.8908,-1.8829,-1.8988,-1.8849,-1.8514,-1.8165,-1.78,-1.7363,-1.6841,-1.6633,-1.6666,-1.6601,-1.6821,-1.7333,-1.7835,-1.8561,-1.9232,-1.9183,-1.9075,-1.8865,-1.8192,-1.7716,-1.7304,-1.7226,-1.7157,-1.7157,-1.7166,-1.7314,-1.7451,-1.7226,-1.7501,-1.7784,-1.751,-1.7382,-1.7323,-1.7107,-1.6899,-1.6751,-1.6585,-1.6464,-1.6272,-1.6,-1.5938,-1.5938,-1.5797,-1.5647,-1.5572,-1.5757,-1.5971,-1.6121,-1.6171,-1.6521,-1.6821,-1.6847,-1.7013,-1.7013,-1.6855,-1.7267,-1.7434,-1.7475,-1.7663,-1.786,-1.804,-1.804,-1.804,-1.804,-1.804,-1.8031,-0.7442,-0.685,-0.7244,-1.1117,-1.5043,-1.9193,-2.4204,-2.7861,-3.0026,-2.9667,-3.0627,-3.1464,-3.1265,-3.1261,-3.1306,-3.1421,-3.1336,-3.1277,-3.1384,-3.0717,-3.0107,-2.9744,-2.8993,0.0,0.0,0.0,0.0,0.0,0.0,-2.639,-2.6784,-2.4919,-2.4224,-2.5059,-2.3388,-2.2573,-2.2807,-2.2237,-2.1761,-2.1274,-2.0358,-1.9156,-1.7666,-1.7853,-1.8031,-1.817,-1.8209,-1.8045,-1.774,-1.7566,-1.7352,-1.7039,-1.6347,-1.6158,-1.6232,-1.6267,-1.6398,-1.6754,-1.7469,-1.8249,-1.8956,-1.8629,-1.8552,-1.8362,-1.7668,-1.7133,-1.6748,-1.6594,-1.6533,-1.6542,-1.6342,-1.656,-1.676,-1.6542,-1.701,-1.7354,-1.7157,-1.7097,-1.7028,-1.683,-1.6621,-1.6464,-1.6437,-1.6184,-1.6,-1.5797,-1.5805,-1.5805,-1.5805,-1.5576,-1.5551,-1.5942,-1.5806,-1.5881,-1.6162,-1.6187,-1.63,-1.6507,-1.6632,-1.6702,-1.6531,-1.6855,-1.717,-1.7388,-1.7466,-1.7655,-1.804,-1.804,-1.804,-1.804,-1.804,-1.804,-0.9094,-0.9392,-1.0686,-1.3157,-1.8034,-2.2931,-2.5847,-2.9065,-3.1028,-2.9495,-2.9444,-2.9521,-2.9028,-2.9046,-2.9222,-2.9585,-2.9481,-2.9459,-2.977,-2.9715,-2.9458,-2.9009,-2.8637,0.0,0.0,0.0,0.0,0.0,-2.6208,-2.5455,-2.4493,-2.3953,-2.3412,-2.2936,-2.2525,-2.2203,-2.196,-2.1582,-2.1086,-2.0434,-1.9112,-1.8011,-1.7118,-1.6938,-1.7047,-1.7306,-1.7738,-1.7741,-1.7466,-1.7313,-1.6972,-1.6558,-1.6353,-1.6125,-1.5946,-1.6095,-1.6424,-1.6837,-1.704,-1.7567,-1.7995,-1.7665,-1.7497,-1.7243,-1.6654,-1.6318,-1.6179,-1.6314,-1.6342,-1.6342,-1.6281,-1.6342,-1.6342,-1.6202,-1.6237,-1.6349,-1.6603,-1.6673,-1.6612,-1.6272,-1.607,-1.5859,-1.5709,-1.5718,-1.5797,-1.5576,-1.5655,-1.5805,-1.5805,-1.5497,-1.5292,-1.5279,-1.5422,-1.5552,-1.5601,-1.5749,-1.5961,-1.649,-1.6239,-1.6207,-1.6523,-1.6531,-1.6689,-1.6909,-1.731,-1.7655,-1.804,-1.804,-1.804,-1.804,-1.804,-1.804,-0.9321,-1.1158,-1.4262,-1.7337,-2.2043,-2.6848,-3.0232,-3.1582,-3.1713,-3.0375,-2.9869,-2.9513,-2.9079,-2.8874,-2.8902,-2.9338,-2.9377,-2.9397,-2.9589,-2.9551,-2.9084,-2.7973,0.0,0.0,0.0,0.0,0.0,0.0,-2.5028,-2.4579,-2.4351,-2.3144,-2.2576,-2.2829,-2.2095,-2.1595,-2.1488,-2.1134,-2.0382,-1.9229,-1.8168,-1.7299,-1.6539,-1.6026,-1.6132,-1.6727,-1.7242,-1.7255,-1.6939,-1.7003,-1.6866,-1.6522,-1.6001,-1.5685,-1.5517,-1.5548,-1.584,-1.6167,-1.6304,-1.6809,-1.7366,-1.679,-1.6683,-1.6741,-1.6303,-1.612,-1.6051,-1.5877,-1.585,-1.578,-1.5568,-1.5568,-1.5638,-1.5497,-1.563,-1.5824,-1.5982,-1.6254,-1.6376,-1.6158,-1.6087,-1.5902,-1.5409,-1.5497,-1.5576,-1.5355,-1.5426,-1.5434,-1.5292,-1.507,-1.4848,-1.4848,-1.4848,-1.5024,-1.5306,-1.5202,-1.5476,-1.6316,-1.6113,-1.617,-1.6565,-1.6636,-1.6771,-1.6975,-1.7192,-1.7505,-1.787,-1.7951,-1.804,-1.804,-1.804,-1.804,-1.1156,-1.4015,-1.8362,-2.2045,-2.6135,-3.0219,-3.3828,-3.3715,-3.2521,-3.1295,-3.0492,-2.9851,-2.9373,-2.9082,-2.8997,-2.9322,-2.9438,-2.9476,-2.938,-2.9176,-2.8436,-2.6914,0.0,0.0,0.0,0.0,0.0,0.0,-2.3996,-2.3739,-2.3986,-2.2377,-2.1864,-2.2695,-2.1599,-2.0959,-2.0959,-2.0413,-1.9471,-1.8104,-1.7368,-1.6621,-1.5893,-1.5083,-1.5104,-1.5684,-1.6411,-1.649,-1.6181,-1.6637,-1.6623,-1.6312,-1.5624,-1.5325,-1.5213,-1.5213,-1.5298,-1.541,-1.5587,-1.6013,-1.6345,-1.5832,-1.5919,-1.6186,-1.5806,-1.5813,-1.58,-1.5542,-1.5426,-1.5355,-1.5078,-1.507,-1.507,-1.4935,-1.5141,-1.5355,-1.5505,-1.5833,-1.6026,-1.593,-1.5955,-1.5865,-1.5196,-1.5338,-1.5426,-1.5141,-1.5204,-1.5213,-1.4935,-1.4721,-1.4569,-1.4569,-1.4425,-1.4605,-1.5202,-1.4909,-1.5229,-1.6277,-1.6172,-1.6252,-1.6706,-1.6718,-1.6862,-1.6968,-1.7128,-1.7359,-1.7619,-1.7789,-1.7878,-1.7951,-1.7951,-1.7951,-1.6296,-1.9333,-2.3155,-2.684,-2.9886,-3.2591,-3.4849,-3.4693,-3.3603,-3.182,-3.0768,-2.9959,-2.9144,-2.9104,-2.9144,-2.9024,-2.9138,-2.9055,-2.8537,-2.803,-2.721,-2.5933,0.0,0.0,0.0,0.0,0.0,0.0,-2.3499,-2.2904,-2.2344,-2.1556,-2.131,-2.1669,-2.0812,-2.033,-2.0243,-1.9155,-1.8198,-1.7353,-1.6532,-1.5783,-1.5037,-1.4155,-1.3729,-1.3717,-1.5101,-1.5463,-1.5212,-1.6017,-1.6104,-1.573,-1.5507,-1.5332,-1.5177,-1.5177,-1.4942,-1.4653,-1.5007,-1.4978,-1.4729,-1.4675,-1.4942,-1.5216,-1.5002,-1.5074,-1.5249,-1.5466,-1.5355,-1.5204,-1.5204,-1.507,-1.4935,-1.4872,-1.4919,-1.5054,-1.5426,-1.5505,-1.5497,-1.5275,-1.5262,-1.5152,-1.4944,-1.5221,-1.5363,-1.4935,-1.5221,-1.5363,-1.4935,-1.4721,-1.4569,-1.4425,-1.4425,-1.4707,-1.5311,-1.5281,-1.5602,-1.6643,-1.6373,-1.6341,-1.6714,-1.6714,-1.6714,-1.673,-1.696,-1.7204,-1.7392,-1.74,-1.7546,-1.77,-1.77,-1.7781,-1.7785,-2.1186,-2.5242,-2.7656,-3.0731,-3.3705,-3.583,-3.4649,-3.2951,-3.2387,-3.1018,-2.9717,-2.9005,-2.886,-2.8864,-2.904,-2.8913,-2.8724,-2.8495,-2.7509,-2.6304,-2.4899,0.0,0.0,0.0,0.0,0.0,0.0,0.0,-2.2245,-2.1794,-2.137,-2.1087,-2.0893,-2.0311,-1.9636,-1.8933,-1.7744,-1.6824,-1.6194,-1.5336,-1.4464,-1.3625,-1.3257,-1.3065,-1.3049,-1.3856,-1.4335,-1.467,-1.5664,-1.571,-1.5205,-1.501,-1.4893,-1.4715,-1.4606,-1.4428,-1.4148,-1.41,-1.4083,-1.4092,-1.3961,-1.4342,-1.4872,-1.4724,-1.5027,-1.5329,-1.5188,-1.5078,-1.4999,-1.4856,-1.4784,-1.4713,-1.4864,-1.5007,-1.515,-1.5275,-1.5505,-1.5647,-1.5604,-1.5709,-1.5593,-1.4991,-1.4999,-1.5007,-1.4721,-1.4784,-1.4713,-1.4577,-1.4505,-1.4425,-1.4209,-1.4353,-1.4548,-1.5023,-1.4891,-1.5181,-1.5999,-1.5737,-1.5705,-1.6039,-1.6055,-1.6055,-1.6055,-1.6134,-1.6516,-1.7221,-1.731,-1.7473,-1.7546,-1.7619,-1.77,-2.0798,-2.3861,-2.7212,-2.9246,-3.1609,-3.3902,-3.5714,-3.4289,-3.2581,-3.2592,-3.1279,-2.9795,-2.8701,-2.8492,-2.8611,-2.9003,-2.8427,-2.7952,-2.8026,-2.6723,-2.5285,-2.3985,0.0,0.0,0.0,0.0,0.0,0.0,0.0,0.0,-2.1493,-2.1071,-2.0548,-1.9859,-1.9447,-1.874,-1.7746,-1.6712,-1.5869,-1.5154,-1.4187,-1.3234,-1.2308,-1.2048,-1.2032,-1.2182,-1.2659,-1.3273,-1.4047,-1.5002,-1.509,-1.4655,-1.461,-1.4547,-1.4428,-1.4258,-1.4139,-1.3881,-1.3571,-1.3571,-1.364,-1.339,-1.3916,-1.4609,-1.4535,-1.4917,-1.5221,-1.5007,-1.4864,-1.4792,-1.4641,-1.4569,-1.4569,-1.4864,-1.4944,-1.5015,-1.5204,-1.5409,-1.5621,-1.5596,-1.5675,-1.5551,-1.4982,-1.4927,-1.4864,-1.4641,-1.4569,-1.4505,-1.4425,-1.4353,-1.4209,-1.3992,-1.4072,-1.4275,-1.477,-1.4657,-1.4914,-1.5642,-1.5467,-1.5451,-1.5666,-1.5674,-1.5674,-1.5674,-1.5674,-1.5982,-1.6613,-1.6781,-1.6861,-1.6957,-1.7144,-1.7354,0.0,0.0,0.0,-3.1938,-3.272,-3.317,-3.4432,-3.3632,-3.2593,-3.2397,-3.1501,-3.0189,-2.831,-2.8147,-2.8444,-2.8929,-2.7651,-2.6693,-2.7022,-2.5588,-2.4153,-2.3265,0.0,0.0,0.0,0.0,0.0,0.0,-2.1691,-2.1493,-2.1386,-2.0614,-1.9666,-1.8577,-1.8247,-1.7636,-1.6752,-1.613,-1.5336,-1.425,-1.3224,-1.2208,-1.1125,-1.0475,-1.0514,-1.1097,-1.155,-1.2321,-1.334,-1.4167,-1.4232,-1.391,-1.4313,-1.4359,-1.4249,-1.4258,-1.407,-1.3709,-1.339,-1.339,-1.345,-1.3103,-1.3663,-1.4387,-1.4387,-1.4627,-1.4856,-1.4856,-1.4713,-1.4569,-1.4569,-1.4497,-1.4505,-1.4792,-1.4721,-1.4713,-1.5133,-1.5171,-1.5155,-1.5196,-1.5029,-1.4879,-1.4935,-1.4864,-1.4792,-1.4641,-1.4721,-1.4721,-1.4425,-1.4209,-1.4065,-1.3863,-1.3645,-1.3836,-1.4523,-1.4553,-1.4909,-1.5626,-1.565,-1.565,-1.565,-1.5642,-1.5642,-1.5642,-1.5642,-1.5642,-1.5642,-1.5666,-1.5835,-1.6005,-1.6353,-1.6586,-2.5965,0.0,0.0,0.0,0.0,0.0,-3.235,-3.1785,-3.1261,-3.178,-3.0688,-2.9651,-2.9687,-2.8909,-2.8428,-2.9058,-2.7457,-2.6199,-2.6296,-2.5283,-2.448,-2.423,0.0,0.0,0.0,0.0,0.0,0.0,-2.2496,-2.1786,-2.1085,-1.9667,-1.8517,-1.776,-1.7328,-1.6608,-1.5588,-1.4912,-1.405,-1.301,-1.1912,-1.0954,-1.004,-1.0114,-1.029,-1.0552,-1.1058,-1.1723,-1.2532,-1.3489,-1.3666,-1.3295,-1.3291,-1.3345,-1.3485,-1.3243,-1.3178,-1.3224,-1.3103,-1.3103,-1.3164,-1.318,-1.3489,-1.3863,-1.3928,-1.4105,-1.4329,-1.4329,-1.4371,-1.4497,-1.4569,-1.4513,-1.4449,-1.4649,-1.4673,-1.4609,-1.4713,-1.4822,-1.4949,-1.5199,-1.5196,-1.5054,-1.4935,-1.4721,-1.4505,-1.4425,-1.4289,-1.4152,-1.4353,-1.4209,-1.4057,-1.3992,-1.3992,-1.3958,-1.399,-1.4129,-1.4313,-1.4553,-1.4707,-1.478,-1.478,-1.4854,-1.4927,-1.4927,-1.4927,-1.4927,-1.4927,-1.5435,-1.5758,-1.5758,-1.6017,-1.6211,-2.6639,-2.7934,-2.9083,-2.9621,0.0,0.0,-3.0917,-2.9984,-2.9384,-3.0604,-2.9572,-2.8614,-2.9144,-2.8577,-2.8107,-2.8332,-2.7176,-2.6386,-2.6782,-2.5651,-2.4751,-2.4698,0.0,0.0,0.0,-2.3585,-2.3304,-2.3624,-2.2865,-2.1737,-2.0273,-1.9023,-1.7879,-1.6983,-1.6355,-1.5768,-1.5209,-1.4395,-1.3453,-1.2333,-1.1364,-1.0358,-0.9405,-0.9582,-0.9863,-1.0294,-1.0763,-1.126,-1.1918,-1.2536,-1.2846,-1.2945,-1.291,-1.3051,-1.3261,-1.2966,-1.286,-1.2928,-1.2867,-1.2867,-1.2928,-1.2997,-1.3173,-1.3395,-1.3387,-1.3457,-1.3592,-1.3723,-1.401,-1.4281,-1.4346,-1.4297,-1.416,-1.4353,-1.4369,-1.4385,-1.4353,-1.4564,-1.4785,-1.5025,-1.5033,-1.4984,-1.4871,-1.46,-1.4425,-1.4425,-1.4145,-1.4,-1.4209,-1.4065,-1.3992,-1.3992,-1.392,-1.3855,-1.3797,-1.3928,-1.3992,-1.4057,-1.4201,-1.4281,-1.4281,-1.4425,-1.4497,-1.4497,-1.4569,-1.4569,-1.4569,-1.5046,-1.5324,-1.5475,-1.5702,-1.5923,-2.7294,-2.8623,-2.961,-2.9247,-2.9485,0.0,-2.9942,-2.8504,-2.7619,-2.9166,-2.8324,-2.7387,-2.7502,-2.7545,-2.7465,-2.7118,-2.6841,-2.6958,-2.7764,-2.6249,-2.5028,-2.4928,0.0,0.0,-2.3596,-2.3728,-2.3782,-2.3588,-2.2703,-2.1329,-1.9288,-1.8412,-1.7424,-1.6126,-1.5379,-1.5085,-1.5164,-1.4251,-1.3334,-1.2381,-1.142,-1.0427,-0.9363,-0.9224,-0.9588,-1.032,-1.054,-1.0947,-1.142,-1.1401,-1.1846,-1.2676,-1.2744,-1.3032,-1.3257,-1.2973,-1.2801,-1.2683,-1.256,-1.2621,-1.2683,-1.256,-1.2711,-1.29,-1.2765,-1.2752,-1.2826,-1.317,-1.3648,-1.4057,-1.4057,-1.3928,-1.379,-1.3992,-1.4057,-1.4057,-1.4049,-1.4336,-1.4605,-1.4684,-1.4741,-1.478,-1.4746,-1.4483,-1.4353,-1.4353,-1.4137,-1.4057,-1.4057,-1.3855,-1.3717,-1.3717,-1.3564,-1.3499,-1.3717,-1.3717,-1.379,-1.3985,-1.4057,-1.4057,-1.4057,-1.4281,-1.4353,-1.4353,-1.4497,-1.4569,-1.4569,-1.4569,-1.4808,-1.5133,-1.5292,-1.5444,-2.704,-2.856,-2.991,-2.8714,-2.966,0.0,-2.8869,-2.838,-2.8264,-2.812,-2.7423,-2.6881,-2.7097,-2.657,-2.6135,-2.6209,-2.6716,-2.7096,-2.712,-2.6209,-2.5586,-2.5673,0.0,0.0,-2.4275,-2.3207,-2.2538,-2.2702,-2.1305,-1.9954,-1.8939,-1.7514,-1.6182,-1.4903,-1.464,-1.4466,-1.4247,-1.406,-1.379,-1.347,-1.2579,-1.1832,-1.1155,-1.0552,-1.047,-1.0832,-1.0516,-1.0533,-1.0748,-1.0589,-1.0925,-1.1606,-1.1646,-1.185,-1.2181,-1.2036,-1.2075,-1.2243,-1.2189,-1.212,-1.1996,-1.2112,-1.2041,-1.1907,-1.2087,-1.2067,-1.2189,-1.284,-1.3307,-1.3702,-1.3985,-1.3848,-1.3645,-1.379,-1.3863,-1.3775,-1.3658,-1.4179,-1.4585,-1.424,-1.4317,-1.4413,-1.4237,-1.4038,-1.3935,-1.3935,-1.3717,-1.3637,-1.3637,-1.3419,-1.3346,-1.3346,-1.3119,-1.3119,-1.3273,-1.3346,-1.3419,-1.3564,-1.379,-1.3863,-1.3863,-1.4065,-1.4129,-1.4129,-1.4353,-1.4425,-1.4425,-1.4569,-1.4601,-1.4752,-1.4743,-1.4814,-2.737,-2.8384,-2.9357,-2.8855,-2.9502,0.0,0.0,-2.7826,-2.7621,-2.8278,-2.6843,-2.5935,-2.7438,-2.669,-2.5815,-2.5717,-2.6552,-2.705,-2.6622,-2.6494,-2.6407,-2.6302,0.0,0.0,-2.5454,-2.4851,-2.3976,-2.275,-2.1113,-1.9692,-1.8685,-1.7244,-1.6101,-1.5359,-1.4622,-1.4362,-1.4766,-1.4563,-1.4255,-1.3893,-1.3226,-1.2528,-1.1794,-1.1141,-1.0903,-1.093,-1.062,-1.0507,-1.0561,-1.0364,-1.0669,-1.1129,-1.1091,-1.1583,-1.2228,-1.1984,-1.1896,-1.1934,-1.2058,-1.1996,-1.1802,-1.1864,-1.174,-1.156,-1.1553,-1.1704,-1.1949,-1.2398,-1.2891,-1.3404,-1.363,-1.3404,-1.3185,-1.3193,-1.3346,-1.3419,-1.3244,-1.3718,-1.4216,-1.4052,-1.42,-1.4296,-1.4184,-1.3975,-1.3797,-1.3797,-1.3645,-1.3492,-1.3492,-1.341,-1.3364,-1.3214,-1.3107,-1.3061,-1.306,-1.3046,-1.3119,-1.3346,-1.3419,-1.3564,-1.3645,-1.3855,-1.3992,-1.4129,-1.4209,-1.4281,-1.4281,-1.4425,-1.4497,-1.4505,-1.4605,-1.4537,-2.7799,-2.8296,-2.8889,-2.9025,-2.9162,-2.9026,0.0,0.0,0.0,-2.7969,-2.6168,-2.4976,-2.7076,-2.627,0.0,-2.5084,0.0,0.0,0.0,-2.6503,0.0,-2.6563,0.0,0.0,0.0,-2.5754,-2.4729,-2.2439,-2.0824,-1.9435,-1.8172,-1.7127,-1.6291,-1.5747,-1.4737,-1.4625,-1.5546,-1.5142,-1.4766,-1.4433,-1.3801,-1.3066,-1.2275,-1.1574,-1.1128,-1.0936,-1.0723,-1.0501,-1.0257,-1.0151,-1.0401,-1.0926,-1.0903,-1.1557,-1.2427,-1.215,-1.1943,-1.1802,-1.1872,-1.1809,-1.1615,-1.1615,-1.1498,-1.1373,-1.1059,-1.1421,-1.1908,-1.1908,-1.248,-1.3171,-1.3119,-1.3032,-1.2879,-1.2673,-1.29,-1.3119,-1.2966,-1.3345,-1.38,-1.3953,-1.4136,-1.4355,-1.4245,-1.3992,-1.3792,-1.3725,-1.3564,-1.3419,-1.3419,-1.3465,-1.3393,-1.3155,-1.3173,-1.3154,-1.2921,-1.2893,-1.29,-1.3119,-1.3119,-1.32,-1.3419,-1.3645,-1.379,-1.3992,-1.3992,-1.4065,-1.4065,-1.4271,-1.4423,-1.4361,-1.463,-1.4538,-2.7853,-2.8534,-2.9292,-2.8293,-2.8764,-2.8973,-2.7187,0.0,-2.6281,-2.5301,0.0,-2.4452,-2.4045,0.0,0.0,-2.3687,0.0,0.0,-2.4501,-2.5544,-2.6218,-2.5925,-2.5454,0.0,0.0,-2.2247,-2.0965,-2.037,-1.9229,-1.7964,-1.671,-1.6742,-1.5988,-1.4202,-1.4577,-1.511,-1.5756,-1.5175,-1.5266,-1.5913,-1.4494,-1.3825,-1.3695,-1.2347,-1.1539,-1.1216,-1.0846,-1.019,-0.934,-0.9395,-0.9851,-1.0607,-1.0886,-1.1406,-1.2024,-1.1838,-1.1669,-1.1622,-1.1428,-1.1178,-1.0926,-1.0926,-1.0807,-1.0688,-1.0428,-1.1034,-1.1703,-1.1573,-1.2212,-1.2893,-1.29,-1.29,-1.2893,-1.29,-1.29,-1.2966,-1.2872,-1.3388,-1.3818,-1.3725,-1.4173,-1.4417,-1.4084,-1.4028,-1.3828,-1.3316,-1.3273,-1.3193,-1.2973,-1.3016,-1.301,-1.2928,-1.2873,-1.2852,-1.2928,-1.2746,-1.2746,-1.29,-1.29,-1.3046,-1.32,-1.3419,-1.3564,-1.3564,-1.3717,-1.3863,-1.3863,-1.4296,-1.4429,-1.4145,-1.4793,-1.4785,-2.7586,-2.8187,-2.8662,-2.7752,-2.8104,-2.8208,-2.6398,-2.6084,-2.6158,-2.6086,0.0,0.0,0.0,0.0,0.0,0.0,-2.367,0.0,0.0,0.0,-2.4531,0.0,0.0,0.0,0.0,0.0,0.0,0.0,-1.702,-1.6193,-1.5943,-1.5096,-1.4625,-1.4593,-1.4265,-1.462,-1.5668,-1.5501,-1.5603,-1.5881,-1.4641,-1.3993,-1.3826,-1.2209,-1.1233,-1.0838,-1.0285,-0.9725,-0.9197,-0.9227,-0.9635,-1.0301,-1.0662,-1.1229,-1.1897,-1.1776,-1.1559,-1.131,-1.1185,-1.1122,-1.0933,-1.087,-1.0618,-1.0434,-1.0555,-1.1034,-1.1642,-1.1778,-1.2141,-1.2526,-1.2526,-1.2385,-1.217,-1.2083,-1.2305,-1.2573,-1.2662,-1.3105,-1.3627,-1.398,-1.4265,-1.4342,-1.3967,-1.3944,-1.3913,-1.3365,-1.3234,-1.3177,-1.2921,-1.3091,-1.3085,-1.2781,-1.2866,-1.2852,-1.2553,-1.2689,-1.2791,-1.2934,-1.3084,-1.3082,-1.3053,-1.3193,-1.3346,-1.3346,-1.3492,-1.366,-1.3695,-1.4051,-1.414,-1.4116,-1.4653,-1.4721,-2.7223,0.0,-2.799,-2.6902,-2.7101,-2.7136,-2.5548,-2.5435,-2.5806,-2.6215,-2.5133,0.0,0.0,0.0,-2.3305,-2.2871,0.0,-2.3595,-2.272,-2.2747,0.0,0.0,0.0,0.0,0.0,0.0,0.0,-1.6688,-1.539,-1.4884,-1.5235,-1.4118,-1.3959,-1.5175,-1.4449,-1.4623,-1.5837,-1.5623,-1.5553,-1.5546,-1.4193,-1.3501,-1.3379,-1.1715,-1.0771,-1.0415,-0.9814,-0.9361,-0.9113,-0.9075,-0.9445,-0.998,-1.0437,-1.0938,-1.1409,-1.1522,-1.1421,-1.1174,-1.0995,-1.0989,-1.0996,-1.0681,-1.0428,-1.0371,-1.0491,-1.0909,-1.1329,-1.1614,-1.1938,-1.2204,-1.2211,-1.2016,-1.1726,-1.1639,-1.1929,-1.2291,-1.2428,-1.2889,-1.3478,-1.4083,-1.4221,-1.4178,-1.3911,-1.4006,-1.3945,-1.3223,-1.3223,-1.3167,-1.2861,-1.3016,-1.3085,-1.2781,-1.2941,-1.2879,-1.2587,-1.277,-1.2898,-1.2968,-1.312,-1.3064,-1.2833,-1.3046,-1.3119,-1.3119,-1.3346,-1.3454,-1.3454,-1.378,-1.4015,-1.4093,-1.458,-1.4702,0.0,0.0,0.0,-2.568,0.0,0.0,0.0,0.0,-2.493,0.0,-2.4612,-2.4726,-2.4018,-2.3212,-2.2858,-2.3473,-2.3041,0.0,0.0,-2.2656,-2.266,-2.3515,0.0,0.0,0.0,0.0,0.0,-1.5956,-1.4844,-1.4289,-1.4436,-1.4301,-1.463,-1.5464,-1.5304,-1.5687,-1.6558,-1.5415,-1.4968,-1.5184,-1.309,-1.2209,-1.2414,-1.0889,-1.0131,-1.0012,-0.9562,-0.9159,-0.8804,-0.8811,-0.9119,-0.9583,-1.0379,-1.0528,-1.0293,-1.09,-1.1264,-1.1376,-1.0845,-1.0684,-1.0744,-1.0174,-1.0174,-1.0238,-1.011,-1.038,-1.073,-1.0872,-1.144,-1.1944,-1.2004,-1.2003,-1.2009,-1.2003,-1.2003,-1.2083,-1.2238,-1.2779,-1.3358,-1.3752,-1.4008,-1.4082,-1.4062,-1.4221,-1.3877,-1.2824,-1.2866,-1.3024,-1.264,-1.2716,-1.2934,-1.3155,-1.3091,-1.3037,-1.3265,-1.3113,-1.2968,-1.2822,-1.2968,-1.2914,-1.2613,-1.282,-1.29,-1.29,-1.3119,-1.32,-1.3214,-1.3746,-1.3989,-1.4011,-1.4855,-1.4902,0.0,0.0,-2.7414,-2.5861,0.0,0.0,0.0,0.0,0.0,0.0,0.0,-2.3806,-2.3626,-2.3316,-2.2949,-2.2598,-2.2292,-2.1959,0.0,-2.1183,-2.0699,-2.0063,-2.0092,-1.9496,0.0,0.0,0.0,-1.3504,-1.2619,-1.2432,-1.2963,-1.1974,-1.2228,-1.4105,-1.368,-1.3898,-1.4735,-1.4675,-1.4424,-1.4007,-1.2725,-1.2061,-1.1963,-1.0576,-0.9821,-0.9562,-0.9159,-0.891,-0.8804,-0.8804,-0.8985,-0.9334,-0.9638,-0.9973,-1.0335,-1.0797,-1.0957,-1.0866,-1.065,-1.0409,-1.0177,-1.0053,-0.9989,-0.9989,-1.0308,-1.0502,-1.0691,-1.1123,-1.1423,-1.1586,-1.1607,-1.1484,-1.1409,-1.1409,-1.1706,-1.2061,-1.2188,-1.2689,-1.3148,-1.34,-1.354,-1.352,-1.3347,-1.3581,-1.352,-1.3107,-1.3306,-1.3362,-1.3008,-1.3119,-1.3272,-1.3226,-1.3264,-1.3196,-1.3014,-1.3056,-1.3131,-1.3053,-1.3131,-1.2903,-1.2399,-1.2599,-1.2673,-1.2673,-1.29,-1.2998,-1.3051,-1.3381,-1.362,-1.3903,-1.4266,-1.459,-2.6553,-2.6914,0.0,-2.5313,-2.5233,0.0,-2.3615,0.0,-2.3615,0.0,0.0,0.0,-2.3378,-2.3246,-2.2849,-2.1975,-2.1729,-2.1312,0.0,-1.9738,-1.9133,-1.7852,-1.8261,-1.8094,-1.6635,-1.5902,-1.4804,-1.3141,-1.225,-1.202,0.0,0.0,-1.1558,-1.3534,-1.3114,-1.3317,-1.4205,-1.4289,-1.4068,-1.3616,-1.2657,-1.2129,-1.1873,-1.0821,-1.0174,-0.988,-0.9413,-0.9106,-0.8962,-0.8962,-0.8958,-0.9037,-0.9479,-0.9848,-1.0123,-1.0233,-1.0134,-1.0005,-1.039,-1.0219,-0.9807,-0.9838,-0.9862,-0.9926,-1.0308,-1.0432,-1.0558,-1.1096,-1.1275,-1.1313,-1.136,-1.1335,-1.1335,-1.1186,-1.1632,-1.1981,-1.203,-1.2451,-1.2852,-1.3048,-1.3065,-1.3035,-1.2971,-1.3143,-1.3206,-1.3052,-1.3202,-1.3272,-1.3008,-1.3026,-1.3138,-1.3064,-1.314,-1.3178,-1.3112,-1.3319,-1.3434,-1.3227,-1.3213,-1.2939,-1.2325,-1.2452,-1.2526,-1.2526,-1.2673,-1.2843,-1.2887,-1.3037,-1.3292,-1.3495,-1.379,-1.4166]},{"header":{"parameterUnit":"m.s-1","parameterCategory":1,"la1":30.6,"la2":29.2853,"lo1":-89.7004,"lo2":-87.6739,"dy":0.0162,"dx":0.0183,"nx":112,"ny":82,"refTime":"2023-08-23T18:00:00:Z","depth":0,"parameterNumber":3,"parameterNumberName":"V-component_of_WINDS"},"data":[0.0,0.0,0.0,0.0,0.0,0.0,0.0,0.0,0.0,0.0,0.0,0.0,0.0,0.0,0.0,0.0,0.0,0.0,0.0,0.0,0.0,0.0,0.0,0.0,0.0,0.0,0.0,0.0,0.0,0.0,0.0,0.0,0.0,0.0,0.0,0.0,0.0,0.0,0.0,0.0,0.0,0.0,0.0,0.0,0.0,0.0,0.0,0.0,0.0,0.0,0.0,0.0,0.0,0.0,0.0,0.0,0.0,0.0,0.0,0.0,0.0,0.0,0.0,0.0,0.0,0.0,0.0,0.0,0.0,0.0,0.0,0.0,0.0,0.0,0.0,0.0,0.0,0.0,0.0,0.0,0.0,0.0,0.0,0.0,0.0,0.0,0.0,0.0,0.0,0.0,-2.3937,-2.3511,-2.407,-2.5113,-2.6583,-2.5831,-2.5094,-2.4606,0.0,0.0,0.0,0.0,0.0,0.0,0.0,0.0,0.0,0.0,0.0,0.0,0.0,0.0,0.0,0.0,0.0,0.0,0.0,0.0,0.0,0.0,0.0,0.0,0.0,0.0,0.0,0.0,0.0,0.0,0.0,0.0,0.0,0.0,0.0,0.0,0.0,0.0,0.0,0.0,0.0,0.0,0.0,0.0,0.0,0.0,0.0,0.0,0.0,0.0,0.0,0.0,0.0,0.0,0.0,0.0,0.0,0.0,0.0,0.0,0.0,0.0,0.0,0.0,0.0,0.0,0.0,0.0,0.0,0.0,0.0,0.0,0.0,0.0,0.0,0.0,0.0,0.0,0.0,0.0,0.0,0.0,0.0,0.0,0.0,0.0,0.0,0.0,0.0,0.0,0.0,0.0,0.0,0.0,0.0,0.0,0.0,0.0,0.0,0.0,0.0,0.0,0.0,0.0,-2.2686,-2.3652,-2.3948,-2.4311,-2.4834,-2.4941,-2.4792,-2.4368,0.0,0.0,0.0,0.0,0.0,0.0,0.0,0.0,0.0,0.0,0.0,0.0,0.0,0.0,0.0,0.0,0.0,0.0,0.0,0.0,0.0,0.0,0.0,0.0,0.0,0.0,0.0,0.0,0.0,0.0,0.0,0.0,0.0,0.0,0.0,0.0,0.0,0.0,0.0,0.0,0.0,0.0,0.0,0.0,0.0,0.0,0.0,0.0,0.0,0.0,0.0,0.0,0.0,0.0,0.0,0.0,0.0,0.0,0.0,0.0,0.0,0.0,0.0,0.0,0.0,0.0,0.0,0.0,0.0,0.0,0.0,0.0,0.0,0.0,0.0,0.0,0.0,0.0,0.0,0.0,0.0,0.0,0.0,0.0,0.0,0.0,0.0,0.0,0.0,0.0,0.0,0.0,0.0,0.0,0.0,0.0,0.0,0.0,0.0,0.0,0.0,0.0,0.0,-2.1854,-2.2547,-2.3332,-2.3653,-2.3867,-2.4109,-2.4467,-2.4351,-2.361,-2.3462,0.0,0.0,0.0,0.0,0.0,0.0,0.0,0.0,0.0,0.0,0.0,0.0,0.0,0.0,0.0,0.0,0.0,0.0,0.0,0.0,0.0,0.0,0.0,0.0,0.0,0.0,0.0,0.0,0.0,0.0,0.0,0.0,0.0,0.0,0.0,0.0,0.0,0.0,0.0,0.0,0.0,0.0,0.0,0.0,0.0,0.0,0.0,0.0,0.0,0.0,0.0,0.0,0.0,0.0,0.0,0.0,0.0,0.0,0.0,0.0,0.0,0.0,0.0,0.0,0.0,0.0,0.0,0.0,0.0,0.0,0.0,0.0,0.0,0.0,0.0,0.0,0.0,0.0,0.0,0.0,0.0,0.0,0.0,0.0,0.0,0.0,0.0,0.0,0.0,0.0,0.0,0.0,0.0,0.0,0.0,0.0,0.0,0.0,0.0,0.0,0.0,0.0,-2.2304,-2.2672,-2.298,-2.3246,-2.3508,-2.3739,-2.3998,-2.3732,-2.2723,-2.2687,0.0,0.0,0.0,0.0,0.0,0.0,0.0,0.0,0.0,0.0,0.0,0.0,0.0,0.0,0.0,0.0,0.0,0.0,0.0,0.0,0.0,0.0,0.0,0.0,0.0,0.0,0.0,0.0,0.0,0.0,0.0,0.0,0.0,0.0,0.0,0.0,0.0,0.0,0.0,0.0,0.0,0.0,0.0,0.0,0.0,0.0,0.0,0.0,0.0,0.0,0.0,0.0,0.0,0.0,0.0,0.0,0.0,0.0,0.0,0.0,0.0,0.0,0.0,0.0,0.0,0.0,0.0,0.0,0.0,0.0,0.0,0.0,0.0,0.0,0.0,0.0,0.0,0.0,0.0,0.0,0.0,0.0,0.0,0.0,0.0,0.0,0.0,0.0,0.0,0.0,0.0,0.0,0.0,0.0,0.0,0.0,0.0,0.0,0.0,0.0,0.0,0.0,-2.1931,-2.2696,-2.274,-2.2844,-2.3113,-2.3551,-2.3322,-2.2766,-2.2015,-2.2146,0.0,0.0,0.0,0.0,0.0,0.0,0.0,0.0,0.0,0.0,0.0,0.0,0.0,0.0,0.0,0.0,0.0,0.0,0.0,0.0,0.0,0.0,0.0,0.0,0.0,0.0,0.0,0.0,0.0,0.0,0.0,0.0,0.0,0.0,0.0,0.0,0.0,0.0,0.0,0.0,0.0,0.0,0.0,0.0,0.0,0.0,0.0,0.0,0.0,0.0,0.0,0.0,0.0,0.0,0.0,0.0,0.0,0.0,0.0,0.0,0.0,0.0,0.0,0.0,0.0,0.0,0.0,0.0,0.0,0.0,0.0,0.0,0.0,0.0,0.0,0.0,0.0,0.0,0.0,0.0,0.0,0.0,0.0,0.0,0.0,0.0,0.0,0.0,0.0,0.0,0.0,0.0,0.0,0.0,0.0,0.0,0.0,0.0,0.0,0.0,0.0,0.0,-2.1441,-2.2112,-2.236,-2.2709,-2.3154,-2.385,-2.3713,-2.3325,-2.2794,0.0,0.0,0.0,0.0,0.0,0.0,0.0,0.0,0.0,0.0,0.0,0.0,0.0,0.0,0.0,0.0,0.0,0.0,0.0,0.0,0.0,0.0,0.0,0.0,0.0,0.0,0.0,0.0,0.0,0.0,0.0,0.0,0.0,0.0,0.0,0.0,0.0,0.0,0.0,0.0,0.0,0.0,0.0,0.0,0.0,0.0,0.0,0.0,0.0,0.0,0.0,0.0,0.0,0.0,0.0,0.0,0.0,0.0,0.0,0.0,0.0,0.0,0.0,0.0,0.0,0.0,0.0,0.0,0.0,0.0,0.0,0.0,0.0,0.0,0.0,0.0,0.0,0.0,0.0,0.0,0.0,0.0,0.0,0.0,0.0,0.0,0.0,0.0,0.0,0.0,0.0,0.0,0.0,0.0,0.0,0.0,0.0,0.0,0.0,0.0,0.0,0.0,-2.0542,-2.1705,-2.2484,-2.2766,-2.3093,-2.3565,-2.4083,-2.3867,-2.367,-2.3517,0.0,0.0,0.0,0.0,0.0,0.0,0.0,0.0,0.0,0.0,0.0,0.0,0.0,0.0,0.0,0.0,0.0,0.0,0.0,0.0,0.0,0.0,0.0,0.0,0.0,0.0,0.0,0.0,0.0,0.0,0.0,0.0,0.0,0.0,0.0,0.0,0.0,0.0,0.0,0.0,0.0,0.0,0.0,0.0,0.0,0.0,0.0,0.0,0.0,0.0,0.0,0.0,0.0,0.0,0.0,0.0,0.0,0.0,0.0,0.0,0.0,0.0,0.0,0.0,0.0,0.0,0.0,0.0,0.0,0.0,0.0,0.0,0.0,0.0,0.0,0.0,0.0,0.0,0.0,0.0,0.0,0.0,0.0,0.0,0.0,0.0,0.0,0.0,0.0,0.0,0.0,0.0,0.0,0.0,0.0,0.0,0.0,0.0,0.0,0.0,0.0,0.0,-2.1142,-2.2838,-2.4025,-2.4025,-2.4126,-2.4213,-2.4201,-2.3728,-2.3593,0.0,0.0,0.0,0.0,0.0,0.0,0.0,0.0,0.0,0.0,0.0,0.0,0.0,0.0,0.0,0.0,0.0,0.0,0.0,0.0,0.0,0.0,0.0,0.0,0.0,0.0,0.0,0.0,0.0,0.0,0.0,0.0,0.0,0.0,0.0,0.0,0.0,0.0,0.0,0.0,0.0,0.0,0.0,0.0,0.0,0.0,0.0,0.0,0.0,0.0,0.0,0.0,0.0,0.0,0.0,0.0,0.0,0.0,0.0,0.0,0.0,0.0,0.0,0.0,0.0,0.0,0.0,0.0,0.0,0.0,0.0,0.0,0.0,0.0,0.0,0.0,0.0,0.0,0.0,0.0,0.0,0.0,0.0,0.0,0.0,0.0,0.0,0.0,0.0,0.0,0.0,0.0,0.0,0.0,0.0,0.0,0.0,0.0,0.0,0.0,0.0,0.0,0.0,-2.1812,-2.3583,-2.4699,-2.4581,-2.4855,-2.504,-2.4927,-2.4508,-2.4475,-2.5076,0.0,0.0,0.0,0.0,0.0,0.0,0.0,0.0,0.0,0.0,0.0,0.0,0.0,0.0,0.0,0.0,0.0,0.0,0.0,0.0,0.0,0.0,0.0,0.0,0.0,0.0,0.0,0.0,0.0,0.0,0.0,0.0,0.0,0.0,0.0,0.0,0.0,0.0,0.0,0.0,0.0,0.0,0.0,0.0,0.0,0.0,0.0,0.0,0.0,0.0,0.0,0.0,0.0,0.0,0.0,0.0,0.0,0.0,0.0,0.0,0.0,0.0,0.0,0.0,0.0,0.0,0.0,0.0,0.0,0.0,0.0,0.0,0.0,0.0,0.0,0.0,0.0,0.0,0.0,0.0,0.0,0.0,0.0,0.0,0.0,0.0,0.0,0.0,0.0,0.0,0.0,0.0,0.0,0.0,0.0,0.0,0.0,0.0,0.0,0.0,0.0,0.0,-2.203,-2.4039,-2.5292,-2.5171,-2.5399,-2.5593,-2.5644,-2.5253,-2.5077,-2.5096,0.0,0.0,0.0,0.0,0.0,0.0,0.0,0.0,0.0,0.0,0.0,0.0,0.0,0.0,0.0,0.0,0.0,0.0,0.0,0.0,0.0,0.0,0.0,0.0,0.0,0.0,0.0,0.0,0.0,0.0,0.0,0.0,0.0,0.0,0.0,0.0,0.0,0.0,0.0,0.0,0.0,0.0,0.0,0.0,0.0,0.0,0.0,0.0,0.0,0.0,0.0,0.0,0.0,0.0,0.0,0.0,0.0,0.0,0.0,0.0,0.0,0.0,0.0,0.0,0.0,0.0,0.0,0.0,0.0,0.0,0.0,0.0,0.0,0.0,0.0,0.0,0.0,0.0,0.0,0.0,0.0,0.0,0.0,0.0,0.0,0.0,0.0,0.0,0.0,0.0,0.0,0.0,0.0,0.0,0.0,0.0,0.0,0.0,0.0,0.0,0.0,0.0,-2.2169,-2.4437,-2.5923,-2.5813,-2.5979,-2.6196,-2.6424,-2.6111,-2.5453,-2.4328,0.0,0.0,0.0,0.0,0.0,0.0,0.0,0.0,0.0,0.0,0.0,0.0,0.0,0.0,0.0,0.0,0.0,0.0,0.0,0.0,0.0,0.0,0.0,0.0,0.0,0.0,0.0,0.0,0.0,0.0,0.0,0.0,0.0,0.0,0.0,0.0,0.0,0.0,0.0,0.0,0.0,0.0,0.0,0.0,0.0,0.0,0.0,0.0,0.0,0.0,0.0,0.0,0.0,0.0,0.0,0.0,0.0,0.0,0.0,0.0,-2.8094,0.0,0.0,0.0,0.0,0.0,0.0,0.0,0.0,0.0,0.0,0.0,0.0,0.0,0.0,0.0,0.0,0.0,0.0,0.0,0.0,0.0,0.0,0.0,0.0,0.0,0.0,0.0,0.0,0.0,0.0,0.0,0.0,0.0,0.0,0.0,0.0,0.0,0.0,0.0,0.0,0.0,-2.3583,-2.5388,-2.6624,-2.6722,-2.7329,-2.7653,-2.752,-2.7621,-2.6672,-2.42,-2.3983,0.0,0.0,0.0,0.0,0.0,0.0,0.0,0.0,0.0,0.0,0.0,0.0,0.0,0.0,0.0,0.0,0.0,0.0,0.0,0.0,0.0,0.0,0.0,0.0,0.0,0.0,0.0,0.0,0.0,0.0,0.0,0.0,0.0,0.0,0.0,0.0,0.0,0.0,0.0,0.0,0.0,0.0,0.0,0.0,0.0,0.0,0.0,0.0,0.0,0.0,0.0,0.0,0.0,0.0,0.0,0.0,0.0,0.0,0.0,0.0,-2.9453,0.0,0.0,0.0,0.0,0.0,0.0,0.0,0.0,0.0,0.0,0.0,0.0,0.0,0.0,0.0,0.0,0.0,0.0,0.0,0.0,0.0,0.0,0.0,0.0,0.0,0.0,0.0,0.0,0.0,0.0,0.0,0.0,0.0,0.0,0.0,0.0,0.0,0.0,0.0,0.0,-2.4418,-2.5851,-2.6919,-2.7214,-2.7257,-2.7417,-2.7795,-2.8465,-2.858,-2.767,-2.544,0.0,0.0,0.0,0.0,0.0,0.0,0.0,0.0,0.0,0.0,0.0,0.0,0.0,0.0,0.0,0.0,0.0,0.0,0.0,0.0,0.0,0.0,0.0,0.0,0.0,0.0,0.0,0.0,0.0,0.0,0.0,0.0,0.0,0.0,0.0,0.0,0.0,0.0,0.0,0.0,0.0,0.0,0.0,0.0,0.0,0.0,0.0,0.0,0.0,0.0,0.0,0.0,0.0,-3.019,-3.0804,-3.1489,-3.1671,-3.2091,-3.248,-3.1516,-3.1456,-3.2084,-3.1102,0.0,0.0,0.0,0.0,0.0,0.0,0.0,0.0,0.0,0.0,0.0,0.0,0.0,0.0,0.0,0.0,0.0,0.0,0.0,0.0,0.0,0.0,0.0,0.0,-3.1146,-3.1027,0.0,0.0,0.0,0.0,0.0,0.0,0.0,0.0,0.0,0.0,0.0,0.0,-2.5196,-2.6133,-2.7003,-2.7465,-2.6899,-2.6736,-2.7233,-2.8598,-2.9915,-3.0954,-2.7318,-2.6014,0.0,0.0,0.0,0.0,0.0,0.0,0.0,0.0,0.0,0.0,0.0,0.0,0.0,0.0,0.0,0.0,0.0,0.0,0.0,0.0,0.0,0.0,0.0,0.0,0.0,0.0,0.0,0.0,0.0,0.0,0.0,0.0,-2.3689,-2.4115,0.0,0.0,0.0,0.0,0.0,0.0,0.0,0.0,0.0,0.0,0.0,0.0,0.0,-2.742,-2.7835,-2.9421,-3.065,-3.1341,-3.1941,-3.275,-3.3664,-3.3761,-3.3882,-3.4088,-3.3729,0.0,-3.2278,-3.219,0.0,0.0,0.0,0.0,0.0,0.0,0.0,0.0,0.0,0.0,0.0,0.0,0.0,0.0,0.0,0.0,0.0,0.0,0.0,0.0,0.0,0.0,-3.2372,-3.2492,-3.2905,-3.326,0.0,-3.0984,-2.8854,-2.8422,-2.7924,0.0,0.0,0.0,0.0,0.0,0.0,0.0,-2.6568,-2.6821,-2.7144,-2.737,-2.7353,-2.6771,-2.5324,-2.744,-2.8934,-2.923,-2.95,-2.8704,-2.6669,-2.6408,0.0,0.0,0.0,0.0,0.0,0.0,0.0,0.0,0.0,0.0,0.0,0.0,0.0,0.0,0.0,0.0,0.0,0.0,0.0,0.0,0.0,0.0,0.0,0.0,0.0,0.0,0.0,0.0,0.0,-2.4569,-2.4885,-2.4758,-2.5141,-2.5008,0.0,0.0,0.0,0.0,0.0,0.0,0.0,0.0,0.0,-2.6646,-2.7637,-2.8488,-2.902,-3.0471,-3.1274,-3.1488,-3.229,-3.2952,-3.3481,-3.3779,-3.3965,-3.404,-3.4195,-3.3815,-3.3211,-3.3007,-3.2461,-3.1689,0.0,0.0,0.0,0.0,-3.1887,-3.1915,-3.2712,-3.3067,0.0,-3.1863,0.0,0.0,0.0,0.0,0.0,0.0,0.0,0.0,0.0,0.0,-3.2737,-3.3014,-3.3138,-3.3149,-3.3286,-3.1917,-3.0628,0.0,-3.0324,-2.9652,-2.8307,0.0,0.0,0.0,0.0,-2.8138,-2.8022,-2.7681,-2.7782,-2.8569,-2.7541,-2.6529,-2.5731,-2.687,-2.7652,-2.774,-2.8455,-2.9135,-2.969,-2.8336,-2.7532,0.0,0.0,0.0,0.0,0.0,0.0,0.0,0.0,0.0,0.0,0.0,0.0,0.0,0.0,0.0,0.0,0.0,0.0,0.0,0.0,0.0,0.0,0.0,0.0,0.0,0.0,0.0,0.0,-2.5448,-2.5975,-2.5648,-2.6321,-2.6153,0.0,0.0,0.0,0.0,0.0,0.0,-2.5384,-2.6682,-2.7543,-2.7767,-2.8543,-2.922,-2.9785,-3.0818,-3.1229,-3.1141,-3.204,-3.2498,-3.2587,-3.3224,-3.3481,-3.3469,-3.3813,-3.3849,-3.3493,-3.3509,-3.3122,-3.256,-3.2548,-3.2231,-3.1843,-3.2886,-3.3168,-3.3104,-3.3766,-3.4056,-3.3858,-3.2594,0.0,-3.1694,-3.0498,0.0,0.0,0.0,0.0,-3.1951,-3.204,-3.2193,-3.2414,-3.2694,-3.2565,-3.2376,-3.2362,-3.2047,-3.1707,0.0,-3.1772,-3.1211,-2.97,0.0,0.0,0.0,0.0,-2.9266,-2.893,-2.8377,-2.8266,-2.9072,-2.7447,-2.6112,-2.5558,-2.5676,-2.6086,-2.6768,-2.7285,-2.8675,-3.1053,-3.0038,-2.9309,-2.9096,0.0,0.0,0.0,0.0,0.0,0.0,0.0,0.0,0.0,0.0,0.0,0.0,0.0,0.0,0.0,0.0,0.0,0.0,0.0,0.0,0.0,0.0,0.0,0.0,0.0,0.0,0.0,0.0,0.0,-2.7613,-2.7963,0.0,0.0,0.0,0.0,-2.5175,-2.637,-2.6954,-2.6483,-2.7611,-2.8252,-2.8003,-2.8921,-2.9434,-2.9489,-2.9991,-3.0438,-3.0632,-3.113,-3.1462,-3.1771,-3.2564,-3.288,-3.2835,-3.2961,-3.2645,-3.2276,-3.3777,-3.382,-3.3162,-3.338,-3.3121,-3.2785,-3.377,-3.3817,-3.3445,-3.3628,-3.3547,-3.317,-3.2549,-3.1965,-3.1616,-3.2132,-3.1981,0.0,0.0,-3.2291,-3.2779,-3.2263,-3.2124,-3.1985,-3.14,-3.1475,-3.1594,-3.1565,-3.1655,-3.1707,0.0,-3.1707,-3.1559,-3.1005,0.0,-3.0474,-2.9822,-2.9903,-2.9793,-2.9015,-2.8669,-2.8323,-2.7932,-2.7039,-2.5583,-2.3282,-2.3091,-2.4155,-2.6624,-2.7312,-2.769,-2.7811,-3.0635,-3.1228,-2.9139,-2.9023,0.0,0.0,0.0,0.0,0.0,0.0,0.0,0.0,0.0,0.0,0.0,0.0,0.0,0.0,0.0,0.0,0.0,0.0,0.0,0.0,0.0,0.0,0.0,0.0,0.0,0.0,0.0,0.0,-2.7468,-2.7714,0.0,-2.6499,-2.6468,-2.6348,-2.5846,-2.6998,-2.7498,-2.7061,-2.8153,-2.8782,-2.8495,-2.9139,-2.9393,-2.9202,-2.9872,-3.0264,-3.0558,-3.1042,-3.1484,-3.1861,-3.204,-3.2183,-3.2347,-3.2054,-3.2022,-3.2123,-3.2688,-3.245,-3.1783,-3.2317,-3.2372,-3.2125,-3.2922,-3.3133,-3.297,-3.3398,-3.3513,-3.3444,-3.2906,-3.2473,-3.2049,-3.2071,-3.215,-3.2244,-3.2315,-3.2416,-3.2403,-3.2485,-3.2027,-3.1485,-3.1474,-3.111,-3.0737,-3.0723,-3.0544,-3.0263,-2.9978,-3.0935,-3.1703,-3.128,-3.118,-3.095,-3.0427,-3.0266,-2.9975,-2.9299,-2.8713,-2.8238,-2.794,-2.7079,-2.5928,-2.4552,-2.5069,-2.5112,-2.4322,-2.6026,-2.8174,-3.0575,-3.0434,-2.9911,-2.9108,-2.9106,-2.9116,0.0,0.0,0.0,0.0,0.0,0.0,0.0,0.0,0.0,0.0,0.0,0.0,0.0,0.0,0.0,0.0,0.0,0.0,0.0,0.0,0.0,0.0,0.0,0.0,0.0,-2.8299,-2.815,-2.7285,-2.7459,-2.7281,-2.6473,-2.6507,-2.6603,-2.6535,-2.7456,-2.7822,-2.7555,-2.8309,-2.8577,-2.8321,-2.8599,-2.8677,-2.8526,-2.8999,-2.9483,-2.9687,-3.0264,-3.0702,-3.0997,-3.113,-3.125,-3.1337,-3.1229,-3.1174,-3.1373,-3.1656,-3.1356,-3.0804,-3.1776,-3.2007,-3.1874,-3.266,-3.276,-3.2473,-3.2521,-3.2587,-3.2538,-3.2346,-3.2233,-3.1987,-3.1937,-3.2096,-3.2359,-3.2561,-3.236,-3.2097,-3.2208,-3.1555,-3.0926,-3.0867,-3.0432,-3.0015,-3.0029,-2.982,-2.9529,-2.9015,-3.0031,-3.0825,-3.0441,-3.0341,-3.0197,-2.9869,-2.9737,-2.9462,-2.8915,-2.8397,-2.7963,-2.7632,-2.7053,-2.644,-2.5872,-2.65,-2.5827,-2.3279,-2.4901,-2.7515,-3.0923,-2.8732,-2.7983,-2.9077,-2.9092,-2.9547,-3.0523,0.0,0.0,0.0,0.0,0.0,0.0,0.0,0.0,0.0,0.0,0.0,0.0,0.0,0.0,0.0,0.0,0.0,0.0,0.0,0.0,0.0,0.0,0.0,-2.8749,-2.8745,-2.8437,-2.7284,-2.7345,-2.7209,-2.6519,-2.6673,-2.699,-2.7216,-2.7646,-2.7902,-2.7902,-2.7979,-2.7742,-2.7274,-2.7254,-2.7181,-2.7285,-2.7483,-2.7726,-2.7998,-2.8784,-2.9117,-2.9128,-2.985,-3.0057,-2.9774,-3.035,-3.0267,-2.9897,-3.066,-3.0652,-3.0352,-3.1853,-3.2195,-3.2062,-3.3017,-3.2798,-3.1813,-3.1145,-3.0726,-3.0496,-3.0862,-3.1163,-3.1373,-3.1743,-3.2036,-3.2241,-3.2331,-3.2191,-3.1888,-3.1372,-3.0797,-3.0283,-2.9582,-2.9491,-2.954,-2.9415,-2.9588,-2.9624,-2.9015,-2.8993,-2.897,-2.8555,-2.8454,-2.8412,-2.844,-2.844,0.0,-2.7787,-2.789,-2.772,-2.6905,-2.6951,-2.6974,-2.6849,-2.7066,-2.6195,-2.3763,-2.411,-2.5672,-2.8436,-2.5991,-2.6036,-2.9108,-2.9265,-3.0607,-3.337,0.0,0.0,0.0,0.0,0.0,0.0,0.0,0.0,0.0,0.0,0.0,0.0,0.0,0.0,0.0,0.0,0.0,0.0,0.0,0.0,0.0,-3.0433,-3.0557,-2.9581,-2.9377,-2.9015,-2.7987,-2.6999,-2.6553,-2.7047,-2.6235,-2.5935,-2.6573,-2.6508,-2.6472,-2.6472,-2.6653,-2.6763,-2.6828,-2.6988,-2.7075,-2.7041,-2.7588,-2.782,-2.7747,-2.8487,-2.8818,-2.8925,-2.9428,-2.9567,-2.9342,-2.988,-2.9926,-2.9594,-3.0148,-3.0536,-3.0804,-3.1215,-3.1134,-3.0783,-3.1351,-3.1552,-3.1574,-3.1529,-3.1647,-3.1771,-3.1487,-3.1588,-3.1827,-3.1716,-3.1817,-3.1942,-3.1853,-3.1432,-3.0993,-3.0963,-3.0266,-2.9545,-2.9758,-2.9609,-2.9415,-2.9415,-2.954,-2.9482,-2.8862,-2.8502,-2.8368,-2.8483,-2.8829,-2.903,-2.8682,-2.8681,0.0,-2.7995,-2.8096,-2.7977,-2.7247,-2.7049,-2.7027,-2.7172,-2.7171,-2.6154,-2.3746,-2.5881,-2.8669,-3.1805,-3.123,-3.0783,-3.0621,-3.264,-3.3866,0.0,0.0,0.0,0.0,0.0,0.0,0.0,0.0,0.0,0.0,0.0,0.0,0.0,0.0,0.0,0.0,0.0,0.0,0.0,0.0,0.0,0.0,-3.1317,-3.1386,-3.0144,-2.9541,-2.8882,-2.8007,-2.692,-2.6428,-2.6825,-2.6058,-2.5714,-2.6228,-2.6184,-2.5998,-2.5925,-2.6118,-2.6111,-2.5816,-2.6145,-2.6208,-2.5929,-2.6639,-2.6879,-2.6817,-2.7431,-2.7851,-2.8052,-2.8325,-2.8516,0.0,-2.8762,-2.8921,-2.9092,-2.9455,-2.9917,0.0,0.0,0.0,0.0,0.0,-3.1512,-3.1675,-3.1385,-3.1474,-3.1703,-3.119,-3.1304,-3.1645,-3.1628,-3.1683,-3.1696,-3.1507,-3.0964,-3.0501,-3.0524,-2.9882,-2.9323,-2.9734,-2.968,-2.9477,-2.9477,-2.954,-2.942,-2.8923,-2.8573,0.0,-2.8152,-2.8123,-2.8121,-2.794,-2.7937,-2.7958,-2.7681,-2.7671,-2.7586,-2.7321,-2.7262,-2.7255,-2.7238,-2.7345,0.0,0.0,0.0,-2.9864,-3.3177,-3.2982,0.0,0.0,0.0,-3.475,-3.5288,0.0,0.0,0.0,-3.8868,-3.9742,0.0,0.0,0.0,0.0,0.0,0.0,0.0,0.0,0.0,0.0,0.0,0.0,0.0,0.0,0.0,0.0,-3.2071,-3.2188,-3.0458,-2.9406,-2.8474,-2.7592,-2.6849,-2.6356,-2.6135,-2.5852,-2.5763,-2.6077,-2.6022,-2.5911,-2.5627,0.0,0.0,0.0,0.0,-2.5023,-2.4525,-2.5218,-2.5523,-2.5492,-2.5976,-2.6456,-2.6812,-2.6946,-2.7271,-2.7817,-2.7515,-2.7688,-2.8309,-2.8601,-2.9058,-2.9546,-3.0454,-3.1151,-3.1695,-3.16,-3.1701,-3.1788,-3.0859,0.0,0.0,-3.0535,-3.0672,-3.1061,-3.1447,-3.1609,-3.1536,-3.127,-3.0771,-3.0201,-2.9948,-2.9628,-2.9401,-2.9456,-2.9546,-2.9574,-2.9462,-2.9482,-2.9271,-2.8831,-2.859,-2.8237,-2.7521,-2.6971,-2.6664,-2.6794,-2.6832,-2.6899,-2.7158,-2.7041,-2.6982,-2.7277,0.0,0.0,-2.7261,-2.747,-2.8,-2.8894,-2.8927,-3.0256,-3.3193,-3.2628,-3.2222,-3.2222,-3.3074,-3.44,-3.6142,-3.7913,-3.8639,-3.8523,-3.8864,-4.0022,0.0,0.0,0.0,0.0,0.0,0.0,0.0,0.0,0.0,0.0,0.0,0.0,0.0,0.0,0.0,-3.19,-3.1699,-3.1182,-2.996,-2.9106,-2.8259,-2.7603,-2.6223,-2.5414,-2.563,-2.4943,-2.4504,-2.4643,-2.4415,-2.411,-2.376,-2.3904,-2.3904,-2.3713,-2.4303,-2.4686,-2.4791,-2.5488,-2.553,-2.5023,0.0,0.0,-2.5591,-2.6293,-2.6594,-2.6588,-2.7301,-2.7723,-2.7833,-2.8274,-2.8873,-2.9476,-2.9605,-2.9824,-2.9877,-2.9549,-2.9732,-3.0168,-3.0005,-3.0407,-3.0903,-3.0724,-3.0761,-3.1061,-3.1286,-3.1347,0.0,-3.0559,-3.0308,-3.012,-2.9426,-2.9323,-2.9289,-2.8984,-2.9346,-2.9534,-2.8788,-2.8535,-2.8295,-2.7783,-2.6759,-2.613,-2.6547,-2.7086,-2.7324,-2.6866,-2.6878,-2.6997,-2.7195,-2.7328,-2.7488,-2.7542,-2.7664,-2.772,-2.756,-2.7685,-2.7822,-2.789,-3.0696,-3.2654,-3.3265,-3.3165,-3.3747,-3.5214,-3.5078,-3.5417,-3.6327,-3.7824,-3.8552,-3.8539,-3.9677,-4.0768,0.0,0.0,0.0,0.0,0.0,0.0,0.0,0.0,0.0,0.0,0.0,-3.3514,-3.3532,0.0,-3.3354,-3.2737,-3.1839,-3.0891,-2.9782,-2.8611,-2.779,-2.7395,-2.6119,-2.5411,-2.5652,-2.4775,-2.419,-2.4188,-2.4074,-2.3644,-2.2895,-2.3232,-2.3292,-2.2719,-2.3547,-2.3897,-2.3687,-2.4635,-2.4747,-2.4193,-2.4845,-2.5135,-2.5067,-2.5628,-2.6114,-2.6415,-2.6614,-2.6868,-2.7314,-2.7831,-2.8397,-2.9021,-2.9042,-2.9354,-2.993,-2.9976,-3.0078,-3.0281,-3.0202,-3.0494,-3.074,-3.0623,-3.0553,-3.0616,-3.091,-3.0785,-3.0432,-2.9832,-2.9511,-2.9265,-2.8575,-2.836,-2.8302,-2.8162,-2.8422,-2.8626,-2.8278,-2.8138,-2.7997,-2.7539,-2.6874,-2.6404,-2.6585,-2.6431,-2.6474,-2.6951,-2.7093,-2.7181,-2.7351,-2.7446,-2.7518,-2.77,-2.775,-2.7836,-2.7821,-2.8069,-2.8217,-2.8213,-3.0467,-3.2241,-3.3272,-3.3287,-3.3754,-3.4705,-3.5498,-3.6074,-3.6421,-3.7828,-3.8507,-3.8539,-3.9582,-4.0499,0.0,0.0,0.0,0.0,0.0,0.0,0.0,-3.4748,-3.4878,-3.427,-3.4904,-3.54,-3.4984,-3.4876,-3.4462,-3.338,-3.2044,-3.0758,-2.9683,-2.8161,-2.7174,-2.707,-2.6152,-2.5491,-2.5637,-2.4719,-2.4042,-2.3981,-2.3906,-2.35,-2.2432,-2.2904,-2.2804,-2.2034,-2.2839,-2.3077,-2.2552,-2.3503,-2.377,-2.3332,-2.3931,-2.4392,-2.4579,-2.4753,-2.533,-2.6189,-2.5796,-2.6011,-2.6685,-2.7194,-2.7756,-2.826,-2.8397,-2.9082,-3.0016,-3.0397,-3.0535,-3.0362,-3.0273,-3.0272,-3.0251,-3.0189,-3.0099,-3.0,-3.0374,-3.0126,-2.9704,-2.9308,-2.8931,-2.8536,-2.7958,-2.7659,-2.752,-2.7374,-2.7577,-2.7794,-2.7726,-2.7726,-2.7626,-2.7135,-2.6876,-2.657,-2.6104,-2.536,-2.5331,-2.6968,-2.7108,-2.7181,-2.7542,-2.7357,-2.7384,-2.7775,-2.773,-2.783,-2.8149,-2.844,-2.866,-2.8778,-2.9527,-3.0842,-3.2752,-3.2939,-3.3107,-3.3309,-3.5061,-3.6074,-3.6232,-3.7496,-3.8112,-3.8128,-3.8792,-3.9629,-3.5104,-3.5975,-3.6825,-3.7172,-3.6952,-3.6985,0.0,-3.7363,-3.6448,-3.6995,-3.651,-3.59,-3.5652,-3.4788,-3.3828,-3.2876,-3.1419,-3.0258,-2.9775,-2.8119,-2.6846,-2.6552,-2.5882,-2.5267,-2.4727,-2.4168,-2.358,-2.3002,-2.2961,-2.2615,-2.1959,-2.2168,-2.2289,-2.2198,-2.2422,-2.2644,-2.2757,-2.3145,-2.3166,-2.291,-2.3166,-2.337,-2.3422,-2.3575,-2.4061,-2.4804,-2.5513,-2.5732,-2.5599,-2.6359,-2.6709,-2.6895,-2.7702,-2.8104,-2.8329,-2.8657,-2.8851,-2.8872,-2.905,-2.916,-2.9235,-2.934,-2.9418,-2.9437,-2.9579,-2.961,-2.9495,-2.9254,-2.9228,-2.9116,-2.8381,-2.8194,-2.8028,-2.7115,-2.7499,-2.7869,-2.6885,-2.6802,-2.6621,-2.5654,-2.484,-2.411,-2.3456,-2.3889,-2.5018,-2.6917,-2.6583,-2.6488,-2.7467,-2.7141,-2.7094,-2.773,-2.7458,-2.7559,-2.8317,-2.8618,-2.8743,-2.8658,-2.8819,-2.959,-3.1045,-3.1687,-3.2462,-3.3272,-3.413,-3.4857,-3.5505,-3.6279,-3.6658,-3.6674,-3.737,-3.8397,-3.5165,-3.5792,-3.6234,-3.7046,-3.7278,-3.7236,-3.7182,-3.7206,-3.7118,-3.6733,-3.6149,-3.5618,-3.5707,-3.4495,-3.326,-3.2405,-3.0876,-2.955,-2.8885,-2.7326,-2.6129,-2.5938,-2.524,-2.4623,-2.4054,-2.3186,-2.2715,-2.2987,-2.2857,-2.2533,-2.1963,-2.2048,-2.2009,-2.1808,-2.1989,-2.213,-2.2211,-2.2635,-2.2768,-2.2605,-2.2859,-2.3103,-2.3174,-2.3416,-2.3763,-2.4266,-2.4897,-2.5351,-2.5667,-2.5903,-2.6306,-2.6687,-2.6995,-2.7222,-2.7509,-2.8512,-2.8905,-2.8892,-2.9026,-2.906,-2.91,-2.9093,-2.8982,-2.8821,-2.9042,-2.8942,-2.8691,-2.8903,-2.8838,-2.8565,-2.7837,-2.752,-2.7181,-2.6428,-2.665,-2.6873,-2.6472,-2.6529,-2.6323,-2.5383,-2.479,-2.4197,-2.3274,-2.3406,-2.4159,-2.5702,-2.5816,-2.5901,-2.6404,-2.6467,-2.6868,-2.7838,-2.7911,-2.801,-2.8352,-2.8589,-2.8604,-2.851,-2.8695,-2.9084,-2.9762,-3.0888,-3.1804,-3.2483,-3.3773,-3.4571,-3.4888,-3.5697,-3.6031,-3.6047,-3.6349,-3.6794,-3.5606,-3.6055,-3.626,-3.7202,-3.7661,-3.7733,-3.7169,-3.763,-3.7806,-3.6729,-3.6078,-3.5654,-3.5506,-3.4166,-3.2803,-3.191,-3.0434,-2.9199,-2.847,-2.6972,-2.5906,-2.5672,-2.4791,-2.4091,-2.3585,-2.2735,-2.2454,-2.2969,-2.2841,-2.2517,-2.1889,-2.1968,-2.1778,-2.1263,-2.1524,-2.1599,-2.1599,-2.2,-2.2161,-2.2241,-2.2412,-2.2642,-2.287,-2.3244,-2.3551,-2.3827,-2.4337,-2.4904,-2.543,-2.5512,-2.5854,-2.6347,-2.6581,-2.6764,-2.6976,-2.8268,-2.8667,-2.8622,-2.8673,-2.8727,-2.8682,-2.8582,-2.8365,-2.8219,-2.8571,-2.8425,-2.821,-2.8651,-2.8592,-2.8209,-2.7557,-2.712,-2.6749,-2.6076,-2.6111,-2.6218,-2.6326,-2.6486,-2.6366,-2.5716,-2.538,-2.4979,-2.4192,-2.3961,-2.4162,-2.5077,-2.5498,-2.5708,-2.5661,-2.6174,-2.6831,-2.7514,-2.8086,-2.8462,-2.8417,-2.8574,-2.8654,-2.8529,-2.8964,-2.923,-2.9154,-3.0673,-3.1507,-3.158,-3.3351,-3.4282,-3.4298,-3.5176,-3.5448,-3.5249,-3.5489,-3.5632,-3.6912,-3.758,-3.7986,-3.8695,-3.8929,-3.9236,-3.99,-3.9645,-3.897,-3.7892,-3.7203,-3.6469,-3.5164,-3.3701,-3.2467,-3.162,-3.0282,-2.9292,-2.9187,-2.7591,-2.6279,-2.602,-2.467,-2.3641,-2.3279,-2.3397,-2.3298,-2.2724,-2.2735,-2.2243,-2.126,-2.158,-2.148,-2.0666,-2.1004,-2.1225,-2.1225,-2.1245,-2.1322,-2.1543,-2.1553,-2.1772,-2.2164,-2.3001,-2.3264,-2.3067,-2.3927,-2.4408,-2.4594,-2.5059,-2.5248,-2.5421,-2.6526,-2.6845,-2.6808,-2.752,-2.7591,-2.7318,-2.746,-2.7455,-2.7346,-2.7522,-2.7575,-2.7629,-2.7974,-2.8092,-2.821,-2.8651,-2.8766,-2.8543,-2.7728,-2.7558,-2.7397,-2.6353,-2.6312,-2.651,-2.651,-2.6645,-2.6712,-2.6481,-2.6184,-2.5965,-2.5935,-2.5686,-2.5601,-2.5741,-2.5909,-2.594,-2.5816,-2.6625,-2.6995,-2.6503,-2.7752,-2.8542,-2.8417,-2.8685,-2.8842,-2.8795,-2.9785,-3.0052,-2.94,-3.118,-3.1765,-3.086,-3.2673,-3.3666,-3.3714,-3.4622,-3.4596,-3.3905,-3.4768,-3.5402,-3.5966,-3.6043,-3.6317,-3.7225,-3.7378,-3.7288,-3.7199,-3.7357,-3.7184,-3.581,-3.5324,-3.4844,-3.3748,-3.2819,-3.176,-3.0588,-2.9789,-2.9127,-2.87,-2.7262,-2.62,-2.6146,-2.5166,-2.439,-2.4201,-2.3324,-2.2887,-2.3095,-2.278,-2.2451,-2.2243,-2.2167,-2.1962,-2.1439,-2.1507,-2.1502,-2.1436,-2.1502,-2.1731,-2.1883,-2.2176,-2.2402,-2.2553,-2.309,-2.3389,-2.3383,-2.3857,-2.4312,-2.4733,-2.4888,-2.513,-2.5479,-2.5853,-2.6115,-2.6205,-2.6719,-2.6949,-2.7125,-2.7551,-2.7773,-2.7773,-2.7587,-2.7341,-2.7222,-2.7894,-2.7864,-2.7816,-2.8607,-2.8908,-2.8843,-2.826,-2.8155,-2.7952,-2.7156,-2.6737,-2.6558,-2.6664,-2.6765,-2.6774,-2.6669,-2.6645,-2.6544,-2.6273,-2.5453,-2.4822,-2.4623,-2.5074,-2.5288,-2.4867,-2.5559,-2.6574,-2.7825,-2.7813,-2.8015,-2.8826,-2.8858,-2.8904,-2.8995,-3.04,-3.1578,-3.2501,-3.2935,-3.2492,-3.1079,-3.258,-3.3534,-3.3745,-3.4188,-3.4272,-3.4008,-3.4333,-3.4474,-3.5924,-3.5669,-3.5419,-3.6035,-3.6107,-3.5998,-3.5864,-3.6226,-3.629,-3.5201,-3.4774,-3.4307,-3.3219,-3.2453,-3.163,-3.0526,-3.009,-2.9624,-2.8716,-2.7775,-2.6994,-2.6539,-2.5853,-2.5274,-2.4969,-2.3897,-2.3282,-2.339,-2.3156,-2.2827,-2.2381,-2.2296,-2.1924,-2.1257,-2.1246,-2.1244,-2.1257,-2.1408,-2.1642,-2.2101,-2.2478,-2.2628,-2.2628,-2.3075,-2.3372,-2.3519,-2.3824,-2.4299,-2.4858,-2.4979,-2.5182,-2.5576,-2.5798,-2.5955,-2.6094,-2.6508,-2.685,-2.7185,-2.7546,-2.7799,-2.7952,-2.7708,-2.7473,-2.7444,-2.8011,-2.798,-2.7944,-2.8671,-2.9035,-2.9032,-2.8428,-2.8429,-2.8453,-2.7652,-2.719,-2.6957,-2.7171,-2.6977,-2.6782,-2.6834,-2.7047,-2.7121,-2.6803,-2.6261,-2.5712,-2.5299,-2.5507,-2.5415,-2.4472,-2.509,-2.6193,-2.7881,-2.7623,-2.7781,-2.8904,-2.9265,-2.9296,-2.9116,-3.0797,-3.251,-3.4054,-3.3925,-3.2883,-3.0757,-3.2583,-3.3703,-3.3915,-3.405,-3.4101,-3.4101,-3.4101,-3.405,-3.6597,-3.6272,-3.5277,-3.5232,-3.5276,-3.5474,-3.6084,-3.627,-3.629,-3.5989,-3.5463,-3.4759,-3.3477,-3.2672,-3.2007,-3.1349,-3.1093,-3.0551,-2.9309,-2.9009,-2.8477,-2.7172,-2.662,-2.6139,-2.5441,-2.5075,-2.4505,-2.3706,0.0,-2.3285,-2.1889,-2.1919,-2.1488,-2.0257,-2.0155,-2.0349,-2.0788,-2.0788,-2.1226,-2.2113,-2.2478,-2.2563,-2.2403,-2.3032,-2.3338,-2.3338,-2.3959,-2.4418,-2.4861,-2.5182,-2.5382,-2.5676,-2.622,-2.6427,-2.6496,-2.6863,-2.7188,-2.7417,-2.7364,-2.7497,-2.7776,-2.7776,-2.7908,-2.8105,-2.83,-2.8417,-2.8675,-2.9022,-2.9226,-2.9212,-2.8288,-2.8521,-2.8783,-2.7765,-2.7614,-2.7679,-2.7813,-2.7316,-2.6886,-2.699,-2.7333,-2.763,-2.7564,-2.8,-2.8119,-2.7442,-2.6946,-2.6162,-2.4756,-2.5228,-2.5924,-2.6611,-2.7248,-2.7919,-2.8794,-2.9927,-3.0164,-2.9241,-3.1165,-3.2835,-3.4068,-3.4087,-3.2868,-3.017,-3.2748,-3.4078,-3.4078,-3.4099,-3.4101,-3.4101,-3.4101,-3.4101,-3.4563,-3.441,-3.4069,-3.4411,-3.4285,-3.4193,-3.4697,-3.4708,-3.4627,-3.4588,-3.4225,-3.3649,-3.2704,-3.2453,-3.2007,-3.0893,-3.0557,-3.0131,-2.924,-2.863,-2.8014,-2.7281,-2.6701,-2.6346,-2.6139,-2.5681,-2.5097,-2.4492,-2.3904,-2.3142,-2.2363,-2.2136,-2.1621,-2.0736,-2.0736,-2.0728,-2.0699,-2.0986,-2.1325,-2.1739,-2.181,-2.1942,-2.2013,-2.2876,-2.3247,-2.3401,-2.4244,-2.4766,-2.4957,-2.517,-2.5535,-2.5828,-2.622,-2.6496,-2.6714,-2.7201,-2.7063,-2.67,-2.7104,-2.7589,-2.8,-2.7855,-2.7824,-2.789,-2.8387,-2.8402,-2.8394,-2.8975,-2.9289,-2.9456,-2.9063,-2.8528,-2.8068,-2.8011,-2.7489,-2.7099,-2.7325,-2.7388,-2.7446,-2.7569,-2.7755,-2.7773,-2.7387,-2.7485,-2.7473,-2.6915,-2.6377,-2.5884,-2.5446,-2.5268,-2.5642,-2.6871,-2.8025,-2.9021,-2.9785,-3.0734,-3.1148,-3.0688,-3.2304,-3.3534,-3.4072,-3.4088,-3.3775,-3.3026,-3.3707,-3.4083,-3.4083,-3.4117,-3.4101,-3.4101,-3.4101,-3.4101,-3.4503,-3.4179,-3.3668,-3.3804,-3.3538,-3.33,-3.3639,-3.3546,-3.3458,-3.389,-3.3587,-3.3161,-3.2815,-3.2585,-3.2149,-3.1114,-3.097,-3.0643,-2.9505,-2.9114,-2.8596,-2.7496,-2.6956,-2.6467,-2.6076,-2.5816,-2.5322,-2.473,-2.4284,-2.3601,-2.259,-2.2144,-2.1593,-2.0919,-2.0578,-2.044,-2.0642,-2.1204,-2.1522,-2.1592,-2.1592,-2.1651,-2.1721,-2.2475,-2.2878,-2.3029,0.0,-2.4423,-2.4811,-2.5172,-2.5664,-2.6164,-2.6645,-2.6918,-2.7121,-2.7456,-2.7525,-2.7352,-2.7229,-2.7618,-2.8079,-2.7873,-2.7948,-2.828,-2.8684,-2.8801,-2.8844,-2.915,-2.9421,-2.9704,-2.9647,-2.9054,-2.8268,-2.7769,-2.7541,-2.7457,-2.7668,-2.7654,-2.7715,-2.8096,-2.8262,-2.8288,-2.8015,-2.7984,-2.786,-2.7355,-2.7032,-2.6756,-2.6446,-2.5866,-2.6059,-2.7486,-2.851,-2.9649,-3.0972,-3.1934,-3.2447,-3.2289,-3.3145,-3.3761,-3.4105,-3.4203,-3.4251,-3.4101,-3.4167,-3.4167,-3.4101,-3.4101,-3.4101,-3.4101,-3.4101,-3.4101,-3.531,-3.4766,-3.3743,-3.3504,-3.3093,-3.2783,-3.3012,-3.2745,-3.2706,-3.3656,-3.3381,-3.3031,-3.3308,-3.2942,-3.2367,-3.1652,-3.1694,-3.1343,-2.9797,-2.9861,-2.947,-2.7722,-2.7144,-2.6531,-2.5703,-2.5507,-2.519,-2.4614,-2.4518,-2.4024,-2.2704,-2.2062,-2.1517,-2.0851,-2.0094,-1.994,-2.056,-2.112,-2.1396,-2.1396,-2.1396,-2.1396,-2.1465,-2.2059,-2.2366,-2.2502,0.0,0.0,-2.4655,-2.5209,-2.582,-2.6382,-2.695,-2.7246,-2.7314,-2.7644,-2.7958,-2.8224,-2.7551,-2.7705,-2.814,-2.7767,-2.8184,-2.8798,-2.9058,-2.9338,-2.9637,-2.9442,-2.9619,-2.9857,-2.9988,-2.958,-2.8799,-2.7422,-2.7574,-2.806,-2.8188,-2.7964,-2.7905,-2.8488,-2.87,-2.8732,-2.8794,-2.8779,-2.8667,-2.8218,-2.8176,-2.804,-2.7546,-2.6844,-2.6882,-2.8287,-2.8926,-3.0094,-3.2071,-3.3096,-3.3646,-3.3727,-3.3714,-3.3795,-3.4137,-3.4332,-3.4366,-3.4201,-3.4349,-3.4349,-3.4201,-3.4201,-3.4151,-3.4151,-3.4151,-3.4151,-3.4775,-3.4423,-3.3847,-3.3688,-3.3273,-3.2983,-3.3407,-3.2825,-3.2559,-3.3989,-3.3456,-3.2845,-3.3505,-3.314,-3.2586,-3.2038,-3.1425,-3.0669,-2.9699,-2.9281,-2.8719,-2.7855,-2.7,-2.6323,-2.5889,-2.5025,-2.4291,-2.3747,-2.3438,-2.312,-2.2743,-2.1767,-2.0941,-2.0282,-2.026,-2.0249,-2.0205,-2.0292,-2.0325,-2.0325,-2.0325,-2.0534,-2.0872,-2.1649,-2.2228,-2.2669,-2.3556,0.0,-2.5209,-2.5465,-2.5794,-2.6149,-2.6438,-2.6414,-2.6354,-2.7019,-2.7153,-2.7004,-2.7604,-2.7865,-2.8016,-2.7767,-2.8147,-2.8806,-2.9163,-2.9566,-2.987,-3.0078,-2.9757,-2.939,-2.9435,-2.8978,-2.8302,-2.7632,-2.7572,-2.7739,-2.7855,-2.8065,-2.8348,-2.8556,-2.8233,-2.7997,-2.8178,-2.8223,-2.8265,-2.8343,-2.7918,-2.7827,-2.8292,-2.7672,-2.7684,-2.8971,-2.9858,-3.0895,-3.235,-3.3198,-3.3799,-3.4002,-3.402,-3.4168,-3.4513,-3.4268,-3.4317,-3.4594,-3.4725,-3.4725,-3.4594,-3.4594,-3.4546,-3.4448,-3.4448,-3.4349,-3.5463,-3.5258,-3.468,-3.3965,-3.3785,-3.3665,-3.3206,-3.2441,-3.2283,-3.3651,-3.2807,-3.2112,-3.3127,-3.2526,-3.1601,-3.0904,-3.0634,-3.0134,-2.913,-2.9115,-2.8881,-2.7908,-2.6855,-2.6103,-2.5772,-2.4598,-2.3762,-2.3447,-2.2834,-2.235,-2.207,-2.1119,-2.0424,-2.0085,-2.0194,-2.0194,-2.0085,-2.0085,-2.0085,-2.0085,-2.0216,-2.0399,-2.0658,-2.1323,-2.1888,-2.2293,-2.2938,0.0,-2.4666,-2.5136,-2.5741,-2.644,-2.6935,-2.7143,-2.724,-2.7635,-2.7836,-2.7919,-2.7927,-2.8112,-2.8296,-2.8016,-2.851,-2.9242,-2.9604,-2.9943,-3.0269,-3.0438,-2.9959,-2.9319,-2.8598,-2.817,-2.7897,-2.7676,-2.7799,-2.8035,-2.8103,-2.8332,-2.8621,-2.8748,-2.8576,-2.8525,-2.8767,-2.8828,-2.8901,-2.9166,-2.864,-2.8343,-2.8725,-2.8142,-2.8197,-2.9416,-3.0631,-3.1788,-3.2805,-3.3596,-3.4117,-3.4315,-3.4316,-3.4431,-3.4644,-3.4496,-3.4512,-3.4691,-3.4837,-3.4772,-3.4561,-3.461,-3.4593,-3.4529,-3.4627,-3.4692,-3.6588,-3.6369,-3.5764,-3.4735,-3.4559,-3.4359,-3.3208,-3.2389,-3.2147,-3.311,-3.2217,-3.1573,-3.2562,-3.177,-3.0756,-2.9932,-2.9884,-2.958,-2.8666,-2.892,-2.8903,-2.8106,-2.6868,-2.5871,-2.5469,-2.4144,-2.3192,-2.297,-2.2093,-2.1416,-2.1085,-2.0446,-2.0053,-2.0074,-2.0053,-2.0053,-2.0074,-2.0074,-2.0074,-2.0074,-2.0281,-2.0464,-2.0646,-2.1135,-2.1577,-2.1889,-2.2285,0.0,0.0,-2.4836,-2.5627,-2.6424,-2.7262,-2.7628,-2.7749,-2.8018,-2.8447,-2.885,-2.8353,-2.8477,-2.883,-2.8526,-2.8881,-2.952,-2.9937,-3.0364,-3.0703,-3.0616,-3.0028,-2.917,-2.8093,-2.7715,-2.7669,-2.7727,-2.8041,-2.836,-2.8411,-2.8558,-2.8716,-2.8858,-2.9028,-2.9148,-2.9249,-2.9294,-2.9383,-2.9648,-2.9231,-2.8949,-2.9111,-2.8788,-2.8936,-2.9983,-3.1193,-3.2311,-3.3191,-3.3942,-3.4448,-3.4594,-3.4643,-3.4691,-3.4804,-3.4851,-3.4868,-3.4899,-3.5011,-3.493,-3.4625,-3.4721,-3.4704,-3.4607,-3.4885,-3.4965,-3.7732,-3.7357,-3.6945,-3.6472,-3.556,-3.4648,-3.4163,-3.3219,-3.2477,-3.2552,-3.2191,-3.1818,-3.19,-3.1387,-3.0826,-3.0241,-2.9501,-2.903,-2.9136,-2.8359,-2.7956,-2.8447,-2.6982,-2.5615,-2.4958,-2.3634,-2.2391,-2.1458,-2.0714,-2.0238,-2.0063,-1.9955,-1.9933,-1.9933,-1.9933,-1.9933,-1.9933,-1.9933,-1.9933,-1.9933,-2.027,-2.0475,-2.0733,-2.121,-2.1588,-2.1925,-2.2432,0.0,0.0,-2.495,-2.5213,-2.5197,-2.6498,-2.6538,-2.6088,-2.7193,-2.7849,-2.8353,-2.885,-2.9213,-2.9501,-2.9478,-2.9124,-2.8961,-2.98,-3.0568,-3.0999,-3.0689,-2.9817,-2.8862,-2.8581,-2.8136,-2.7836,-2.8069,-2.8201,-2.8299,-2.8541,-2.859,-2.8685,-2.8858,-2.9023,-2.8962,-2.8574,-2.8542,-2.8645,-2.8844,-2.8906,-2.9127,-2.9794,-3.0067,-3.0432,-3.1001,-3.1242,-3.1925,-3.3285,-3.4167,-3.4787,-3.5041,-3.5041,-3.5088,-3.5245,-3.5278,-3.5341,-3.5446,-3.5496,-3.5463,-3.5316,-3.5316,-3.5253,-3.5048,-3.5261,-3.5198,-3.8477,-3.8418,-3.7891,-3.6956,-3.6149,-3.5239,-3.3911,-3.2935,-3.2302,-3.2239,-3.1642,-3.124,-3.1459,-3.0543,-2.9479,-2.8799,-2.8349,-2.8039,-2.7842,-2.7895,-2.7815,-2.7493,-2.6337,-2.5239,-2.4369,-2.2822,-2.144,-2.0582,-1.9781,-1.9204,-1.8996,-1.9314,-1.9539,-1.9539,-1.9671,-1.9802,-1.9868,-2.0009,-2.0009,-2.0009,-2.0281,-2.054,-2.085,-2.121,-2.1663,-2.2123,-2.2494,0.0,0.0,-2.4502,-2.4913,-2.5235,-2.6595,-2.6956,-2.691,-2.7809,-2.8438,-2.8781,-2.9016,-2.9282,-2.9633,-2.9864,-2.9843,-2.9954,-3.072,-3.0602,-3.0206,-3.0321,-2.9585,-2.874,-2.8719,-2.8243,-2.7868,-2.822,-2.846,-2.8667,-2.8748,-2.892,-2.9044,-2.9152,-2.9225,-2.9294,-2.9191,-2.9219,-2.9408,-2.996,-2.9783,-2.9854,-3.0675,-3.0494,-3.0622,-3.1364,-3.2265,-3.3024,-3.3601,-3.4421,-3.4994,-3.5198,-3.5198,-3.5291,-3.54,-3.5371,-3.5354,-3.5458,-3.5475,-3.5362,-3.509,-3.54,-3.545,-3.5383,-3.5501,-3.545,-3.9412,-3.9416,-3.8874,-3.7892,-3.692,-3.5797,-3.4057,-3.3009,-3.223,-3.1812,-3.124,-3.0907,-3.1001,-2.9926,-2.8748,-2.7929,-2.7668,-2.7385,-2.6965,-2.7322,-2.7465,-2.6881,-2.5877,-2.4891,-2.3932,-2.2001,-2.0506,-1.9846,-1.9007,-1.8395,-1.8209,-1.8438,-1.8678,-1.8944,-1.9267,-1.9539,-1.9802,-1.9944,-2.0074,-2.0064,-2.027,-2.0529,-2.0839,-2.121,-2.1663,-2.2123,-2.2555,0.0,0.0,-2.417,-2.4767,-2.5308,-2.6658,-2.73,-2.7584,-2.837,-2.883,-2.9071,-2.9226,-2.9498,-2.9813,-3.0119,-3.0259,-3.0426,-3.1036,-3.0535,-2.9776,-2.9768,-2.9124,-2.8478,-2.8601,-2.8247,-2.8,-2.8365,-2.862,-2.881,-2.8873,-2.9059,-2.9275,-2.9353,-2.9444,-2.9579,-2.9697,-2.9903,-3.0254,-3.0846,-3.0819,-3.1001,-3.1827,-3.1402,-3.1226,-3.1841,-3.2907,-3.3649,-3.3819,-3.4672,-3.5198,-3.5337,-3.5383,-3.5429,-3.552,-3.5429,-3.5412,-3.547,-3.547,-3.5194,-3.4672,-3.5283,-3.5458,-3.5183,-3.5475,-3.5605,-4.0641,-4.0335,-4.0005,-3.9679,-3.8072,-3.6287,-3.507,-3.3761,-3.2453,-3.125,-3.1177,-3.1083,-3.0435,-2.9766,-2.8997,-2.8061,-2.7638,-2.73,-2.6947,-2.6629,-2.6556,-2.6978,-2.5727,-2.4557,-2.3711,-2.1391,-1.9671,-1.9142,-1.8379,0.0,-1.77,-1.7155,-1.7243,-1.8209,-1.8781,-1.9274,-1.9605,-1.9802,-1.9987,-2.0096,-2.0324,-2.054,-2.0733,-2.121,-2.1588,0.0,0.0,0.0,0.0,-2.417,-2.4767,-2.5308,-2.6658,-2.7287,-2.748,-2.842,-2.8867,-2.8953,-2.9449,-2.9789,-3.0172,-3.0522,-3.0148,-2.9739,-3.0297,-3.0354,-3.0015,-2.9056,-2.8474,-2.8115,-2.8217,-2.8186,-2.8284,-2.8525,-2.8573,-2.8668,-2.8873,-2.9013,-2.9215,-2.951,-2.9585,-2.9611,-2.9697,-3.038,-3.0924,-3.1108,-3.1802,-3.2613,-3.3301,-3.2974,-3.268,-3.2668,-3.2873,-3.3261,-3.3922,-3.481,-3.5354,-3.5492,-3.5549,-3.5577,-3.5622,-3.5577,-3.5577,-3.5622,-3.5622,-3.5138,-3.4199,-3.5138,-3.5121,-3.4216,-3.5155,-3.5622,-4.0386,-4.0019,-3.9242,-3.8874,-3.7261,-3.5443,-3.4191,-3.34,-3.2585,-3.1284,-3.1196,-3.1128,-3.0418,-2.9766,-2.9108,-2.849,-2.7686,-2.7083,-2.683,-2.6402,-2.5731,-2.4822,-2.3139,-2.1685,-2.0748,-1.9868,-1.9007,-1.8218,-1.7553,-1.7025,-1.6504,-1.6179,-1.652,-1.7595,-1.8072,-1.8623,-1.9407,-1.9605,-1.9802,-2.0064,-2.027,-2.054,-2.0733,-2.1094,-2.1423,0.0,0.0,0.0,0.0,-2.3833,-2.4314,-2.476,-2.6195,-2.6897,-2.7149,-2.8229,-2.8858,-2.9192,-2.9492,-2.969,-2.9818,-3.0421,-3.0119,-2.962,-2.9625,-2.9134,-2.853,-2.8282,-2.8252,-2.8314,-2.8348,-2.8493,-2.8636,-2.8795,-2.8889,-2.8982,-2.9152,-2.935,-2.9547,-2.9697,-2.983,-2.9918,-3.0033,-3.0239,-3.0609,-3.116,-3.1483,-3.1937,-3.2826,-3.2772,-3.2757,-3.2873,-3.3428,-3.369,-3.3422,-3.413,-3.4858,-3.5458,-3.5549,-3.5622,-3.5622,-3.5622,-3.5622,-3.5622,-3.4969,-3.4817,-3.5155,-3.4638,-3.4688,-3.5334,-3.4851,-3.4958,-4.0024,-3.9689,-3.8908,-3.8188,-3.6765,-3.5206,-3.399,-3.3368,-3.2742,-3.1547,-3.1446,-3.1253,-3.0299,-2.9729,-2.9013,-2.7816,-2.7046,-2.6414,-2.5824,-2.5324,-2.4433,-2.2907,-2.1308,-2.0022,-1.8978,-1.8755,-1.8352,-1.7664,-1.6892,-1.6288,-1.5885,-1.5445,-1.5549,-1.6398,-1.7204,-1.8019,-1.8871,-1.9274,-1.9533,-1.9738,-2.0117,-2.0147,-1.9994,-2.0796,-2.1318,0.0,0.0,0.0,0.0,-2.37,-2.4171,-2.4786,-2.6082,-2.6823,-2.7251,-2.8338,-2.8636,-2.8636,-2.9168,-2.9229,-2.9228,-2.9871,-2.9776,-2.9347,-2.9184,-2.8606,-2.7976,-2.8115,-2.8299,-2.8493,-2.8573,-2.8716,-2.8858,-2.9013,-2.9106,-2.9229,-2.9382,-2.9592,-2.977,-2.983,-2.9946,-3.0017,-3.0103,-3.0391,-3.0806,-3.1309,-3.1632,-3.2067,-3.2663,-3.2586,-3.2474,-3.2629,-3.2916,-3.2966,-3.2739,-3.3967,-3.497,-3.5458,-3.5549,-3.5622,-3.5622,-3.5622,-3.5622,-3.5622,-3.4682,-3.453,-3.5199,-3.4462,-3.4547,-3.5324,-3.4989,-3.5169,0.0,-3.9312,-3.8834,-3.7623,-3.6531,-3.5431,-3.4252,-3.3597,0.0,-3.1941,-3.1705,-3.1342,-3.0171,-2.9741,-2.8803,-2.651,-2.6063,-2.5497,-2.4065,-2.3534,-2.2693,-2.1222,-2.0323,-1.9348,-1.8114,-1.7985,-1.7823,-1.7267,-1.6261,-1.567,-1.5698,-1.4796,-1.4439,-1.479,-1.6272,-1.7385,-1.8127,-1.8776,-1.9102,-1.9165,-1.9694,-1.9497,-1.878,-2.037,-2.1113,0.0,0.0,0.0,0.0,-2.3767,-2.4327,-2.5263,-2.6223,-2.6972,-2.7721,-2.8605,-2.8326,-2.7557,-2.8455,-2.8579,-2.8336,-2.898,-2.9109,-2.8991,-2.8946,-2.8591,-2.8235,-2.8396,-2.8493,-2.8653,-2.8873,-2.8904,-2.9013,-2.9243,-2.9305,-2.9366,-2.9566,-2.9742,-2.9842,-2.9927,-2.9951,-3.0017,-3.0017,-3.0718,-3.1292,-3.1424,-3.2073,-3.2636,-3.2757,-3.2285,-3.1951,-3.2017,-3.1567,-3.1506,-3.2092,-3.4112,-3.534,-3.5391,-3.5498,-3.5622,-3.5622,-3.5622,-3.5571,-3.5442,-3.4563,-3.4209,-3.4421,-3.455,-3.4592,-3.4543,-3.5392,-3.5873,-3.8883,0.0,-3.8074,-3.6922,-3.5818,-3.4835,0.0,-3.3625,-3.299,-3.1429,-3.0942,-3.0717,-3.0406,-2.9515,-2.8588,-2.7797,-2.6897,-2.5381,-2.2989,-2.1281,-2.0056,-1.9416,-1.9096,-1.848,-1.7488,-1.7792,-1.7441,-1.602,-1.5569,-1.5094,-1.4556,-1.4215,-1.3994,-1.3822,-1.5018,-1.6215,-1.7395,-1.7614,-1.7989,-1.8422,-1.8612,-1.8794,-1.8939,-1.9414,-1.9941,0.0,0.0,0.0,-2.2627,-2.3032,-2.383,-2.4829,-2.5697,-2.6362,-2.7037,-2.8512,-2.8598,-2.7996,-2.7677,-2.7662,-2.7767,-2.7939,-2.8465,-2.8915,-2.8399,-2.8373,-2.8525,-2.8525,-2.87,-2.8826,-2.8904,-2.9059,-2.9198,-2.9305,-2.9441,-2.9608,-2.9669,-2.9814,-2.9973,-3.0092,-3.0222,-3.0316,-3.0359,-3.0634,-3.0833,-3.0875,-3.1149,-3.1332,-3.1431,-3.1304,-3.1308,-3.145,-3.1822,-3.2144,-3.2405,-3.3322,-3.4013,-3.4242,-3.5104,-3.5599,-3.5622,-3.5599,-3.5081,-3.3933,-3.3354,-3.3313,-3.3803,-3.3845,-3.4483,-3.5633,-3.5309,-3.5429,-3.8658,-3.8276,-3.7858,-3.6746,-3.5661,-3.4848,-3.463,-3.343,-3.2299,-3.213,-3.137,-3.0749,-3.0666,-2.8864,-2.7142,-2.646,-2.4557,-2.2611,-2.0997,-1.9551,-1.853,-1.8336,-1.8048,-1.7453,0.0,-1.7081,-1.6884,-1.5739,-1.5158,-1.4677,-1.4423,-1.3942,-1.37,-1.364,-1.4478,-1.5384,-1.6263,-1.6777,-1.7216,-1.7449,-1.8116,-1.8289,-1.809,-1.8907,-1.9458,0.0,0.0,0.0,-2.2059,-2.285,-2.3533,-2.43,-2.5561,-2.6249,-2.6749,-2.8009,-2.8208,-2.7837,-2.7399,-2.7457,-2.773,-2.8062,-2.8387,-2.8636,-2.8575,-2.8642,-2.8684,-2.8684,-2.8795,-2.8904,-2.9059,-2.9198,-2.935,-2.9441,-2.9621,-2.9754,-2.9814,-3.0017,-3.0189,-3.0189,-3.0333,-3.0417,-3.0443,-3.0526,-3.0609,-3.0692,-3.0814,-3.0912,-3.0975,-3.1015,-3.1095,-3.1295,-3.163,-3.1885,-3.1941,-3.2574,-3.3322,-3.4122,-3.5193,-3.579,-3.583,-3.5817,-3.5077,-3.3507,-3.3507,-3.3558,-3.359,-3.359,-3.4252,-3.5531,-3.5155,-3.5231,-3.8573,-3.8305,-3.7915,-3.6618,-3.5766,-3.523,-3.5287,-3.3301,-3.1756,-3.2933,-3.1965,-3.0922,-3.087,-2.7928,-2.5308,-2.4558,-2.1411,-1.9023,-1.8897,-1.8048,-1.7494,-1.754,-1.7025,0.0,-1.6054,-1.6353,-1.6318,-1.5745,-1.4909,-1.441,-1.4499,-1.3834,-1.3425,-1.3494,-1.4269,-1.4703,-1.4799,-1.589,-1.6555,-1.6626,-1.7613,-1.7744,-1.7155,-1.8494,-1.9229,-1.9408,0.0,0.0,-2.1657,-2.2613,-2.3303,-2.3806,-2.5461,-2.6242,-2.6567,-2.7228,-2.7478,-2.7397,-2.7365,-2.7569,-2.7881,-2.849,-2.8495,-2.8293,-2.8909,-2.894,-2.8794,-2.8842,-2.8905,-2.8951,-2.9213,-2.9305,-2.9396,-2.9608,-2.9754,-2.9853,-2.9973,-3.0189,-3.0375,-3.0231,-3.0316,-3.0401,-3.0443,-3.0526,-3.0609,-3.0733,-3.0871,-3.0952,-3.1015,-3.1015,-3.1095,-3.1312,-3.1295,-3.1295,-3.1334,-3.1941,-3.292,-3.4278,-3.5375,-3.6007,-3.6093,-3.5975,-3.5258,-3.3836,-3.4211,-3.4117,-3.3632,-3.3751,-3.4182,-3.4844,-3.5143,-3.5236,-3.8245,-3.8332,-3.7822,-3.5873,-3.5749,-3.5799,-3.4661,-3.3913,-3.3122,-3.1959,-3.0906,-3.0368,-3.1074,-2.7211,-2.418,-2.5205,-2.0793,-1.7408,-1.7895,-1.6721,-1.6007,-1.6576,-1.6129,-1.5834,-1.598,-1.6125,-1.591,-1.5154,0.0,-1.4244,-1.3613,-1.3821,-1.3374,-1.2284,-1.3687,-1.3912,-1.2824,-1.4336,-1.5622,-1.6618,-1.6294,-1.6663,-1.7601,-1.7868,-1.8377,0.0,0.0,-2.006,-2.1046,-2.1575,-2.2418,-2.3497,-2.4914,-2.5671,-2.6073,-2.6522,-2.6833,-2.7135,-2.7593,-2.775,-2.7855,-2.816,-2.8262,-2.825,-2.8601,-2.8714,-2.8842,-2.9014,-2.9075,-2.9075,-2.9121,-2.9321,-2.9473,-2.9518,-2.977,-2.9973,-3.0017,-3.0189,-3.0417,-3.0359,-3.0443,-3.0526,-3.0609,-3.0749,-3.0855,-3.0935,-3.1072,-3.1151,-3.1151,-3.1151,-3.123,-3.1423,-3.1351,-3.1372,-3.1542,-3.1572,-3.2224,-3.3707,-3.512,-3.5976,-3.6088,-3.5437,-3.4951,-3.4711,-3.4157,-3.3833,-3.368,-3.4487,-3.4603,-3.4088,-3.5459,-3.5801,-3.7576,-3.7658,-3.7381,-3.6238,-3.6211,-3.6326,-3.5822,-3.4516,-3.3253,-3.2654,-3.2061,-3.1298,-3.0021,-2.6281,-2.2687,-2.0463,-1.7836,-1.6446,-1.7135,-1.6253,-1.5784,-1.6307,0.0,-1.5772,-1.581,-1.5799,-1.5452,0.0,0.0,0.0,-1.3658,-1.3602,-1.3339,-1.278,-1.3531,-1.38,-1.3477,-1.4014,-1.4759,-1.5736,-1.5862,-1.6558,-1.77,-1.7431,-1.7982,-1.9146,0.0,-1.9805,-2.0682,-2.1406,-2.2113,-2.2948,-2.4727,-2.5452,-2.5615,-2.6462,-2.6593,-2.652,-2.747,-2.7936,-2.8149,-2.8266,-2.8396,-2.8525,-2.87,-2.8858,-2.9014,-2.9229,-2.9259,-2.9259,-2.9412,-2.9518,-2.9653,-2.9726,-2.993,-3.0103,-3.0189,-3.0359,-3.0485,-3.0526,-3.0568,-3.0651,-3.0773,-3.0912,-3.0975,-3.0975,-3.1112,-3.119,-3.119,-3.119,-3.1269,-3.1479,-3.1462,-3.1445,-3.1579,-3.1534,-3.2298,-3.4172,-3.541,-3.613,-3.6199,-3.5822,-3.5437,-3.5025,-3.4599,-3.4411,-3.4435,-3.4401,-3.4483,-3.4599,-3.5304,-3.5501,-3.6968,-3.6908,-3.6826,-3.6916,-3.6746,-3.6638,-3.7024,-3.5337,-3.3687,-3.3832,-3.314,-3.169,-2.9092,-2.542,-2.1088,-1.5994,-1.5511,-1.601,-1.6606,-1.5984,-1.5602,-1.5886,-1.5688,-1.5489,-1.5449,-1.5247,-1.4872,0.0,0.0,0.0,-1.3534,-1.349,-1.3356,-1.3055,-1.334,-1.3532,-1.3617,-1.3822,-1.4394,-1.5406,-1.576,-1.6569,-1.7799,-1.7345,-1.7961,-1.9291,-1.9512,-1.9965,-2.0599,-2.1435,-2.1965,-2.2406,-2.4638,-2.5545,-2.5735,-2.6747,-2.6747,-2.6391,-2.7515,-2.8134,-2.8424,-2.8508,-2.8684,-2.8873,-2.8982,-2.9075,-2.9213,-2.9502,-2.9486,-2.947,-2.9637,-2.9726,-2.9814,-2.9973,-3.0103,-3.0274,-3.0401,-3.0485,-3.0609,-3.0733,-3.0733,-3.0773,-3.0912,-3.0975,-3.1055,-3.1055,-3.1173,-3.1269,-3.1269,-3.1269,-3.1363,-3.15,-3.15,-3.1576,-3.1634,-3.1981,-3.2861,-3.4301,-3.5538,-3.6165,-3.6042,-3.6147,-3.5975,-3.5425,-3.5307,-3.5221,-3.515,-3.4655,-3.4569,-3.4938,-3.5236,-3.5304,-3.6693,-3.6506,-3.622,-3.7572,-3.7145,-3.6604,-3.73,-3.6491,-3.5477,-3.506,-3.2704,-3.0336,-2.9173,-2.4668,-1.9669,-1.518,-1.5439,-1.63,-1.63,-1.5589,-1.5021,-1.4867,-1.4486,-1.4355,-1.4855,-1.4371,0.0,0.0,0.0,0.0,-1.2599,-1.3597,-1.3479,-1.2122,-1.2884,-1.2699,-1.1353,-1.3208,-1.4978,-1.6451,-1.5754,-1.635,-1.8073,-1.7821,-1.843,-1.9604,-1.9978,-2.0459,-2.1006,-2.1477,-2.1808,-2.2179,-2.4533,-2.6083,-2.693,-2.7408,-2.753,-2.755,-2.8008,-2.825,-2.8444,-2.8779,-2.8873,-2.8967,-2.9321,-2.9366,-2.9335,-2.9677,-2.9766,-2.9766,-2.9726,-2.9858,-2.9973,-2.9973,-3.0189,-3.0417,-3.0485,-3.0609,-3.0733,-3.0871,-3.0871,-3.0912,-3.0975,-3.1112,-3.123,-3.1257,-3.1406,-3.1479,-3.1479,-3.1479,-3.15,-3.1579,-3.1579,-3.1634,-3.1746,-3.3152,-3.38,-3.328,-3.5152,-3.599,-3.5301,-3.5939,-3.6326,-3.6374,-3.6274,-3.5928,-3.5394,-3.5877,-3.5456,-3.4197,-3.5576,-3.5852,-3.534,-3.6036,-3.6723,-3.7248,-3.7866,-3.8199,-3.7675,-3.7127,-3.6475,-3.559,-3.4006,-3.1063,-2.549,-2.069,-1.6954,-1.4906,-1.5269,-1.5711,-1.5548,-1.5154,-1.4914,-1.4853,-1.4821,-1.4865,-1.4958,-1.4316,0.0,0.0,0.0,0.0,-1.3164,-1.383,-1.382,-1.2919,-1.2852,-1.2597,-1.2192,-1.2812,-1.3864,-1.5267,-1.5521,-1.6207,-1.7266,-1.7006,-1.7763,-1.9334,-1.9282,-1.9989,-2.1143,-2.1582,-2.2024,-2.2564,-2.3952,-2.5116,-2.6022,-2.6251,-2.6669,-2.7179,-2.7624,-2.8231,-2.8841,-2.8967,-2.9059,-2.9198,-2.956,-2.9649,-2.9677,-2.9957,-3.0087,-3.0146,-3.0033,-3.0076,-3.0146,-3.0248,-3.0359,-3.0485,-3.0609,-3.0733,-3.0871,-3.1072,-3.1072,-3.1112,-3.1269,-3.1346,-3.1402,-3.1423,-3.1462,-3.1517,-3.1517,-3.1517,-3.1538,-3.1579,-3.2067,-3.2435,-3.2619,-3.406,-3.4597,-3.3817,-3.5538,-3.6197,-3.5416,-3.6028,-3.6444,-3.6502,-3.636,-3.6222,-3.6069,-3.6222,-3.6067,-3.5613,-3.6084,-3.6146,-3.5249,-3.5998,-3.6895,-3.7618,-3.8258,-3.8689,-3.8581,-3.8099,-3.7126,-3.5142,-3.1918,-2.7418,-2.062,-1.6998,-1.502,-1.4538,-1.493,-1.5116,-1.4804,-1.4689,-1.4622,-1.4505,-1.4436,-1.4444,-1.4621,0.0,0.0,0.0,0.0,0.0,0.0,-1.4019,-1.3956,-1.3134,-1.2711,-1.246,-1.2378,-1.2483,-1.2987,-1.4021,-1.5054,-1.5964,-1.6677,-1.6468,-1.741,-1.9239,-1.923,-1.9964,-2.1266,-2.1862,-2.2534,-2.3296,-2.3754,-2.4604,-2.56,-2.574,-2.6319,-2.7086,-2.7427,-2.8249,-2.914,-2.9153,-2.9259,-2.9486,-2.9766,-2.9897,-3.0,-3.0231,-3.0401,-3.0485,-3.0359,-3.0359,-3.0359,-3.0485,-3.0568,-3.0651,-3.0773,-3.0895,-3.1032,-3.1213,-3.1269,-3.1363,-3.1479,-3.1517,-3.1538,-3.1593,-3.1614,-3.1651,-3.1688,-3.1688,-3.1726,-3.1728,-3.2475,-3.3017,-3.311,-3.4571,-3.5166,-3.4366,-3.5854,-3.6417,-3.5514,-3.6128,-3.6502,-3.6544,-3.6444,-3.6444,-3.6544,-3.6402,-3.636,-3.6444,-3.6343,-3.6301,-3.6792,-3.6456,-3.6487,-3.8883,-3.8239,-3.7665,-4.0011,-3.9463,-3.7355,-3.3523,-2.5673,-1.8395,-1.4858,-1.4299,-1.4259,-1.4047,-1.4439,-1.4709,-1.4363,-1.42,-1.3885,-1.3467,-1.3014,-1.2919,-1.3507,0.0,0.0,0.0,0.0,0.0,0.0,-1.395,-1.3722,-1.2552,-1.2462,-1.21,-1.1285,-1.2102,-1.2757,-1.3218,-1.4397,-1.5472,-1.6378,-1.6444,-1.7575,-1.9433,-2.0093,-2.0712,-2.1268,-2.2314,-2.3358,-2.4341,-2.4015,-2.4717,-2.5894,-2.6168,-2.6795,-2.7535,-2.7657,-2.8293,-2.9121,-2.9259,-2.9486,-2.9726,-2.993,-3.0103,-3.0231,-3.0443,-3.0609,-3.0692,-3.0692,-3.0692,-3.0692,-3.0692,-3.079,-3.0912,-3.0975,-3.1112,-3.123,-3.1312,-3.1406,-3.1517,-3.1517,-3.1559,-3.1671,-3.18,-3.1839,-3.1948,-3.2073,-3.2108,-3.2108,-3.2108,-3.2751,-3.3204,-3.3204,-3.4763,-3.5378,-3.4574,-3.6089,-3.6519,-3.5451,-3.6104,-3.6561,-3.6702,-3.6544,-3.6561,-3.6702,-3.6444,-3.6301,-3.6301,-3.6301,-3.6301,-3.5254,-3.6054,-3.6995,-3.77,-3.9358,-4.0217,-3.8021,-3.5644,-3.2547,-2.7636,-2.2464,-1.8344,-1.6727,-1.5064,-1.3839,-1.3409,-1.3632,-1.3824,-1.3573,-1.3206,-1.2875,-1.2641,-1.2687,-1.2727,0.0,0.0,0.0,0.0,0.0,0.0,0.0,-1.3499,-1.3188,-1.2734,-1.1994,-1.1626,-1.1521,-1.1773,-1.2236,-1.2861,-1.3755,-1.4646,-1.5626,-1.608,-1.7305,-1.9159,-2.0139,-2.1105,-2.2115,-2.2995,-2.3613,-2.4053,-2.4048,-2.4465,-2.5065,-2.5175,-2.6141,-2.7363,-2.7481,-2.8029,-2.883,-2.9387,-2.9665,-2.9826,-3.0189,-3.0359,-3.0443,-3.0609,-3.0651,-3.0692,-3.0551,-3.0692,-3.0831,-3.0733,-3.0855,-3.0992,-3.0975,-3.1117,-3.1312,-3.1423,-3.1521,-3.1596,-3.1688,-3.1726,-3.1746,-3.18,-3.1839,-3.1948,-3.2073,-3.2108,-3.2108,-3.2179,-3.3293,-3.4059,-3.4117,-3.5549,-3.6392,-3.6147,-3.6566,-3.6519,-3.5692,-3.633,-3.6748,-3.6748,-3.6684,-3.6684,-3.6748,-3.6626,-3.6585,-3.665,-3.6585,-3.6544,-3.6495,-3.7384,-3.8394,-3.9058,-4.0017,-3.9329,-3.3633,-3.0102,-2.701,-2.3286,-1.8995,-1.5657,-1.5112,-1.3834,-1.2837,-1.2609,-1.306,-1.3212,-1.2785,-1.2523,-1.2377,-1.2383,-1.2193,-1.2194,0.0,0.0,0.0,0.0,0.0,0.0,0.0,-1.3269,-1.2819,-1.2503,-1.1759,-1.1386,-1.1462,-1.1591,-1.2026,-1.2783,-1.344,-1.4258,-1.5299,-1.5856,-1.7087,-1.8795,-1.9871,-2.1096,-2.2279,-2.1971,-2.2465,-2.3559,-2.4066,-2.4595,-2.4983,-2.4949,-2.5807,-2.7057,-2.7336,-2.7981,-2.8775,-2.9528,-2.9826,-3.0044,-3.0359,-3.0568,-3.0733,-3.0855,-3.0935,-3.0918,-3.0814,-3.0895,-3.0992,-3.0831,-3.0935,-3.1095,-3.1117,-3.1252,-3.1406,-3.1538,-3.1596,-3.1709,-3.18,-3.1819,-3.1856,-3.1893,-3.2001,-3.2108,-3.2196,-3.2232,-3.2354,-3.2669,-3.3787,-3.4644,-3.4979,-3.6151,-3.6891,-3.693,-3.693,-3.6619,-3.5902,-3.6449,-3.6788,-3.6788,-3.6748,-3.6748,-3.6788,-3.6725,-3.6725,-3.6748,-3.6725,-3.6643,-3.9131,-3.9501,-4.0038,-4.1569,-3.9723,-3.5624,-2.8312,-2.3838,-2.1042,-2.0086,-1.5469,-1.1637,-1.1643,-1.1643,-1.1646,-1.1878,-1.2478,-1.2629,-1.1903,-1.1945,-1.2118,-1.2255,-1.1654,-1.1558,0.0,0.0,0.0,0.0,0.0,0.0,0.0,-1.3167,-1.2438,-1.1911,-1.1593,-1.135,-1.1276,-1.1477,-1.2026,0.0,-1.3478,-1.4247,-1.5276,-1.58,-1.6898,-1.8478,-1.9684,-2.1021,-2.22,-2.0327,-2.0857,-2.2978,-2.417,-2.4948,-2.5352,-2.5217,-2.5789,-2.6694,-2.734,-2.8091,-2.8945,-2.9626,-3.0,-3.0274,-3.0468,-3.0757,-3.1055,-3.1173,-3.1235,-3.1257,-3.123,-3.119,-3.1151,-3.0992,-3.1072,-3.123,-3.1312,-3.1406,-3.15,-3.1596,-3.1709,-3.18,-3.18,-3.1839,-3.1948,-3.2073,-3.2267,-3.2406,-3.2406,-3.2406,-3.2686,-3.3354,-3.4197,-3.4988,-3.5565,-3.6391,-3.6943,-3.7002,-3.7002,-3.6703,-3.6033,-3.6527,-3.6776,-3.6724,-3.6776,-3.6829,-3.6829,-3.6766,-3.6742,-3.6742,-3.6742,-3.6742,-3.7428,-3.8035,-3.8726,-3.919,-3.5132,-3.0473,-2.8329,-2.1534,-1.5765,-1.5973,-1.394,-1.2333,-1.2866,-1.2457,-1.1941,-1.1655,-1.1598,-1.143,-1.1024,-1.0679,-1.0539,-1.0683,-1.1002,0.0,0.0,0.0,0.0,0.0,0.0,0.0,-1.3234,-1.2438,-1.1783,-1.1253,-1.0914,-1.0894,-1.1209,-1.1819,-1.2461,0.0,-1.4154,-1.4937,-1.5543,-1.6107,-1.745,-1.9432,-2.167,-2.2999,-2.3485,-2.3061,-2.2784,-2.2809,-2.4322,-2.5094,-2.5352,-2.5647,-2.6151,-2.6883,-2.7606,-2.8323,-2.9014,-2.9858,-3.0274,-3.0485,-3.0814,-3.1038,-3.1218,-3.1274,-3.1295,-3.1257,-3.123,-3.119,-3.119,-3.1196,-3.1213,-3.123,-3.1312,-3.1406,-3.15,-3.1596,-3.1709,-3.1837,-3.1875,-3.1894,-3.1984,-3.2144,-3.2232,-3.2267,-3.2406,-3.2457,-3.2526,-3.2685,-3.4041,-3.473,-3.4199,-3.5432,-3.6207,-3.6244,-3.6244,-3.6174,-3.6015,-3.6682,-3.671,-3.6036,-3.6632,-3.6948,-3.6948,-3.6948,-3.6948,-3.6948,-3.6948,-3.6869,-3.7192,-3.8075,-3.8429,-3.6752,-3.2748,-2.8252,-2.4594,-1.854,-1.3621,-1.3332,-1.2121,-1.1217,-1.1812,-1.1621,-1.1224,-1.0811,-1.0805,-1.066,-1.0459,-1.0287,-1.0429,-1.0877,-1.1251,0.0,0.0,0.0,0.0,0.0,0.0,-1.3861,-1.3608,-1.2638,-1.1881,-1.1491,-1.1386,-1.1301,-1.136,-1.2206,-1.2929,-1.3532,-1.4607,-1.5748,-1.6957,-1.7066,-1.818,-2.0016,-2.0721,-2.207,-2.3804,-2.4437,-2.3515,-2.1926,-2.3829,-2.4543,-2.4592,-2.5082,-2.5779,-2.6564,-2.7728,-2.8445,-2.9056,-3.0112,-3.0526,-3.0634,-3.1038,-3.1312,-3.1542,-3.1562,-3.16,-3.16,-3.1617,-3.1559,-3.1483,-3.1562,-3.1411,-3.1274,-3.1428,-3.1521,-3.1576,-3.1671,-3.1783,-3.1839,-3.186,-3.1966,-3.2108,-3.2267,-3.2319,-3.2319,-3.2388,-3.2439,-3.2648,-3.3036,-3.3864,-3.4376,-3.4288,-3.503,-3.5666,-3.6128,-3.6072,-3.6072,-3.6146,-3.6406,-3.6347,-3.5829,-3.6215,-3.6619,-3.6987,-3.6987,-3.6987,-3.6987,-3.6987,-3.697,-3.6993,-3.7882,-3.7709,-3.4216,-3.0843,-2.6661,-1.9952,-1.5444,-1.2437,-1.1388,-1.0397,-0.9845,-1.0461,-1.0536,-1.0399,-0.9982,-1.0182,-1.0238,-0.9971,-1.0129,-1.0587,-1.1567,-1.1714,0.0,0.0,0.0,0.0,0.0,0.0,-1.3811,-1.3943,-1.3041,-1.2343,-1.202,-1.2175,-1.2129,-1.181,-1.2774,-1.3532,-1.4215,-1.5271,-1.6725,-1.8535,-1.8246,-1.8835,-2.0092,-1.9527,-2.1035,-2.3974,-2.5086,-2.3992,-2.1809,-2.3674,-2.4297,-2.4178,-2.4694,-2.5494,-2.6425,-2.7822,-2.8646,-2.919,-3.0251,-3.0573,-3.0711,-3.107,-3.1391,-3.1664,-3.1877,-3.193,-3.1948,-3.2073,-3.1982,-3.1856,-3.1948,-3.1657,-3.147,-3.16,-3.1654,-3.1691,-3.1819,-3.1929,-3.1966,-3.1914,-3.2109,-3.2267,-3.2388,-3.2406,-3.2406,-3.2406,-3.2473,-3.2788,-3.3424,-3.3704,-3.4057,-3.4659,-3.4712,-3.5155,-3.6221,-3.6077,-3.6023,-3.6274,-3.6146,-3.5998,-3.5849,-3.5811,-3.6197,-3.6987,-3.6987,-3.6987,-3.6987,-3.6987,-3.6987,-3.4849,-3.5052,-3.4414,-3.1376,-2.7506,-2.3031,-1.7599,-1.3322,-1.0307,-0.9655,-0.9496,-0.9949,-1.1361,-1.1368,-1.0853,-0.9756,-1.0007,-1.0072,-0.9244,-0.9156,-0.9643,-1.0918,-1.1498,0.0,0.0,0.0,0.0,0.0,-1.3862,-1.3821,-1.2547,-1.2736,-1.2712,-1.2195,-1.2421,-1.2754,-1.313,-1.3815,-1.456,-1.5398,-1.6834,-1.809,-1.9095,-1.9229,-1.9184,-1.9136,-2.1422,-2.3437,-2.5061,-2.5191,-2.5163,-2.5017,-2.5546,-2.5806,-2.5894,-2.6009,-2.654,-2.7341,-2.836,-2.9092,-2.9655,-2.9989,-3.0154,-3.0323,-3.0673,-3.0853,-3.108,-3.1846,-3.2073,-3.2073,-3.2126,-3.2073,-3.2073,-3.2144,-3.2039,-3.1915,-3.1894,-3.1858,-3.1912,-3.2108,-3.2232,-3.2336,-3.2387,-3.2405,-3.2388,-3.2473,-3.2457,-3.2406,-3.2406,-3.2489,-3.2608,-3.2765,-3.3452,-3.393,-3.4036,-3.3968,-3.4623,-3.6185,-3.5634,-3.5563,-3.6256,-3.6274,-3.6201,-3.6056,-3.5887,-3.6197,-3.6987,-3.6987,-3.6987,-3.6987,-3.6987,-3.6987,-3.4485,-3.2637,-3.007,-2.7881,-2.3535,-1.828,-1.2755,-1.0185,-0.8869,-0.821,-0.8283,-0.8882,-1.0155,-1.0724,-1.0591,-0.925,-0.9192,-0.9128,-0.8624,-0.8823,-0.9591,-1.116,0.0,0.0,0.0,0.0,0.0,0.0,-1.3378,-1.3346,-1.3153,-1.3429,-1.3431,-1.3114,-1.3473,-1.3758,-1.3888,-1.4525,-1.5499,-1.6789,-1.7932,-1.8878,-1.9624,-1.9441,-1.9657,-2.0382,-2.2269,-2.3749,-2.4878,-2.5447,-2.5726,-2.5809,-2.5607,-2.5596,-2.5698,-2.5748,-2.6233,-2.7039,-2.7956,-2.8679,-2.919,-2.9525,-2.9943,-3.0358,-3.0662,-3.1133,-3.1673,-3.2196,-3.2318,-3.2353,-3.2456,-3.2456,-3.2422,-3.2489,-3.2404,-3.2266,-3.2232,-3.2073,-3.1967,-3.2056,-3.2267,-3.2424,-3.2488,-3.2489,-3.2473,-3.2557,-3.2523,-3.2541,-3.2608,-3.269,-3.277,-3.277,-3.3155,-3.3547,-3.3977,-3.3552,-3.4157,-3.6221,-3.5563,-3.5687,-3.6987,-3.6505,-3.6379,-3.6822,-3.6247,-3.6292,-3.7048,-3.7009,-3.6987,-3.6987,-3.6987,-3.6987,-3.2865,-2.9885,-2.6102,-2.364,-1.9516,-1.4495,-0.8749,-0.7552,-0.7433,-0.701,-0.7603,-0.8489,-0.9332,-1.0085,-1.0268,-0.9105,-0.886,-0.8661,-0.8217,-0.8781,-0.9861,-1.1424,0.0,0.0,0.0,0.0,0.0,0.0,-1.3029,-1.3091,-1.357,-1.3983,-1.4063,-1.384,-1.4432,-1.4744,-1.4675,-1.5522,-1.6629,-1.8025,-1.8788,-1.9375,-1.9802,-1.9568,-2.0044,-2.1195,-2.2382,-2.3551,-2.468,-2.5619,-2.6092,-2.6104,-2.5747,-2.5631,-2.5698,-2.5698,-2.6101,-2.6826,-2.7692,-2.8303,-2.8744,-2.9008,-2.9627,-3.0282,-3.0525,-3.1202,-3.2039,-3.2403,-3.2523,-3.2557,-3.2707,-3.269,-3.269,-3.2773,-3.2657,-3.2557,-3.2507,-3.2283,-3.2144,-3.2127,-3.2354,-3.2529,-3.2588,-3.2521,-3.2523,-3.2657,-3.2606,-3.2623,-3.2773,-3.287,-3.2916,-3.2916,-3.2979,-3.3391,-3.4345,-3.3684,-3.4204,-3.656,-3.5901,-3.6079,-3.7523,-3.6897,-3.6788,-3.7449,-3.673,-3.66,-3.7147,-3.7087,-3.7066,-3.7009,-3.7009,-3.7009,-2.8367,-2.6367,-2.3358,-1.8361,-1.5724,-1.292,-0.7487,-0.6039,-0.5925,-0.6113,-0.8101,-0.9807,-0.9964,-1.0021,-0.9964,-0.9711,-0.9679,-0.9301,-0.8183,-0.9108,-1.0377,-1.1478,0.0,0.0,0.0,0.0,0.0,0.0,-1.316,-1.3491,-1.29,-1.3999,-1.4441,-1.4005,-1.4983,-1.5599,-1.5744,-1.7021,-1.804,-1.8855,-1.9528,-1.9665,-1.9333,-1.9844,-2.0164,-2.0432,-2.1567,-2.3141,-2.4946,-2.5758,-2.6279,-2.6572,-2.659,-2.6691,-2.6825,-2.6825,-2.6956,-2.727,-2.8077,-2.8468,-2.8598,-2.8647,-2.9169,-2.9863,-2.9927,-3.0567,-3.1438,-3.2244,-3.2557,-3.2606,-3.2606,-3.269,-3.2773,-3.2823,-3.2737,-3.2654,-3.2523,-3.2507,-3.2489,-3.2573,-3.273,-3.2867,-3.2791,-3.2641,-3.2574,-3.2773,-3.2641,-3.2574,-3.2773,-3.287,-3.2916,-3.2979,-3.2979,-3.3623,-3.5214,-3.4523,-3.5043,-3.738,-3.6774,-3.6702,-3.7541,-3.7541,-3.7541,-3.7577,-3.7431,-3.7319,-3.7297,-3.7314,-3.7203,-3.7108,-3.7108,-3.7069,-2.7783,-2.3737,-1.9369,-1.7366,-1.3522,-0.9506,-0.656,-0.65,-0.6929,-0.6369,-0.759,-0.9015,-1.0129,-1.0362,-1.0292,-0.9787,-0.8908,-0.8169,-0.7902,-0.9005,-1.0229,-1.1347,0.0,0.0,0.0,0.0,0.0,0.0,0.0,-1.33,-1.3552,-1.4212,-1.4697,-1.4971,-1.5656,-1.6403,-1.7122,-1.7667,-1.82,-1.8711,-1.877,-1.8936,-1.919,-1.947,-1.9833,-2.0287,-2.1439,-2.294,-2.4658,-2.5814,-2.6538,-2.6876,-2.694,-2.7006,-2.7103,-2.7184,-2.7279,-2.7469,-2.7823,-2.794,-2.7958,-2.8002,-2.8924,-2.9992,-3.0021,-3.0981,-3.2137,-3.257,-3.2707,-3.2722,-3.2787,-3.282,-3.2852,-3.2805,-3.274,-3.2674,-3.2573,-3.2507,-3.2439,-3.2351,-3.2387,-3.2508,-3.2705,-3.2722,-3.274,-3.287,-3.282,-3.2852,-3.2934,-3.2965,-3.2979,-3.3073,-3.3011,-3.3458,-3.4551,-3.3841,-3.4097,-3.5935,-3.5346,-3.5275,-3.6024,-3.606,-3.606,-3.606,-3.6025,-3.6452,-3.7354,-3.7334,-3.7259,-3.7203,-3.7147,-3.7108,-2.6382,-2.1864,-1.7336,-1.6128,-1.2213,-0.8296,-0.6861,-0.6821,-0.7074,-0.6928,-0.7509,-0.8473,-0.9813,-0.988,-0.9712,-0.9775,-0.8759,-0.7883,-0.7838,-0.9136,-1.0409,-1.1185,0.0,0.0,0.0,0.0,0.0,0.0,0.0,0.0,-1.4025,-1.4617,-1.5344,-1.6225,-1.6536,-1.7247,-1.8377,-1.8724,-1.8912,-1.8967,-1.8998,-1.8988,-1.8952,-1.9187,-1.9634,-2.0274,-2.1172,-2.2534,-2.4208,-2.5596,-2.6402,-2.6713,-2.7049,-2.7215,-2.7279,-2.739,-2.7452,-2.7539,-2.7672,-2.7672,-2.7659,-2.776,-2.885,-3.012,-3.0135,-3.1273,-3.2641,-3.274,-3.2805,-3.2838,-3.2884,-3.2916,-3.2916,-3.2805,-3.2791,-3.2758,-3.2606,-3.2488,-3.2386,-3.2334,-3.2317,-3.242,-3.2687,-3.2755,-3.2805,-3.2884,-3.2916,-3.2965,-3.2979,-3.3011,-3.3073,-3.3165,-3.3152,-3.3427,-3.4171,-3.3709,-3.3895,-3.5132,-3.474,-3.4704,-3.5186,-3.5204,-3.5204,-3.5204,-3.5204,-3.5686,-3.6666,-3.6611,-3.6574,-3.6573,-3.6766,-3.6796,0.0,0.0,0.0,-1.422,-1.1748,-0.9668,-0.8266,-0.6919,-0.6335,-0.7703,-0.8074,-0.8372,-0.913,-0.8404,-0.8224,-0.975,-0.9319,-0.8609,-0.794,-0.9695,-1.1007,-1.0972,0.0,0.0,0.0,0.0,0.0,0.0,-1.3752,-1.4025,-1.4222,-1.5254,-1.6429,-1.7707,-1.7544,-1.8103,-1.9442,-2.0187,-2.026,-1.9703,-2.0266,-1.9824,-1.8607,-1.9093,-1.9671,-2.0333,-2.073,-2.1888,-2.3578,-2.504,-2.5808,-2.6161,-2.6919,-2.7293,-2.7373,-2.739,-2.7465,-2.7647,-2.776,-2.776,-2.773,-2.794,-2.8971,-3.0162,-3.0162,-3.1367,-3.2787,-3.2787,-3.2852,-3.2916,-3.2916,-3.2948,-3.2965,-3.2838,-3.287,-3.2852,-3.2639,-3.2535,-3.25,-3.2588,-3.2601,-3.2648,-3.2773,-3.2805,-3.2838,-3.2884,-3.287,-3.287,-3.2979,-3.3073,-3.3135,-3.3262,-3.3352,-3.3611,-3.4213,-3.4285,-3.4494,-3.5096,-3.515,-3.515,-3.515,-3.5132,-3.5132,-3.5132,-3.5132,-3.5132,-3.5132,-3.5186,-3.5153,-3.5119,-3.5883,-3.6185,-2.2972,0.0,0.0,0.0,0.0,0.0,-0.989,-0.9114,-0.8816,-0.9414,-0.9382,-0.9491,-1.0005,-0.9115,-0.8691,-0.9793,-0.846,-0.7266,-0.7354,-0.9453,-1.0899,-1.0788,0.0,0.0,0.0,0.0,0.0,0.0,-1.2988,-1.3416,-1.4424,-1.6213,-1.7572,-1.8391,-1.8745,-1.936,-2.0314,-1.9699,-1.9607,-2.0033,-1.9157,-1.8596,-1.8395,-1.9021,-1.9767,-2.0599,-2.0908,-2.1704,-2.2843,-2.3964,-2.4782,-2.5403,-2.5669,-2.6191,-2.6754,-2.6854,-2.732,-2.7882,-2.794,-2.794,-2.7911,-2.7946,-2.86,-2.9395,-2.9364,-3.0597,-3.1996,-3.1996,-3.2469,-3.2948,-3.2916,-3.2983,-3.3033,-3.2902,-3.2955,-3.3005,-3.2852,-3.3487,-3.3773,-3.2781,-3.2588,-3.2654,-3.2773,-3.287,-3.2965,-3.2979,-3.306,-3.314,-3.3011,-3.3073,-3.3117,-3.3165,-3.3165,-3.3286,-3.3568,-3.3489,-3.3517,-3.3669,-3.3623,-3.3591,-3.3591,-3.3559,-3.3526,-3.3526,-3.3526,-3.3526,-3.3526,-3.4668,-3.5187,-3.5187,-3.5349,-3.5368,-2.2852,-2.086,-1.8797,-1.6419,0.0,0.0,-1.1945,-1.0987,-1.0405,-1.0762,-1.04,-1.0063,-1.0321,-0.9631,-0.8997,-0.8933,-0.8244,-0.7816,-0.806,-0.9527,-1.057,-1.0547,0.0,0.0,0.0,-1.3208,-1.3387,-1.3846,-1.3671,-1.4116,-1.5416,-1.6905,-1.8193,-1.9111,-1.9752,-2.0273,-2.0648,-2.0368,-2.0326,-2.0525,-1.9487,-1.8978,-1.8968,-1.9011,-1.9569,-2.0423,-2.0136,-2.1066,-2.2773,-2.333,-2.3784,-2.4218,-2.5338,-2.6033,-2.6452,-2.7032,-2.7579,-2.8042,-2.8071,-2.8071,-2.8042,-2.8032,-2.8575,-2.9225,-2.9207,-3.0225,-3.1446,-3.1751,-3.2414,-3.3042,-3.2993,-3.3078,-3.3158,-3.3011,-3.3046,-3.3082,-3.3011,-3.3494,-3.3802,-3.3354,-3.3372,-3.3458,-3.3401,-3.318,-3.2979,-3.2979,-3.3122,-3.3183,-3.3073,-3.3135,-3.3165,-3.3165,-3.3196,-3.3244,-3.331,-3.3214,-3.3165,-3.3117,-3.3055,-3.3042,-3.3042,-3.2979,-3.2948,-3.2948,-3.2916,-3.2916,-3.2916,-3.3794,-3.4418,-3.4757,-3.5062,-3.5349,-2.3106,-2.1471,-1.9878,-1.8722,-1.6938,0.0,-1.4122,-1.2617,-1.1511,-1.1858,-1.1229,-1.0513,-1.0488,-1.0094,-0.9323,-0.8097,-0.8786,-0.9414,-0.929,-0.9879,-1.0367,-1.0453,0.0,0.0,-1.3147,-1.3977,-1.4645,-1.5173,-1.5098,-1.5568,-1.6841,-1.7625,-1.8603,-1.9914,-2.0595,-2.0859,-2.0681,-2.1531,-2.1653,-2.1019,-2.0601,-2.0246,-1.9964,-1.923,-1.9335,-2.0038,-1.9213,-2.0481,-2.3157,-2.2993,-2.2877,-2.2986,-2.5422,-2.6282,-2.6301,-2.7353,-2.7929,-2.8154,-2.8209,-2.8182,-2.8154,-2.8209,-2.8719,-2.9319,-2.9357,-3.0042,-3.0964,-3.1794,-3.2547,-3.3117,-3.3117,-3.3214,-3.3292,-3.3165,-3.3117,-3.3117,-3.3099,-3.3167,-3.3391,-3.3974,-3.4311,-3.4401,-3.4117,-3.3508,-3.3011,-3.3011,-3.3104,-3.3117,-3.3117,-3.3244,-3.3322,-3.3322,-3.3364,-3.3411,-3.3322,-3.3322,-3.3292,-3.3147,-3.3117,-3.3117,-3.3117,-3.3042,-3.3011,-3.3011,-3.2948,-3.2916,-3.2916,-3.2916,-3.3259,-3.399,-3.4753,-3.5518,-2.2589,-2.162,-2.0653,-1.8469,-1.7646,0.0,-1.5431,-1.4382,-1.3557,-1.3038,-1.2497,-1.2038,-1.1642,-1.1484,-1.1161,-1.0523,-1.0726,-1.0401,-0.8812,-1.0258,-1.1392,-1.1097,0.0,0.0,-1.3734,-1.3398,-1.3609,-1.4673,-1.5267,-1.6449,-1.8289,-1.8946,-1.9718,-2.0797,-2.1103,-2.1246,-2.1323,-2.1142,-2.1133,-2.1246,-2.0627,-2.039,-2.0546,-2.027,-2.0114,-2.0054,-2.0639,-2.196,-2.3584,-2.2452,-2.24,-2.3152,-2.4416,-2.5269,-2.5826,-2.6109,-2.7121,-2.8327,-2.8371,-2.838,-2.8432,-2.8362,-2.854,-2.8745,-2.8648,-2.9313,-3.0359,-3.1781,-3.273,-3.3286,-3.3147,-3.3226,-3.3352,-3.3292,-3.3262,-3.3256,-3.3178,-3.423,-3.4781,-3.3548,-3.3324,-3.3347,-3.3337,-3.3273,-3.3232,-3.3232,-3.3322,-3.3334,-3.3334,-3.3422,-3.3452,-3.3452,-3.352,-3.352,-3.3481,-3.3452,-3.3422,-3.3364,-3.3292,-3.3262,-3.3262,-3.3135,-3.3086,-3.3086,-3.3011,-3.2979,-3.2979,-3.2916,-3.2987,-3.3134,-3.3309,-3.347,-2.2865,-2.1978,-2.1232,-1.9739,-1.8795,0.0,0.0,-1.5904,-1.5232,-1.4878,-1.4123,-1.3501,-1.3382,-1.3089,-1.2521,-1.172,-1.2241,-1.2327,-1.0959,-1.1314,-1.1757,-1.1848,0.0,0.0,-1.3534,-1.3704,-1.4477,-1.6303,-1.7097,-1.8203,-1.9776,-2.0101,-2.0608,-2.1335,-2.1375,-2.1293,-2.0991,-2.0895,-2.1035,-2.1393,-2.0661,-2.0544,-2.0952,-2.0953,-2.0945,-2.0997,-2.1896,-2.2792,-2.3583,-2.3008,-2.3277,-2.414,-2.4479,-2.5565,-2.6988,-2.7076,-2.7689,-2.8458,-2.8406,-2.8432,-2.8492,-2.8466,-2.8518,-2.8612,-2.8594,-2.9522,-3.0727,-3.1474,-3.2518,-3.3386,-3.3316,-3.3386,-3.3473,-3.3491,-3.3452,-3.3422,-3.3408,-3.3954,-3.4321,-3.3924,-3.3862,-3.3885,-3.3826,-3.3532,-3.331,-3.331,-3.3352,-3.3393,-3.3393,-3.3826,-3.3927,-3.3546,-3.3923,-3.4025,-3.3585,-3.3549,-3.352,-3.3452,-3.3422,-3.3364,-3.3352,-3.3244,-3.3165,-3.3086,-3.3073,-3.3042,-3.3042,-3.2979,-3.2948,-3.2965,-3.3391,-3.3633,-2.3326,-2.2407,-2.167,-2.0991,-1.9949,-1.885,0.0,0.0,0.0,-1.6475,-1.5568,-1.4859,-1.5008,-1.4487,0.0,-1.285,0.0,0.0,0.0,-1.307,0.0,-1.2813,0.0,0.0,0.0,-1.4571,-1.6213,-1.8745,-1.9165,-1.995,-2.1466,-2.134,-2.1424,-2.1874,-2.1746,-2.1279,-2.0444,-2.0745,-2.0991,-2.1197,-2.0752,-2.0808,-2.1262,-2.154,-2.184,-2.2177,-2.2864,-2.331,-2.3589,-2.3486,-2.4208,-2.5279,-2.4927,-2.6111,-2.8076,-2.8111,-2.8306,-2.8492,-2.8484,-2.851,-2.8569,-2.8569,-2.8637,-2.8687,-2.881,-2.9947,-3.1224,-3.1224,-3.2302,-3.3437,-3.352,-3.3512,-3.355,-3.3671,-3.3605,-3.352,-3.3559,-3.3662,-3.3942,-3.4534,-3.4987,-3.5087,-3.4604,-3.399,-3.3503,-3.334,-3.3364,-3.3422,-3.3422,-3.4182,-3.4441,-3.3611,-3.4316,-3.4491,-3.366,-3.3587,-3.3605,-3.352,-3.352,-3.3509,-3.3422,-3.3352,-3.3292,-3.3165,-3.3165,-3.3135,-3.3135,-3.3216,-3.3172,-3.3028,-3.3849,-3.4249,-2.3475,-2.2799,-2.2174,-2.1032,-2.0517,-1.9913,-1.8338,0.0,-1.7478,-1.6588,0.0,-1.6031,-1.569,0.0,0.0,-1.4945,0.0,0.0,-1.6063,-1.5807,-1.5137,-1.4223,-1.3534,0.0,0.0,-1.6462,-1.8305,-2.1002,-2.0175,-2.0848,-2.3754,-2.2938,-2.2518,-2.2839,-2.2555,-2.168,-2.0258,-2.0697,-2.063,-2.0185,-2.099,-2.139,-2.1497,-2.2275,-2.277,-2.2996,-2.3259,-2.3576,-2.3862,-2.2682,-2.3783,-2.609,-2.5338,-2.5922,-2.7165,-2.7225,-2.7828,-2.8587,-2.8644,-2.8743,-2.8839,-2.8839,-2.8905,-2.897,-2.9044,-3.0112,-3.1302,-3.1371,-3.2446,-3.3587,-3.3605,-3.3605,-3.3587,-3.3605,-3.3605,-3.3559,-3.3532,-3.4652,-3.5533,-3.5066,-3.5981,-3.6368,-3.486,-3.4503,-3.4226,-3.359,-3.3481,-3.3491,-3.3577,-3.4355,-3.4566,-3.3678,-3.443,-3.4604,-3.3678,-3.3643,-3.3643,-3.3605,-3.3605,-3.3549,-3.3509,-3.3422,-3.3364,-3.3364,-3.3322,-3.3262,-3.3262,-3.3885,-3.3786,-3.3122,-3.382,-3.3802,-2.3457,-2.2825,-2.2193,-2.1391,-2.0796,-2.012,-1.9091,-1.8692,-1.8487,-1.8181,0.0,0.0,0.0,0.0,0.0,0.0,-1.6728,0.0,0.0,0.0,-1.6859,0.0,0.0,0.0,0.0,0.0,0.0,0.0,-2.2586,-2.3019,-2.539,-2.4514,-2.3749,-2.3354,-2.25,-2.1472,-2.0326,-2.0478,-2.0426,-2.0235,-2.1007,-2.1444,-2.1598,-2.2485,-2.3032,-2.3242,-2.3513,-2.3771,-2.3959,-2.3424,-2.446,-2.6318,-2.5899,-2.6615,-2.7859,-2.7911,-2.8254,-2.8712,-2.8761,-2.8785,-2.8858,-2.8881,-2.8975,-2.9062,-2.8998,-3.0112,-3.1345,-3.1294,-3.2472,-3.3726,-3.3726,-3.3798,-3.3897,-3.3887,-3.3807,-3.3854,-3.4321,-3.5052,-3.5732,-3.6182,-3.7161,-3.7361,-3.5684,-3.5399,-3.5097,-3.4368,-3.4251,-3.4105,-3.366,-3.4327,-3.4538,-3.3734,-3.4412,-3.4604,-3.3799,-3.4165,-3.444,-3.4365,-3.4308,-3.4079,-3.3567,-3.3491,-3.3452,-3.3452,-3.3393,-3.3599,-3.4111,-3.4346,-3.4563,-3.472,-3.4943,-3.4893,-2.3251,0.0,-2.2165,-2.1399,-2.0795,-2.0264,-1.9515,-1.9341,-1.927,-1.9309,-1.8768,0.0,0.0,0.0,-1.7882,-1.7709,0.0,-1.8685,-1.8154,-1.8338,0.0,0.0,0.0,0.0,0.0,0.0,0.0,-2.5094,-2.463,-2.4894,-2.6521,-2.6138,-2.5312,-2.405,-2.3123,-2.1988,-2.064,-2.0827,-2.0733,-2.0444,-2.1241,-2.1711,-2.1832,-2.2746,-2.323,-2.3392,-2.3692,-2.3917,-2.4054,-2.411,-2.4931,-2.6169,-2.6327,-2.7073,-2.8062,-2.8164,-2.8268,-2.8367,-2.8458,-2.8627,-2.8834,-2.8952,-2.9044,-2.9085,-2.9021,-2.9971,-3.1127,-3.1272,-3.236,-3.3532,-3.3778,-3.3931,-3.4053,-3.4042,-3.3921,-3.3999,-3.4614,-3.5174,-3.5809,-3.6687,-3.7783,-3.8175,-3.6961,-3.6486,-3.586,-3.4673,-3.4673,-3.4527,-3.3724,-3.4355,-3.4538,-3.3734,-3.4383,-3.4678,-3.4119,-3.4614,-3.4962,-3.4916,-3.4859,-3.4483,-3.3651,-3.3549,-3.352,-3.352,-3.3452,-3.3724,-3.4375,-3.454,-3.4909,-3.555,-3.586,-3.5937,0.0,0.0,0.0,-2.0519,0.0,0.0,0.0,0.0,-1.983,0.0,-1.9665,-2.0023,-1.9624,-1.922,-1.9096,-1.9609,-1.9334,0.0,0.0,-1.9695,-1.8846,-1.78,0.0,0.0,0.0,0.0,0.0,-2.5911,-2.571,-2.5911,-2.7009,-2.7917,-2.7371,-2.5112,-2.5096,-2.3813,-2.1193,-2.2015,-2.1778,-2.052,-2.1893,-2.2485,-2.2395,-2.3218,-2.358,-2.3588,-2.3816,-2.4016,-2.419,-2.4208,-2.4719,-2.563,-2.6518,-2.69,-2.6991,-2.732,-2.7362,-2.7295,-2.7531,-2.82,-2.8929,-2.9134,-2.9134,-2.9112,-2.9156,-2.9724,-3.0512,-3.1352,-3.2084,-3.2816,-3.3666,-3.3895,-3.3913,-3.3895,-3.3895,-3.3887,-3.3852,-3.511,-3.6208,-3.606,-3.7467,-3.8689,-3.8634,-3.7783,-3.6389,-3.4073,-3.4412,-3.4603,-3.3808,-3.4467,-3.4595,-3.3611,-3.4327,-3.4869,-3.4783,-3.484,-3.4916,-3.499,-3.4916,-3.454,-3.3735,-3.3615,-3.3605,-3.3605,-3.352,-3.3509,-3.3546,-3.4238,-3.4624,-3.4679,-3.6085,-3.6425,0.0,0.0,-2.2598,-2.1319,0.0,0.0,0.0,0.0,0.0,0.0,0.0,-2.0153,-1.9913,-1.9826,-1.9774,-1.9731,-1.9636,-1.9599,0.0,-1.9582,-1.9471,-1.929,-2.018,-2.1183,0.0,0.0,0.0,-2.6504,-2.7217,-2.7924,-2.8777,-2.8907,-2.8291,-2.6809,-2.5065,-2.3594,-2.2475,-2.1859,-2.1486,-2.1364,-2.2152,-2.2565,-2.2617,-2.3341,-2.371,-2.3816,-2.4016,-2.4151,-2.419,-2.419,-2.4685,-2.5472,-2.5777,-2.6151,-2.6577,-2.7235,-2.7465,-2.7585,-2.8296,-2.8407,-2.8346,-2.899,-2.9218,-2.9218,-2.9108,-3.0074,-3.127,-3.1409,-3.2483,-3.3647,-3.3949,-3.4074,-3.4099,-3.4099,-3.3998,-3.406,-3.4658,-3.5101,-3.564,-3.6567,-3.7202,-3.7916,-3.8762,-3.8619,-3.7916,-3.6507,-3.6311,-3.5978,-3.5026,-3.5089,-3.4801,-3.3793,-3.4553,-3.483,-3.4126,-3.5154,-3.5834,-3.5862,-3.5834,-3.521,-3.3835,-3.3698,-3.3671,-3.3671,-3.3605,-3.386,-3.4447,-3.4634,-3.5023,-3.5521,-3.5986,-3.634,-2.2981,-2.3191,0.0,-2.1907,-2.1551,0.0,-2.0438,0.0,-2.0438,0.0,0.0,0.0,-2.0233,-2.0296,-2.0304,-1.9961,-1.9998,-1.9874,0.0,-1.9567,-1.9726,-1.9827,-2.064,-2.1659,-2.2896,-2.3576,-2.476,-2.6795,-2.7513,-2.8316,0.0,0.0,-2.8971,-2.8059,-2.5738,-2.4149,-2.341,-2.2322,-2.1767,-2.1685,-2.2258,-2.2573,-2.2686,-2.3206,-2.354,-2.3707,-2.3896,-2.4036,-2.4132,-2.4132,-2.4446,-2.4999,-2.5523,-2.5823,-2.6031,-2.6658,-2.6926,-2.712,-2.8164,-2.8268,-2.8083,-2.8981,-2.9262,-2.924,-2.9108,-2.9871,-3.0882,-3.1335,-3.2287,-3.3327,-3.3951,-3.4124,-3.4124,-3.4173,-3.4023,-3.4068,-3.4692,-3.4917,-3.5312,-3.6342,-3.6895,-3.7589,-3.8766,-3.8997,-3.8625,-3.7376,-3.7282,-3.6967,-3.5983,-3.5789,-3.5373,-3.4483,-3.5143,-3.5483,-3.507,-3.6347,-3.6909,-3.634,-3.6303,-3.555,-3.3862,-3.3753,-3.3726,-3.3726,-3.3671,-3.3899,-3.4467,-3.441,-3.4626,-3.5155,-3.569,-3.6194]}]]